[[{"header":{"parameterUnit":"m.s-1","parameterCategory":1,"la1":30.6,"la2":29.2853,"lo1":-89.7004,"lo2":-87.6739,"dy":0.0162,"dx":0.0183,"nx":112,"ny":82,"refTime":"2024-08-02T06:00:00:Z","depth":0,"parameterNumber":2,"parameterNumberName":"U-component_of_WINDS"},"data":[0.0,0.0,0.0,0.0,0.0,0.0,0.0,0.0,0.0,0.0,0.0,0.0,0.0,0.0,0.0,0.0,0.0,0.0,0.0,0.0,0.0,0.0,0.0,0.0,0.0,0.0,0.0,0.0,0.0,0.0,0.0,0.0,0.0,0.0,0.0,0.0,0.0,0.0,0.0,0.0,0.0,0.0,0.0,0.0,0.0,0.0,0.0,0.0,0.0,0.0,0.0,0.0,0.0,0.0,0.0,0.0,0.0,0.0,0.0,0.0,0.0,0.0,0.0,0.0,0.0,0.0,0.0,0.0,0.0,0.0,0.0,0.0,0.0,0.0,0.0,0.0,0.0,0.0,0.0,0.0,0.0,0.0,0.0,0.0,0.0,0.0,0.0,0.0,0.0,0.0,0.0,-1.8629,-2.2507,-2.4683,-2.4134,-2.2413,-1.9861,-1.6308,0.0,0.0,0.0,0.0,0.0,0.0,0.0,0.0,0.0,0.0,0.0,0.0,0.0,0.0,0.0,0.0,0.0,0.0,0.0,0.0,0.0,0.0,0.0,0.0,0.0,0.0,0.0,0.0,0.0,0.0,0.0,0.0,0.0,0.0,0.0,0.0,0.0,0.0,0.0,0.0,0.0,0.0,0.0,0.0,0.0,0.0,0.0,0.0,0.0,0.0,0.0,0.0,0.0,0.0,0.0,0.0,0.0,0.0,0.0,0.0,0.0,0.0,0.0,0.0,0.0,0.0,0.0,0.0,0.0,0.0,0.0,0.0,0.0,0.0,0.0,0.0,0.0,0.0,0.0,0.0,0.0,0.0,0.0,0.0,0.0,0.0,0.0,0.0,0.0,0.0,0.0,0.0,0.0,0.0,0.0,0.0,0.0,0.0,0.0,0.0,0.0,0.0,0.0,0.0,-1.649,-2.2455,-2.4179,-2.4683,-2.4134,-2.1732,-1.9056,-1.6291,0.0,0.0,0.0,0.0,0.0,0.0,0.0,0.0,0.0,0.0,0.0,0.0,0.0,0.0,0.0,0.0,0.0,0.0,0.0,0.0,0.0,0.0,0.0,0.0,0.0,0.0,0.0,0.0,0.0,0.0,0.0,0.0,0.0,0.0,0.0,0.0,0.0,0.0,0.0,0.0,0.0,0.0,0.0,0.0,0.0,0.0,0.0,0.0,0.0,0.0,0.0,0.0,0.0,0.0,0.0,0.0,0.0,0.0,0.0,0.0,0.0,0.0,0.0,0.0,0.0,0.0,0.0,0.0,0.0,0.0,0.0,0.0,0.0,0.0,0.0,0.0,0.0,0.0,0.0,0.0,0.0,0.0,0.0,0.0,0.0,0.0,0.0,0.0,0.0,0.0,0.0,0.0,0.0,0.0,0.0,0.0,0.0,0.0,0.0,0.0,0.0,0.0,0.0,-1.5674,-1.8572,-2.3928,-2.4628,-2.4577,-2.419,-2.1586,-1.8962,-1.6478,-1.4282,0.0,0.0,0.0,0.0,0.0,0.0,0.0,0.0,0.0,0.0,0.0,0.0,0.0,0.0,0.0,0.0,0.0,0.0,0.0,0.0,0.0,0.0,0.0,0.0,0.0,0.0,0.0,0.0,0.0,0.0,0.0,0.0,0.0,0.0,0.0,0.0,0.0,0.0,0.0,0.0,0.0,0.0,0.0,0.0,0.0,0.0,0.0,0.0,0.0,0.0,0.0,0.0,0.0,0.0,0.0,0.0,0.0,0.0,0.0,0.0,0.0,0.0,0.0,0.0,0.0,0.0,0.0,0.0,0.0,0.0,0.0,0.0,0.0,0.0,0.0,0.0,0.0,0.0,0.0,0.0,0.0,0.0,0.0,0.0,0.0,0.0,0.0,0.0,0.0,0.0,0.0,0.0,0.0,0.0,0.0,0.0,0.0,0.0,0.0,0.0,0.0,0.0,-1.8866,-2.0958,-2.4513,-2.4721,-2.4492,-2.4209,-2.1373,-1.8708,-1.6635,-1.3613,0.0,0.0,0.0,0.0,0.0,0.0,0.0,0.0,0.0,0.0,0.0,0.0,0.0,0.0,0.0,0.0,0.0,0.0,0.0,0.0,0.0,0.0,0.0,0.0,0.0,0.0,0.0,0.0,0.0,0.0,0.0,0.0,0.0,0.0,0.0,0.0,0.0,0.0,0.0,0.0,0.0,0.0,0.0,0.0,0.0,0.0,0.0,0.0,0.0,0.0,0.0,0.0,0.0,0.0,0.0,0.0,0.0,0.0,0.0,0.0,0.0,0.0,0.0,0.0,0.0,0.0,0.0,0.0,0.0,0.0,0.0,0.0,0.0,0.0,0.0,0.0,0.0,0.0,0.0,0.0,0.0,0.0,0.0,0.0,0.0,0.0,0.0,0.0,0.0,0.0,0.0,0.0,0.0,0.0,0.0,0.0,0.0,0.0,0.0,0.0,0.0,0.0,-1.9657,-2.3126,-2.4735,-2.4721,-2.4492,-2.4209,-2.065,-1.7875,-1.6579,-1.2866,0.0,0.0,0.0,0.0,0.0,0.0,0.0,0.0,0.0,0.0,0.0,0.0,0.0,0.0,0.0,0.0,0.0,0.0,0.0,0.0,0.0,0.0,0.0,0.0,0.0,0.0,0.0,0.0,0.0,0.0,0.0,0.0,0.0,0.0,0.0,0.0,0.0,0.0,0.0,0.0,0.0,0.0,0.0,0.0,0.0,0.0,0.0,0.0,0.0,0.0,0.0,0.0,0.0,0.0,0.0,0.0,0.0,0.0,0.0,0.0,0.0,0.0,0.0,0.0,0.0,0.0,0.0,0.0,0.0,0.0,0.0,0.0,0.0,0.0,0.0,0.0,0.0,0.0,0.0,0.0,0.0,0.0,0.0,0.0,0.0,0.0,0.0,0.0,0.0,0.0,0.0,0.0,0.0,0.0,0.0,0.0,0.0,0.0,0.0,0.0,0.0,0.0,-1.8632,-2.1803,0.0,-2.4577,-2.432,-2.4209,-2.1417,-1.8755,-1.6633,0.0,0.0,0.0,0.0,0.0,0.0,0.0,0.0,0.0,0.0,0.0,0.0,0.0,0.0,0.0,0.0,0.0,0.0,0.0,0.0,0.0,0.0,0.0,0.0,0.0,0.0,0.0,0.0,0.0,0.0,0.0,0.0,0.0,0.0,0.0,0.0,0.0,0.0,0.0,0.0,0.0,0.0,0.0,0.0,0.0,0.0,0.0,0.0,0.0,0.0,0.0,0.0,0.0,0.0,0.0,0.0,0.0,0.0,0.0,0.0,0.0,0.0,0.0,0.0,0.0,0.0,0.0,0.0,0.0,0.0,0.0,0.0,0.0,0.0,0.0,0.0,0.0,0.0,0.0,0.0,0.0,0.0,0.0,0.0,0.0,0.0,0.0,0.0,0.0,0.0,0.0,0.0,0.0,0.0,0.0,0.0,0.0,0.0,0.0,0.0,0.0,0.0,-1.5367,-1.8493,-2.157,0.0,-2.4482,-2.4098,-2.3841,-2.146,-1.8887,-1.6337,0.0,0.0,0.0,0.0,0.0,0.0,0.0,0.0,0.0,0.0,0.0,0.0,0.0,0.0,0.0,0.0,0.0,0.0,0.0,0.0,0.0,0.0,0.0,0.0,0.0,0.0,0.0,0.0,0.0,0.0,0.0,0.0,0.0,0.0,0.0,0.0,0.0,0.0,0.0,0.0,0.0,0.0,0.0,0.0,0.0,0.0,0.0,0.0,0.0,0.0,0.0,0.0,0.0,0.0,0.0,0.0,0.0,0.0,0.0,0.0,0.0,0.0,0.0,0.0,0.0,0.0,0.0,0.0,0.0,0.0,0.0,0.0,0.0,0.0,0.0,0.0,0.0,0.0,0.0,0.0,0.0,0.0,0.0,0.0,0.0,0.0,0.0,0.0,0.0,0.0,0.0,0.0,0.0,0.0,0.0,0.0,0.0,0.0,0.0,0.0,0.0,0.0,-1.5574,-1.9651,-2.3045,-2.4726,-2.4482,-2.3878,-2.3052,-2.0427,-1.7873,0.0,0.0,0.0,0.0,0.0,0.0,0.0,0.0,0.0,0.0,0.0,0.0,0.0,0.0,0.0,0.0,0.0,0.0,0.0,0.0,0.0,0.0,0.0,0.0,0.0,0.0,0.0,0.0,0.0,0.0,0.0,0.0,0.0,0.0,0.0,0.0,0.0,0.0,0.0,0.0,0.0,0.0,0.0,0.0,0.0,0.0,0.0,0.0,0.0,0.0,0.0,0.0,0.0,0.0,0.0,0.0,0.0,0.0,0.0,0.0,0.0,0.0,0.0,0.0,0.0,0.0,0.0,0.0,0.0,0.0,0.0,0.0,0.0,0.0,0.0,0.0,0.0,0.0,0.0,0.0,0.0,0.0,0.0,0.0,0.0,0.0,0.0,0.0,0.0,0.0,0.0,0.0,0.0,0.0,0.0,0.0,0.0,0.0,0.0,0.0,0.0,0.0,0.0,-1.5826,-1.9784,-2.3045,-2.4726,-2.4601,-2.3934,-2.2807,-2.1387,-1.9038,-1.5443,0.0,0.0,0.0,0.0,0.0,0.0,0.0,0.0,0.0,0.0,0.0,0.0,0.0,0.0,0.0,0.0,0.0,0.0,0.0,0.0,0.0,0.0,0.0,0.0,0.0,0.0,0.0,0.0,0.0,0.0,0.0,0.0,0.0,0.0,0.0,0.0,0.0,0.0,0.0,0.0,0.0,0.0,0.0,0.0,0.0,0.0,0.0,0.0,0.0,0.0,0.0,0.0,0.0,0.0,0.0,0.0,0.0,0.0,0.0,0.0,0.0,0.0,0.0,0.0,0.0,0.0,0.0,0.0,0.0,0.0,0.0,0.0,0.0,0.0,0.0,0.0,0.0,0.0,0.0,0.0,0.0,0.0,0.0,0.0,0.0,0.0,0.0,0.0,0.0,0.0,0.0,0.0,0.0,0.0,0.0,0.0,0.0,0.0,0.0,0.0,0.0,0.0,-1.5955,-1.9917,-2.3195,-2.4846,-2.479,-2.4045,-2.2605,-2.1753,-1.9593,-1.5586,0.0,0.0,0.0,0.0,0.0,0.0,0.0,0.0,0.0,0.0,0.0,0.0,0.0,0.0,0.0,0.0,0.0,0.0,0.0,0.0,0.0,0.0,0.0,0.0,0.0,0.0,0.0,0.0,0.0,0.0,0.0,0.0,0.0,0.0,0.0,0.0,0.0,0.0,0.0,0.0,0.0,0.0,0.0,0.0,0.0,0.0,0.0,0.0,0.0,0.0,0.0,0.0,0.0,0.0,0.0,0.0,0.0,0.0,0.0,0.0,0.0,0.0,0.0,0.0,0.0,0.0,0.0,0.0,0.0,0.0,0.0,0.0,0.0,0.0,0.0,0.0,0.0,0.0,0.0,0.0,0.0,0.0,0.0,0.0,0.0,0.0,0.0,0.0,0.0,0.0,0.0,0.0,0.0,0.0,0.0,0.0,0.0,0.0,0.0,0.0,0.0,0.0,-1.5974,-2.0055,-2.3426,-2.5039,-2.4985,-2.4131,-2.2407,-2.1731,-1.978,-1.5993,0.0,0.0,0.0,0.0,0.0,0.0,0.0,0.0,0.0,0.0,0.0,0.0,0.0,0.0,0.0,0.0,0.0,0.0,0.0,0.0,0.0,0.0,0.0,0.0,0.0,0.0,0.0,0.0,0.0,0.0,0.0,0.0,0.0,0.0,0.0,0.0,0.0,0.0,0.0,0.0,0.0,0.0,0.0,0.0,0.0,0.0,0.0,0.0,0.0,0.0,0.0,0.0,0.0,0.0,0.0,0.0,0.0,0.0,0.0,0.0,-1.056,0.0,0.0,0.0,0.0,0.0,0.0,0.0,0.0,0.0,0.0,0.0,0.0,0.0,0.0,0.0,0.0,0.0,0.0,0.0,0.0,0.0,0.0,0.0,0.0,0.0,0.0,0.0,0.0,0.0,0.0,0.0,0.0,0.0,0.0,0.0,0.0,0.0,0.0,0.0,0.0,0.0,-1.5974,-2.0055,-2.3446,-2.5099,-2.5131,-2.423,-2.2231,-2.202,-2.0355,-1.649,0.0,0.0,0.0,0.0,0.0,0.0,0.0,0.0,0.0,0.0,0.0,0.0,0.0,0.0,0.0,0.0,0.0,0.0,0.0,0.0,0.0,0.0,0.0,0.0,0.0,0.0,0.0,0.0,0.0,0.0,0.0,0.0,0.0,0.0,0.0,0.0,0.0,0.0,0.0,0.0,0.0,0.0,0.0,0.0,0.0,0.0,0.0,0.0,0.0,0.0,0.0,0.0,0.0,0.0,0.0,0.0,0.0,0.0,0.0,0.0,0.0,-1.1044,0.0,0.0,0.0,0.0,0.0,0.0,0.0,0.0,0.0,0.0,0.0,0.0,0.0,0.0,0.0,0.0,0.0,0.0,0.0,0.0,0.0,0.0,0.0,0.0,0.0,0.0,0.0,0.0,0.0,0.0,0.0,0.0,0.0,0.0,0.0,0.0,0.0,0.0,0.0,0.0,-1.6719,-2.0506,-2.3617,-2.5278,-2.5381,-2.4554,-2.2604,-2.2331,-2.0868,-1.7615,-1.6595,0.0,0.0,0.0,0.0,0.0,0.0,0.0,0.0,0.0,0.0,0.0,0.0,0.0,0.0,0.0,0.0,0.0,0.0,0.0,0.0,0.0,0.0,0.0,0.0,0.0,0.0,0.0,0.0,0.0,0.0,0.0,0.0,0.0,0.0,0.0,0.0,0.0,0.0,0.0,0.0,0.0,0.0,0.0,0.0,0.0,0.0,0.0,0.0,0.0,0.0,0.0,0.0,0.0,-1.1706,-1.2584,-1.3184,-1.4506,-1.5441,-1.5886,-1.4052,-1.3918,-1.4738,0.0,0.0,0.0,0.0,0.0,0.0,0.0,0.0,0.0,0.0,0.0,0.0,0.0,0.0,0.0,0.0,0.0,0.0,0.0,0.0,0.0,0.0,0.0,0.0,0.0,-0.8676,-0.8637,0.0,0.0,0.0,0.0,0.0,0.0,0.0,0.0,0.0,0.0,0.0,0.0,-1.7833,-2.1243,-2.3965,-2.5455,-2.5605,-2.4937,-2.3309,-2.2713,-2.1416,-1.9077,-1.7885,-1.6489,0.0,0.0,0.0,0.0,0.0,0.0,0.0,0.0,0.0,0.0,0.0,0.0,0.0,0.0,0.0,0.0,0.0,0.0,0.0,0.0,0.0,0.0,0.0,0.0,0.0,0.0,0.0,0.0,0.0,0.0,0.0,0.0,0.4736,0.5016,0.0,0.0,0.0,0.0,0.0,0.0,0.0,0.0,0.0,0.0,0.0,0.0,0.0,-0.8591,-0.7986,-1.0222,-1.1436,-1.1589,-1.3681,-1.5024,-1.5762,-1.7288,-1.8354,-1.9003,-1.8694,0.0,-1.4915,-1.3966,0.0,0.0,0.0,0.0,0.0,0.0,0.0,0.0,0.0,0.0,0.0,0.0,0.0,0.0,0.0,0.0,0.0,0.0,0.0,0.0,0.0,0.0,-0.7058,-0.8098,-0.8358,-0.8904,0.0,-1.0073,-0.894,-0.9093,-0.977,0.0,0.0,0.0,0.0,0.0,0.0,0.0,-1.909,-2.2174,-2.4541,-2.5586,-2.5634,-2.523,-2.4288,-2.34,-2.2269,-2.0766,-1.9238,-1.7871,-1.6683,-1.5119,0.0,0.0,0.0,0.0,0.0,0.0,0.0,0.0,0.0,0.0,0.0,0.0,0.0,0.0,0.0,0.0,0.0,0.0,0.0,0.0,0.0,0.0,0.0,0.0,0.0,0.0,0.0,0.0,0.0,0.4196,0.4156,0.4135,0.3423,0.2829,0.0,0.0,0.0,0.0,0.0,0.0,0.0,0.0,0.0,-0.9532,-0.9906,-1.0631,-1.1796,-1.3016,-1.3992,-1.4631,-1.6033,-1.6985,-1.7624,-1.871,-1.919,-1.9079,-1.8776,-1.7879,-1.6573,-1.5886,-1.4134,-1.1675,0.0,0.0,0.0,0.0,-0.7334,-0.7788,-0.6424,-0.6983,0.0,-0.6669,0.0,0.0,0.0,0.0,0.0,0.0,0.0,0.0,0.0,0.0,-0.7285,-0.8294,-0.9148,-1.0194,-1.1997,-1.2277,-1.1893,0.0,-1.1837,-1.198,-0.973,0.0,0.0,0.0,0.0,0.0,-2.0522,-2.2811,-2.4596,-2.5495,-2.5599,-2.5254,-2.4413,-2.3554,-2.2582,-2.1469,-2.0262,-1.9104,-1.7996,-1.6926,-1.5388,0.0,0.0,0.0,0.0,0.0,0.0,0.0,0.0,0.0,0.0,0.0,0.0,0.0,0.0,0.0,0.0,0.0,0.0,0.0,0.0,0.0,0.0,0.0,0.0,0.0,0.0,0.0,0.0,0.3879,0.3663,0.3395,0.289,0.245,0.0,0.0,0.0,0.0,0.0,0.0,-0.3842,-0.5968,-0.8634,-1.1763,-1.116,-1.1839,-1.4086,-1.4482,-1.5184,-1.6146,-1.6797,-1.7472,-1.8178,-1.8715,-1.8768,-1.8424,-1.7985,-1.7821,-1.7791,-1.7014,-1.5591,-1.3718,-1.2514,-1.0786,-0.8888,-0.9107,-0.9719,-1.0327,-0.9261,-0.9227,-0.9267,-0.6979,0.0,-0.55,-0.479,0.0,0.0,0.0,0.0,-0.5091,-0.5867,-0.6638,-0.7431,-0.8436,-0.9607,-1.0939,-1.2473,-1.369,-1.4172,0.0,-1.4105,-1.4179,-1.1423,0.0,0.0,0.0,0.0,-2.0055,-2.1932,-2.3505,-2.4696,-2.5346,-2.55,-2.5303,-2.4656,-2.3671,-2.277,-2.2047,-2.0999,-2.0013,-1.9144,-1.844,-1.7224,-1.5376,0.0,0.0,0.0,0.0,0.0,0.0,0.0,0.0,0.0,0.0,0.0,0.0,0.0,0.0,0.0,0.0,0.0,0.0,0.0,0.0,0.0,0.0,0.0,0.0,0.0,0.0,0.0,0.0,0.0,0.3507,0.3746,0.0,0.0,0.0,0.0,-0.2521,-0.5428,-0.6996,-0.6624,-0.8646,-0.9482,-0.8866,-1.0411,-1.1345,-1.1478,-1.2792,-1.3785,-1.4355,-1.4678,-1.5513,-1.6595,-1.6652,-1.7034,-1.7633,-1.7599,-1.7599,-1.7575,-1.7249,-1.6645,-1.5892,-1.4533,-1.3078,-1.1781,-1.1822,-1.1446,-1.1019,-1.1543,-1.088,-0.9502,-0.781,-0.616,-0.4864,-0.4826,-0.4772,0.0,0.0,-0.6077,-0.6195,-0.6509,-0.6622,-0.6999,-0.8364,-0.9231,-1.0285,-1.2357,-1.3369,-1.4202,0.0,-1.6658,-1.705,-1.5859,0.0,-1.8129,-1.82,-1.9901,-2.1742,-2.3303,-2.4406,-2.5108,-2.5193,-2.5393,-2.5498,-2.544,-2.3945,-2.2952,-2.2849,-2.1307,-2.0348,-2.0211,-1.952,-1.8303,-1.6551,-1.4839,0.0,0.0,0.0,0.0,0.0,0.0,0.0,0.0,0.0,0.0,0.0,0.0,0.0,0.0,0.0,0.0,0.0,0.0,0.0,0.0,0.0,0.0,0.0,0.0,0.0,0.0,0.0,0.0,0.1055,0.0839,0.0,0.0,-0.1462,-0.3057,-0.5177,-0.5652,-0.6298,-0.733,-0.8089,-0.8992,-1.0077,-1.1269,-1.25,-1.3865,-1.4392,-1.4725,-1.4908,-1.5529,-1.6009,-1.6476,-1.6939,-1.7368,-1.7707,-1.7707,-1.7707,-1.7745,-1.7575,-1.6949,-1.5955,-1.5468,-1.415,-1.2558,-1.2558,-1.2268,-1.1781,-1.0836,-1.0359,-0.9735,-0.7384,-0.6193,-0.5697,-0.5703,-0.5697,-0.59,-0.6774,-0.7024,-0.714,-0.776,-0.7869,-0.8327,-0.9982,-1.0567,-1.1319,-1.3542,-1.4226,-1.4756,-1.6044,-1.7076,-1.7404,-1.636,-1.8548,-2.008,-1.9107,-2.1096,-2.2897,-2.3455,-2.4354,-2.4924,-2.4934,-2.5022,-2.509,-2.5224,-2.3747,-2.2843,-2.2964,-2.0879,-1.9626,-1.9596,-1.8769,-1.7751,-1.6618,-1.5458,-1.3897,0.0,0.0,0.0,0.0,0.0,0.0,0.0,0.0,0.0,0.0,0.0,0.0,0.0,0.0,0.0,0.0,0.0,0.0,0.0,0.0,0.0,0.0,0.0,0.0,0.0,0.0,0.1366,-0.0433,-0.1693,-0.2121,-0.1467,-0.2735,-0.4355,-0.61,-0.6084,-0.6563,-0.7894,-0.8559,-0.9592,-1.1009,-1.1633,-1.2593,-1.3999,-1.4396,-1.4529,-1.441,-1.5364,-1.567,-1.5606,-1.6069,-1.634,-1.6515,-1.6839,-1.6974,-1.6974,-1.7306,-1.691,-1.6187,-1.6315,-1.5385,-1.3959,-1.3821,-1.342,-1.2764,-1.1059,-1.0268,-0.9684,-0.787,-0.7031,-0.678,-0.678,-0.678,-0.6951,-0.7728,-0.8121,-0.8462,-0.8869,-0.9356,-0.9987,-1.095,-1.1457,-1.2225,-1.4164,-1.4625,-1.5062,-1.625,-1.7247,-1.7702,-1.7006,-1.9387,-2.1026,-1.9913,-2.1738,-2.3226,-2.3191,-2.3989,-2.4535,-2.4535,-2.47,-2.4847,-2.4992,-2.3506,-2.2634,-2.2817,-2.0743,-1.9396,-1.918,-1.8595,-1.774,-1.6615,-1.5468,-1.4179,-1.2765,0.0,0.0,0.0,0.0,0.0,0.0,0.0,0.0,0.0,0.0,0.0,0.0,0.0,0.0,0.0,0.0,0.0,0.0,0.0,0.0,0.0,0.0,0.0,-0.1397,-0.1035,-0.0978,-0.0867,-0.3565,-0.4773,-0.3119,-0.4306,-0.514,-0.5205,-0.7081,-0.8265,-0.842,-1.03,-1.1361,-1.1368,-1.1368,-1.1443,-1.145,-1.2702,-1.3125,-1.2751,-1.3934,-1.4318,-1.3924,-1.3924,-1.3991,-1.4057,-1.4902,-1.5292,-1.5357,-1.6303,-1.6641,-1.6719,-1.7042,-1.6727,-1.6035,-1.5546,-1.4911,-1.3941,-1.2413,-1.0793,-0.935,-0.935,-0.8753,-0.8027,-0.8027,-0.8027,-0.8174,-0.8691,-0.94,-1.0,-0.9773,-1.0895,-1.184,-1.1148,-1.1718,-1.2828,-1.4061,-1.4551,-1.5085,-1.6275,-1.7353,-1.8092,-1.8145,-1.9733,-2.0959,-2.0847,-2.19,0.0,-2.2642,-2.3426,-2.3988,-2.3988,-2.4468,-2.479,-2.479,-2.3248,-2.2363,-2.2486,-2.0975,-1.9759,-1.9126,-1.9137,-1.8351,-1.6625,-1.494,-1.3649,-1.2784,0.0,0.0,0.0,0.0,0.0,0.0,0.0,0.0,0.0,0.0,0.0,0.0,0.0,0.0,0.0,0.0,0.0,0.0,0.0,0.0,0.0,0.0,-0.5345,-0.3981,-0.4008,-0.4153,-0.4114,-0.4872,-0.5229,-0.492,-0.5246,-0.6071,-0.7519,-0.7578,-0.8186,-0.957,-1.0128,-1.0545,-1.0812,-1.1462,-1.2198,-1.3049,-1.3423,-1.3494,-1.3413,-1.4481,-1.4965,-1.4866,-1.4866,-1.5213,-1.5824,-1.542,-1.5213,-1.5282,-1.5489,-1.5978,-1.6661,-1.6753,-1.6336,-1.5668,-1.5547,-1.4554,-1.3282,-1.3526,-1.226,-1.0536,-1.0562,-0.9845,-0.8941,-0.8941,-0.8941,-0.9122,-0.9876,-1.0233,-1.0401,-1.0403,-1.0677,-1.1163,-1.1799,-1.2192,-1.2879,-1.4509,-1.5034,-1.5366,-1.6194,-1.7007,-1.7773,-1.8464,-1.9617,-2.0636,-2.1272,-2.2124,0.0,-2.301,-2.3468,-2.3783,-2.3783,-2.4135,-2.432,-2.4227,-2.3004,-2.2319,-2.2486,-2.0495,-1.9218,-1.9046,-1.8435,-1.76,-1.6545,-1.6056,-1.5403,0.0,0.0,0.0,0.0,0.0,0.0,0.0,0.0,0.0,0.0,0.0,0.0,0.0,0.0,0.0,0.0,0.0,0.0,0.0,0.0,0.0,0.0,-0.5205,-0.5571,-0.5191,-0.5214,-0.5301,-0.5446,-0.5862,-0.6156,-0.6275,-0.6712,-0.7446,-0.8609,-0.8705,-0.9188,-1.0266,-1.0728,-1.1078,-1.1313,-1.1827,-1.2415,-1.3091,-1.3528,-1.3528,-1.3098,-1.4091,-1.4378,-1.4019,-1.4019,-1.4299,0.0,-1.4665,-1.4593,-1.4593,-1.5021,-1.5517,0.0,0.0,0.0,0.0,0.0,-1.4024,-1.2841,-1.3027,-1.2238,-1.1169,-1.1202,-1.0686,-1.0024,-1.0024,-0.9943,-0.9977,-1.0428,-1.0863,-1.1108,-1.1108,-1.1593,-1.2281,-1.2983,-1.3281,-1.3838,-1.5447,-1.5531,-1.557,-1.656,-1.6873,0.0,-1.8324,-1.9309,-2.0203,-2.0959,-2.174,-2.2307,-2.2504,-2.2979,-2.3277,-2.3277,-2.3714,-2.3959,-2.3886,-2.3064,0.0,0.0,0.0,-1.9598,-1.903,-1.8164,0.0,0.0,0.0,0.0,0.0,0.0,0.0,0.0,-1.5838,-1.5798,0.0,0.0,0.0,0.0,0.0,0.0,0.0,0.0,0.0,0.0,0.0,0.0,0.0,0.0,0.0,0.0,-0.5303,-0.5599,-0.5782,-0.5614,-0.5563,-0.5786,-0.6704,-0.7324,-0.7509,-0.8301,-0.8876,-0.9038,-1.0033,-1.0683,-1.0755,0.0,0.0,0.0,0.0,-1.2305,-1.2305,-1.3098,-1.3098,-1.2305,-1.3237,-1.3237,-1.2445,-1.2445,-1.2519,-1.2659,-1.331,-1.36,-1.3745,-1.4522,-1.5021,-1.5271,-1.5694,-1.6388,-1.6921,-1.493,-1.3621,-1.2689,-1.2067,0.0,0.0,-1.1607,-1.1344,-1.1035,-1.1002,-1.0815,-1.0665,-1.0694,-1.1226,-1.1834,-1.1888,-1.2992,-1.4085,-1.4255,-1.4581,-1.5225,-1.6611,-1.6193,-1.5957,-1.7143,-1.6954,-1.6914,-1.7921,-1.8873,-1.9677,-2.023,-2.0991,-2.1552,-2.1642,-2.2241,-2.2669,-2.2695,0.0,0.0,-2.3649,-2.3248,-2.3067,-2.3182,-2.1901,-2.06,-1.9419,-1.8636,-1.8194,-1.8098,-1.8208,-1.8607,-1.928,-2.0158,-2.0581,-2.0523,-1.8254,-1.7767,0.0,0.0,0.0,0.0,0.0,0.0,0.0,0.0,0.0,0.0,0.0,0.0,0.0,0.0,0.0,-0.722,-0.7954,-0.8435,-0.8157,-0.8107,-0.7836,-0.7082,-0.7859,-0.8574,-0.8727,-0.8892,-0.94,-1.0324,-1.0609,-1.1089,-1.1918,-1.2198,0.0,-1.2305,-1.2305,-1.2305,-1.2305,-1.2445,-1.2445,-1.2305,0.0,0.0,-1.3455,-1.3455,-1.3882,-1.4593,-1.3164,-1.3025,-1.3673,-1.3091,-1.3803,-1.5226,-1.5292,-1.5477,-1.5547,-1.5121,-1.4324,-1.363,-1.4253,-1.3301,-1.1918,-1.2683,-1.2192,-1.1296,-1.1062,-1.0955,0.0,-1.1479,-1.171,-1.1958,-1.2573,-1.3,-1.3537,-1.4798,-1.5138,-1.5595,-1.7148,-1.745,-1.7352,-1.7195,-1.7183,-1.7388,-1.7989,-1.8593,-1.9251,-2.0162,-2.0748,-2.1352,-2.1943,-2.2124,-2.2344,-2.2669,-2.33,-2.3588,-2.3323,-2.3214,-2.3167,-2.3198,-2.2416,-2.1858,-2.1601,-2.1589,-2.1233,-2.0536,-2.1376,-2.1543,-2.1023,-2.1889,-2.2312,-2.2293,-2.1812,-2.1344,0.0,0.0,0.0,0.0,0.0,0.0,0.0,0.0,0.0,0.0,0.0,-0.5812,0.0,0.0,-0.7861,-0.8315,-0.8754,-0.9026,-0.8953,-0.9362,-0.9362,-0.8289,-0.9071,-0.9741,-0.9911,-1.0381,-1.0954,-1.1533,-1.1545,-1.1768,-1.2305,-1.2305,-1.2305,-1.2305,-1.2305,-1.2305,-1.2305,-1.2305,-1.2305,-1.2305,-1.2813,-1.3025,-1.3025,-1.3025,-1.3237,-1.373,-1.3237,-1.3244,-1.3673,-1.3738,-1.4307,-1.5234,-1.5234,-1.5517,-1.579,-1.4807,-1.445,-1.445,-1.445,-1.3705,-1.2935,-1.3916,-1.3064,-1.1729,-1.235,-1.2138,-1.1689,-1.2235,-1.2389,-1.2573,-1.3364,-1.3606,-1.3897,-1.5061,-1.5641,-1.6203,-1.7346,-1.7774,-1.7909,-1.8031,-1.7694,-1.7543,-1.8066,-1.8325,-1.8858,-2.0128,-2.0698,-2.1197,-2.1786,-2.2051,-2.2281,-2.2473,-2.3063,-2.3392,-2.3212,-2.3519,-2.3561,-2.3219,-2.2887,-2.2547,-2.2214,-2.2287,-2.2197,-2.1858,-2.2382,-2.2499,-2.2158,-2.3024,-2.3456,-2.3456,-2.3851,-2.3544,0.0,0.0,0.0,0.0,0.0,0.0,0.0,0.0,-0.6544,-0.7334,-0.7641,-0.792,-0.857,-0.8815,-0.8985,-0.9346,-0.9384,-0.9472,-0.9723,-1.0417,-1.064,-0.9829,-1.0417,-1.0937,-1.1069,-1.1848,-1.2305,-1.2305,-1.2305,-1.2325,-1.2385,-1.2385,-1.2418,-1.2478,-1.2478,-1.2478,-1.2478,-1.2418,-1.2385,-1.2385,-1.2325,-1.2305,-1.2305,-1.2305,-1.2372,-1.2666,-1.3593,-1.3954,-1.4099,-1.5092,-1.5438,-1.5438,-1.5438,-1.6079,-1.6645,-1.4736,-1.4522,-1.5092,-1.4243,-1.3954,-1.4099,-1.495,-1.3986,-1.2727,-1.3894,-1.3475,-1.2667,-1.3207,-1.3302,-1.3425,-1.4213,-1.4451,-1.4688,-1.5623,-1.6255,-1.6922,-1.7852,-1.8172,-1.843,-1.8884,-1.8399,-1.8023,-1.8292,-1.8413,-1.8817,-1.9864,-2.0516,-2.1023,-2.143,-2.1869,-2.2209,-2.2282,-2.2798,-2.3165,-2.33,-2.3795,-2.3897,-2.3429,-2.3392,-2.3159,-2.2607,-2.2628,-2.2725,-2.2899,-2.2951,-2.3059,-2.3218,-2.3976,-2.4341,-2.436,-2.5005,-2.4868,-0.4441,-0.4759,0.0,-0.6288,-0.6379,-0.6634,0.0,0.0,-0.7682,-0.8153,-0.8387,-0.87,-0.9579,-0.9814,-1.0281,-1.141,-1.1527,-1.1625,-1.1911,-1.2031,-1.2104,-1.1951,-1.2031,-1.2117,-1.215,-1.2224,-1.2305,-1.2305,-1.2305,-1.2418,-1.2761,-1.2775,-1.2826,-1.31,-1.3106,-1.3106,-1.3106,-1.2832,-1.2775,-1.2768,-1.2425,-1.2305,-1.2305,-1.2305,-1.2732,-1.36,-1.4593,-1.5021,-1.5092,-1.607,-1.6428,-1.6428,-1.6428,-1.7001,-1.7647,-1.5728,-1.5092,-1.5163,-1.5092,-1.5021,-1.5021,-1.5163,-1.4996,-1.482,-1.4668,-1.4305,-1.4007,-1.4533,-1.4362,-1.4264,-1.505,-1.5294,-1.5623,-1.7024,-1.7413,-1.7841,-1.9254,-1.9581,-1.947,-1.9071,-1.9381,-1.9502,-1.8901,-1.9304,-1.9569,-1.9116,-1.9814,-2.055,-2.0991,-2.143,-2.1823,-2.2254,-2.2563,-2.2996,-2.3588,-2.3714,-2.3842,-2.4062,-2.4099,-2.4044,-2.3989,-2.4149,-2.4265,-2.4281,-2.4561,-2.4724,-2.4748,-2.5022,-2.5178,-2.5168,-2.5264,-2.5245,-0.632,0.0,0.0,0.0,-0.8602,-0.9038,-0.9682,-0.9701,-0.9759,-1.0301,-1.051,-1.0703,-1.1217,-1.1345,-1.1539,0.0,-1.2124,-1.2164,-1.2285,-1.2305,-1.2238,-1.2071,-1.2198,-1.2305,-1.2305,-1.2305,-1.2305,-1.2305,-1.2458,-1.2619,-1.2815,-1.2919,-1.3073,-1.3206,-1.3213,-1.3213,-1.3213,-1.308,-1.3019,-1.3013,-1.2705,-1.2559,-1.2552,-1.2378,-1.2806,-1.3745,-1.4171,-1.495,-1.6079,-1.6428,-1.6922,-1.7432,-1.7432,-1.7647,-1.7794,-1.5877,-1.5877,-1.6724,-1.6219,-1.6,-1.607,-1.6655,-1.6088,-1.5309,-1.6048,-1.5578,-1.4918,-1.5424,-1.5254,-1.4991,-1.5294,-1.541,-1.5575,-1.6187,-1.6968,-1.7797,-1.8394,-1.9202,-1.9736,-1.9522,-1.9739,-1.992,-1.9597,-1.9754,-1.9785,-1.9512,-1.9963,-2.0483,-2.0926,-2.1337,-2.1849,-2.2456,-2.2815,-2.3189,-2.3671,-2.3876,-2.4054,-2.419,-2.419,-2.419,-2.419,-2.4284,-2.4375,-2.4495,-2.4651,-2.4804,-2.501,-2.5088,-2.5192,-2.5303,-2.5303,-2.5303,-0.7984,0.0,0.0,-0.992,-1.0609,-1.109,-1.1216,-1.1236,-1.1376,-1.1884,-1.1991,-1.2031,-1.2158,-1.2245,0.0,-1.2198,-1.2251,-1.2305,-1.2305,-1.2231,-1.2138,-1.2004,-1.2104,-1.2218,-1.2291,-1.2305,-1.2305,-1.2305,-1.2579,-1.2856,-1.2872,-1.3166,-1.3367,-1.3447,-1.3454,-1.3454,-1.3454,-1.3373,-1.3327,-1.3327,-1.3019,-1.2872,-1.2866,-1.2565,-1.2931,-1.3807,-1.371,-1.4665,-1.621,-1.621,-1.6645,-1.7226,-1.751,-1.7579,-1.7501,-1.6367,-1.6793,-1.7862,-1.7207,-1.6991,-1.707,-1.7794,-1.7079,-1.6157,-1.7092,-1.6598,-1.577,-1.5998,-1.5752,-1.541,-1.541,-1.5526,-1.5748,-1.5968,-1.6968,-1.7961,-1.8167,-1.9044,-1.9798,-1.9798,-2.0023,-2.0218,-2.0248,-2.0158,-2.0114,-2.0113,-2.0137,-2.0364,-2.0926,-2.1477,-2.201,-2.252,-2.2807,-2.3129,-2.3522,-2.3795,-2.3996,-2.419,-2.419,-2.419,-2.419,-2.4247,-2.4339,-2.4495,-2.4543,-2.4712,-2.4937,-2.4986,-2.5057,-2.5214,-2.5274,-2.5303,0.0,0.0,-1.101,-1.0985,-1.1674,-1.224,-1.192,-1.1844,-1.1924,-1.2225,-1.2285,-1.2204,-1.1937,-1.2111,-1.2204,-1.1924,-1.2118,-1.2305,-1.2305,-1.2058,-1.1984,-1.2258,-1.2051,-1.1991,0.0,-1.2305,-1.2305,-1.2305,-1.2579,-1.2879,-1.318,-1.3474,-1.3761,-1.4048,-1.4062,-1.4062,-1.4062,-1.3774,-1.3627,-1.3546,-1.334,-1.32,-1.3186,-1.2872,-1.3334,-1.4134,-1.3814,-1.4314,-1.5234,-1.5234,-1.5234,-1.5376,-1.6289,-1.6636,-1.6775,-1.7579,-1.794,-1.8008,-1.794,-1.794,-1.794,-1.8008,-1.794,-1.7862,-1.751,-1.708,-1.6578,-1.6191,-1.5752,-1.541,-1.541,-1.5921,-1.6652,-1.7357,-1.8112,-1.8874,-1.9579,-1.9747,-1.9798,-1.9798,-2.0346,-2.0793,-2.0767,-2.071,-2.0686,-2.0682,-2.0124,-2.0015,-2.0894,-2.1751,-2.2282,-2.231,-2.2338,-2.2588,-2.3165,-2.3212,-2.3522,-2.417,-2.419,-2.419,-2.419,-2.4393,-2.4495,-2.4495,-2.4685,-2.4804,-2.4804,-2.4943,-2.501,-2.5022,-2.5214,-2.5303,0.0,0.0,-1.11,-1.1223,-1.1696,-1.2089,-1.2136,-1.2158,-1.2131,-1.2037,-1.1857,-1.163,-1.1343,-1.1369,-1.1463,-1.1557,-1.1824,-1.2084,-1.2271,-1.2392,-1.2345,-1.2051,-1.2271,0.0,0.0,0.0,0.0,-1.2305,-1.2772,-1.31,-1.3206,-1.3674,-1.3981,-1.4082,-1.4088,-1.4088,-1.4088,-1.3988,-1.3941,-1.3935,-1.3641,-1.34,-1.32,-1.2886,-1.3083,-1.3487,-1.2961,-1.3433,-1.4494,-1.4336,-1.4593,-1.5305,-1.621,-1.6636,-1.6706,-1.7647,-1.8008,-1.8008,-1.8008,-1.7569,-1.7139,-1.7794,-1.7579,-1.7189,-1.7629,-1.7295,-1.6699,-1.6553,-1.5977,-1.541,-1.541,-1.5921,-1.6539,-1.681,-1.7797,-1.8768,-1.9044,-1.9475,-1.9798,-1.9798,-2.0657,-2.1418,-2.1401,-2.1743,-2.1839,-2.1173,-2.0533,-2.033,-2.0926,-2.1477,-2.1957,-2.2282,-2.2463,-2.2652,-2.2848,-2.3277,-2.3628,-2.3837,-2.4074,-2.419,-2.419,-2.4247,-2.4357,-2.4495,-2.4578,-2.4712,-2.4924,-2.4986,-2.5077,-2.5203,-2.5264,-2.5303,0.0,-1.1197,-1.1777,-1.1733,-1.2244,-1.2635,-1.2352,-1.2225,-1.2064,-1.177,-1.1476,-1.1149,-1.0748,-1.0768,-1.0929,-1.1223,-1.161,-1.2011,-1.2405,-1.2625,-1.2721,-1.2378,-1.2585,0.0,0.0,0.0,0.0,-1.2318,-1.2966,-1.332,-1.322,-1.3768,-1.4088,-1.4088,-1.4088,-1.4088,-1.4088,-1.4088,-1.4088,-1.4082,-1.3895,-1.3707,-1.3514,-1.3206,-1.312,-1.318,-1.2679,-1.2879,-1.3532,-1.3323,-1.3593,-1.4235,-1.5226,-1.579,-1.6219,-1.7139,-1.7716,-1.8008,-1.8008,-1.7579,-1.7207,-1.7794,-1.7569,-1.7248,-1.7994,-1.7645,-1.6958,-1.6937,-1.6317,-1.5664,-1.5798,-1.6368,-1.6978,-1.7191,-1.8232,-1.9097,-1.9097,-1.9475,-1.985,-2.0105,-2.0818,-2.152,-2.196,-2.2396,-2.2365,-2.143,-2.0914,-2.0782,-2.1182,-2.143,-2.1794,-2.2237,-2.2436,-2.2599,-2.2695,-2.3093,-2.3437,-2.3692,-2.3896,-2.4074,-2.4208,-2.4266,-2.441,-2.4591,-2.4607,-2.4737,-2.501,-2.501,-2.5077,-2.5184,-2.5264,-2.5303,-1.129,-1.2436,-1.3197,-1.2545,-1.3347,-1.385,-1.2566,-1.2058,-1.1757,-1.1443,-1.1129,-1.0728,0.0,0.0,-1.0595,-1.0902,-1.145,-1.2058,-1.2735,-1.2835,-1.2879,0.0,0.0,0.0,0.0,0.0,0.0,-1.2392,0.0,-1.3527,-1.3247,-1.3774,-1.4088,-1.4088,-1.4088,-1.4088,-1.4088,-1.4088,-1.4088,-1.4088,-1.4088,-1.4088,-1.4075,-1.3781,-1.35,-1.324,-1.2893,-1.2592,-1.2345,-1.2318,-1.2305,-1.2372,-1.3382,-1.4378,-1.5305,-1.6289,-1.7217,-1.8008,-1.8008,-1.794,-1.794,-1.8008,-1.794,-1.7988,-1.8451,-1.7995,-1.7362,-1.7395,-1.6757,-1.6168,-1.6436,-1.709,-1.7841,-1.8555,-1.9254,-1.9798,-1.9798,-1.985,-2.0055,-2.0696,-2.0845,-2.1272,-2.2558,-2.273,-2.2435,-2.1522,-2.1332,-2.1387,-2.1573,-2.1582,-2.1794,-2.2237,-2.231,-2.2398,-2.2669,-2.2721,-2.2996,-2.3671,-2.3714,-2.3876,-2.419,-2.4375,-2.4575,-2.4775,-2.479,-2.4869,-2.501,-2.501,-2.5022,-2.5022,-2.5214,-2.5303,-1.272,-1.3658,-1.4313,-1.3932,-1.4104,-1.394,-1.238,-1.175,-1.1396,-1.0882,-1.02,-0.9579,-0.9205,0.0,0.0,-1.0254,-1.1015,0.0,-1.2708,-1.2946,0.0,0.0,0.0,-1.336,-1.3227,-1.3407,0.0,0.0,-1.3387,-1.3614,-1.3534,-1.3888,-1.4088,-1.4088,-1.4088,-1.4088,-1.4088,-1.4088,-1.4088,-1.4088,-1.4088,-1.4088,-1.4075,-1.3781,-1.3728,-1.3821,-1.3073,-1.2832,-1.2946,-1.2485,-1.2305,-1.2445,-1.4163,-1.495,-1.5376,-1.701,-1.7794,-1.8008,-1.8008,-1.7579,-1.707,-1.7794,-1.7501,-1.712,-1.7919,-1.7589,-1.6855,-1.6862,-1.6678,-1.6409,-1.6467,-1.7468,-1.8447,-1.8661,-1.9254,-1.9798,-1.9798,-2.0207,-2.0597,-2.0746,-2.1561,-2.2452,-2.3246,-2.3001,-2.2737,-2.284,-2.1988,-2.1387,-2.1573,-2.1582,-2.1794,-2.2237,-2.231,-2.2398,-2.2669,-2.2923,-2.3236,-2.3671,-2.3937,-2.4113,-2.4208,-2.4247,-2.4375,-2.4559,-2.4731,-2.4869,-2.501,-2.5152,-2.5224,-2.5224,-2.5274,-2.5303,-1.3075,-1.419,-1.4829,-1.3903,-1.4013,-1.3955,-1.2114,-1.1243,-1.0681,-1.01,-0.9385,0.0,0.0,0.0,0.0,0.0,0.0,0.0,-1.2681,-1.312,-1.3447,0.0,-1.3741,0.0,-1.3614,-1.3741,-1.3774,0.0,-1.3748,-1.3781,-1.3654,-1.3928,-1.4088,-1.4088,-1.4088,-1.4088,-1.4088,-1.4088,-1.4088,-1.4088,-1.4088,-1.4088,-1.4082,-1.3915,-1.3854,-1.3861,0.0,-1.3542,-1.3057,-1.3154,-1.3072,-1.3025,-1.4099,-1.5092,-1.593,-1.7001,-1.7647,-1.8008,-1.8008,-1.7647,-1.7285,-1.7862,-1.7901,-1.7872,-1.8375,-1.8243,-1.7833,-1.7802,-1.7426,-1.7111,-1.7412,-1.8058,-1.8768,-1.9097,-1.9475,-1.9798,-1.9798,-2.0105,-2.0547,-2.1113,-2.2193,-2.3187,-2.3551,-2.331,-2.3175,-2.3326,-2.2596,-2.2033,-2.2033,-2.1779,-2.1794,-2.2237,-2.231,-2.236,-2.25,-2.2815,-2.3117,-2.3459,-2.3795,-2.4054,-2.419,-2.419,-2.4284,-2.4495,-2.47,-2.4869,-2.501,-2.5203,-2.5303,-2.5303,-2.5303,-2.5303,-1.3148,-1.4381,-1.4961,-1.3481,-1.3748,-1.3896,-1.1778,-1.0661,-0.9833,-0.919,0.0,0.0,-0.7547,0.0,-0.8564,-0.909,0.0,-1.1343,-1.26,-1.3166,-1.3647,-1.3988,-1.4062,-1.4088,-1.4088,-1.4088,-1.4088,-1.4088,-1.4088,-1.3975,-1.3714,-1.3948,-1.4088,-1.4088,-1.4088,-1.4088,-1.4088,-1.4088,-1.4088,-1.4088,-1.4088,-1.4088,-1.4088,-1.4088,-1.4025,-1.3933,0.0,0.0,-1.3321,-1.4126,-1.4294,-1.3882,-1.4027,-1.5084,-1.6636,-1.6706,-1.7285,-1.8008,-1.8008,-1.8008,-1.8008,-1.8008,-1.8596,-1.9299,-1.9177,-1.9257,-1.935,-1.9006,-1.8529,-1.8148,-1.8585,-1.8768,-1.8992,-1.9643,-1.9798,-1.9798,-1.9798,-1.994,-2.0421,-2.1615,-2.2801,-2.3595,-2.3595,-2.3595,-2.3571,-2.3471,-2.3189,-2.293,-2.2753,-2.2123,-2.1853,-2.2254,-2.231,-2.2293,-2.2349,-2.2616,-2.2923,-2.3253,-2.3566,-2.3896,-2.419,-2.419,-2.4284,-2.4461,-2.4685,-2.4855,-2.4974,-2.5192,-2.5303,-2.5303,-2.5303,-2.5303,-1.4222,-1.5078,-1.5457,-1.4643,-1.4433,-1.3836,-1.1587,-1.02,0.0,0.0,0.0,-0.7221,-0.7121,-0.7796,0.0,-0.909,0.0,0.0,0.0,0.0,-1.3106,0.0,0.0,0.0,0.0,0.0,0.0,0.0,0.0,-1.4062,-1.4015,-1.4055,-1.4088,-1.4088,-1.4088,-1.4088,-1.4088,-1.4088,-1.4088,-1.4088,-1.4088,-1.4088,-1.4088,-1.4088,-1.4545,-1.5345,-1.4887,0.0,-1.5559,-1.5211,-1.5007,-1.5021,-1.579,-1.628,-1.6706,-1.7501,-1.7862,-1.8008,-1.8008,-1.8008,-1.8008,-1.8008,-1.8596,-1.9177,-1.8462,-1.8971,-1.9541,-1.8369,-1.8644,-1.9177,-1.8827,-1.915,-1.9643,-1.9747,-1.9798,-1.9798,-1.9798,-2.0607,-2.1615,-2.236,-2.3098,-2.3595,-2.3595,-2.3595,-2.3721,-2.4153,-2.3525,-2.3106,-2.3457,-2.2715,-2.2209,-2.2282,-2.231,-2.2388,-2.2625,-2.2923,-2.3277,-2.3588,-2.3917,-2.4151,-2.4208,-2.419,-2.4209,-2.4266,-2.4607,-2.4818,-2.4828,-2.5149,-2.5303,-2.5303,-2.5303,-2.5303,-1.3915,-1.4816,-1.5256,-1.4231,-1.3931,-1.3308,-1.106,0.0,0.0,0.0,0.0,-0.6573,-0.6573,0.0,0.0,0.0,0.0,0.0,0.0,0.0,0.0,0.0,0.0,0.0,0.0,0.0,0.0,0.0,0.0,-1.4088,-1.4088,-1.4088,-1.4088,-1.4088,-1.4088,-1.4088,-1.4088,-1.4088,-1.4088,-1.4088,-1.4088,-1.4088,-1.4088,-1.4088,-1.4323,-1.4632,-1.5344,0.0,-1.5189,-1.5956,-1.6121,-1.6,-1.6419,-1.6922,-1.7354,-1.7862,-1.8008,-1.8008,-1.8008,-1.8008,-1.8008,-1.8008,-1.8921,-1.9814,-1.8911,-1.9717,-2.0707,-1.9434,-1.9471,-1.9793,-1.9368,-1.9527,-1.9798,-1.9798,-1.9798,-1.9901,-2.0258,-2.1051,-2.1899,-2.2558,-2.3201,-2.3595,-2.3595,-2.3595,-2.3794,-2.4307,-2.3941,-2.359,-2.3703,-2.3223,-2.2733,-2.2344,-2.231,-2.2349,-2.2473,-2.2915,-2.3259,-2.3414,-2.3917,-2.419,-2.419,-2.419,-2.419,-2.419,-2.4495,-2.47,-2.4804,-2.5037,-2.5203,-2.5303,-2.5303,-2.5303,-1.3166,-1.4069,-1.4569,-1.3416,-1.3093,-1.2555,-1.0554,-0.8931,0.0,0.0,0.0,-0.6122,-0.6182,0.0,0.0,0.0,0.0,0.0,0.0,0.0,0.0,0.0,0.0,0.0,0.0,0.0,0.0,0.0,0.0,0.0,-1.4088,-1.4088,-1.4088,-1.4088,-1.4088,-1.4088,-1.4088,-1.4088,-1.425,-1.4412,-1.4412,-1.4412,-1.4405,-1.4343,-1.4186,-1.4028,-1.5764,0.0,0.0,-1.665,-1.7226,-1.6922,-1.6922,-1.7354,-1.8008,-1.8008,-1.8008,-1.8008,-1.8008,-1.8008,-1.8008,-1.8008,-1.9177,-2.0462,-1.9562,-2.0655,-2.1897,-2.0581,-2.0342,-2.0399,-1.993,-1.9798,-1.985,-2.0003,-2.0003,-2.0194,-2.0832,-2.1486,-2.2053,-2.2603,-2.3201,-2.3595,-2.3595,-2.3595,-2.3794,-2.4307,-2.4209,-2.406,-2.3949,-2.3758,-2.3342,-2.2615,-2.2395,-2.231,-2.231,-2.2857,-2.3189,-2.3189,-2.3816,-2.419,-2.419,-2.419,-2.419,-2.419,-2.4393,-2.4591,-2.4804,-2.4924,-2.5099,-2.5303,-2.5303,-2.5303,-1.2405,-1.2903,-1.3331,-1.2943,-1.2197,-1.1364,-1.0321,0.0,0.0,0.0,-0.6159,-0.5832,-0.6142,-0.6633,0.0,0.0,0.0,0.0,0.0,0.0,0.0,0.0,0.0,0.0,0.0,0.0,0.0,0.0,0.0,0.0,-1.4088,-1.4088,-1.4088,-1.4088,-1.4088,-1.4088,-1.4088,-1.4088,-1.4573,-1.5538,-1.5538,-1.5538,-1.553,-1.5316,-1.5167,-1.5188,-1.5559,0.0,0.0,-1.765,-1.7901,-1.7872,-1.7872,-1.794,-1.8008,-1.8008,-1.8008,-1.8008,-1.8008,-1.8008,-1.8008,-1.8008,-1.9177,-2.0462,-1.9562,-2.1026,-2.2588,-2.071,-2.0767,-2.1162,-2.01,-1.9798,-1.9952,-2.0547,-2.0696,-2.0881,-2.1472,-2.2146,-2.2649,-2.2694,-2.3201,-2.3595,-2.3595,-2.3595,-2.3794,-2.4307,-2.4209,-2.4237,-2.4654,-2.4511,-2.4133,-2.3376,-2.2699,-2.231,-2.231,-2.2857,-2.3189,-2.3189,-2.3816,-2.419,-2.419,-2.419,-2.419,-2.419,-2.4393,-2.4591,-2.4804,-2.4924,-2.5099,-2.5303,-2.5303,-2.5303,-1.2158,-1.2612,-1.2859,-1.2559,-1.1817,-1.0889,-0.9833,0.0,0.0,-0.6485,-0.5865,-0.5598,-0.6109,-0.6199,-0.6587,0.0,-0.7776,-0.815,0.0,0.0,0.0,0.0,0.0,0.0,0.0,0.0,0.0,0.0,0.0,0.0,-1.4088,-1.4088,-1.4088,-1.4088,-1.4088,-1.4088,-1.4088,-1.4088,-1.4657,-1.5696,-1.542,-1.5648,-1.6261,-1.5921,-1.5644,-1.5515,-1.6127,0.0,0.0,-1.7646,-1.8008,-1.8008,-1.8008,-1.8008,-1.8008,-1.8008,-1.8008,-1.8008,-1.8008,-1.8327,-1.8787,-1.8787,-1.9944,-2.1239,-2.0333,-2.1479,-2.278,-2.1371,-2.1244,-2.123,-2.01,-1.9798,-1.985,-2.0156,-2.0497,-2.0993,-2.1568,-2.2253,-2.2785,-2.3157,-2.3421,-2.3595,-2.3595,-2.3595,-2.3879,-2.4752,-2.4828,-2.4883,-2.5246,-2.5192,-2.4881,-2.412,-2.3393,-2.2784,-2.2344,-2.2857,-2.3189,-2.3189,-2.3816,-2.419,-2.419,-2.419,-2.419,-2.419,-2.4266,-2.4478,-2.4804,-2.4855,-2.5024,-2.5303,-2.5303,-2.5303,-1.157,-1.2004,-1.2198,-1.2071,-1.1383,-1.0468,0.0,0.0,-0.6813,-0.6122,-0.5514,-0.5268,-0.5789,-0.5747,-0.6018,-0.7174,-0.7235,-0.7542,-0.8651,0.0,0.0,0.0,0.0,0.0,0.0,0.0,0.0,0.0,0.0,0.0,0.0,-1.4088,-1.4088,-1.4088,-1.4088,-1.4088,-1.4088,-1.4088,-1.4657,-1.5696,-1.561,-1.6,-1.6678,-1.6438,-1.608,-1.5618,0.0,0.0,0.0,-1.7579,-1.8008,-1.8008,-1.8008,-1.8008,-1.8008,-1.8008,-1.8134,-1.8395,-1.8395,-1.8977,-1.9683,-1.9683,-2.0719,-2.1815,-2.1164,-2.2002,-2.2912,-2.1794,-2.1242,-2.0803,-2.0012,-1.9798,-1.9901,-2.0283,-2.072,-2.1307,-2.2086,-2.262,-2.3098,-2.3508,-2.3595,-2.3595,-2.3595,-2.3595,-2.3921,-2.4831,-2.5105,-2.5345,-2.5664,-2.5831,-2.5642,-2.4898,-2.4357,-2.3663,-2.2716,-2.2894,-2.3093,-2.3189,-2.3753,-2.4094,-2.4208,-2.419,-2.419,-2.419,-2.419,-2.441,-2.4804,-2.4804,-2.4962,-2.5303,-2.5303,-2.5303,-1.0477,-1.0788,-1.1082,-1.1363,-1.0775,-0.9973,0.0,-0.8041,-0.673,-0.5699,-0.5027,-0.4716,-0.5043,-0.5335,-0.5837,-0.6844,-0.7268,-0.7776,-0.8677,0.0,0.0,0.0,0.0,0.0,0.0,0.0,0.0,0.0,0.0,0.0,0.0,-1.4088,-1.4088,-1.4088,-1.4088,-1.4088,-1.4088,-1.4088,-1.4657,-1.5696,-1.6389,-1.6694,-1.6748,-1.7016,-1.6593,0.0,0.0,0.0,0.0,-1.7579,-1.8008,-1.8008,-1.8008,-1.8008,-1.8008,-1.8008,-1.8529,-1.9299,-1.9299,-1.9879,-2.059,-2.059,-2.1175,-2.1877,-2.1877,-2.2445,-2.2912,-2.1794,-2.0677,-1.9811,-1.9798,-1.9798,-2.0131,-2.1363,-2.1697,-2.2025,-2.3319,-2.3595,-2.3595,-2.3595,-2.3595,-2.3595,-2.3595,-2.3595,-2.3794,-2.4307,-2.4871,-2.5373,-2.5924,-2.6401,-2.6404,-2.5676,-2.5592,-2.4983,-2.3511,-2.2966,-2.2848,-2.3165,-2.3522,-2.3837,-2.419,-2.419,-2.419,-2.419,-2.419,-2.441,-2.4804,-2.4804,-2.4962,-2.5303,-2.5303,-2.5303,-0.9312,-0.9866,-1.0267,-0.9766,-0.9426,-0.9065,-0.8426,-0.7508,-0.6494,-0.5663,-0.5027,-0.471,-0.5043,-0.4973,-0.5431,-0.7085,-0.7235,0.0,0.0,0.0,0.0,0.0,0.0,0.0,0.0,0.0,0.0,0.0,0.0,0.0,0.0,-1.4289,-1.3874,-1.4082,-1.3895,-1.3881,-1.4082,-1.3881,-1.4448,-1.5688,-1.6071,-1.6639,-1.7392,-1.7654,0.0,0.0,0.0,0.0,0.0,-1.7862,-1.8008,-1.8008,-1.8008,-1.8327,-1.8911,-1.8911,-1.9431,-2.0204,-2.0204,-2.0782,-2.1491,-2.1491,-2.2063,-2.2689,-2.2689,-2.2884,-2.2912,-2.1794,-2.0953,-2.03,-1.9911,-2.0144,-2.0597,-2.0979,-2.1738,-2.2483,-2.292,-2.3334,-2.3595,-2.3595,-2.3595,-2.3595,-2.3595,-2.3595,-2.3794,-2.4307,-2.4871,-2.5373,-2.5924,-2.6401,-2.6607,-2.637,-2.5896,-2.522,-2.4222,-2.3755,-2.3641,-2.3912,-2.3786,-2.3837,-2.419,-2.419,-2.419,-2.419,-2.419,-2.441,-2.4804,-2.4804,-2.4962,-2.5303,-2.5303,-2.5303,0.0,-0.8626,-0.8841,-0.8423,-0.8081,-0.7785,-0.7484,-0.6764,-0.599,-0.5236,-0.4717,-0.4389,-0.4431,-0.4592,-0.515,-0.6527,-0.7009,0.0,0.0,0.0,0.0,0.0,0.0,0.0,0.0,0.0,0.0,0.0,0.0,0.0,0.0,-1.45,-1.4268,-1.4777,-1.3966,-1.3567,-1.3754,-1.3574,-1.3885,-1.4777,-1.5474,-1.6254,-1.6924,-1.7675,0.0,0.0,0.0,0.0,0.0,-1.8008,-1.8008,-1.8008,-1.8008,-1.8529,-1.9299,-1.9299,-2.0074,-2.1101,-2.1101,-2.1616,-2.2384,-2.2384,-2.2702,-2.3078,-2.3078,-2.3153,-2.2961,-2.1844,-2.1297,-2.0925,-2.0053,-2.0295,-2.0845,-2.1064,-2.1927,-2.274,-2.2965,-2.3319,-2.3595,-2.3595,-2.3595,-2.3595,-2.3595,-2.3595,-2.3709,-2.4032,-2.4752,-2.5335,-2.5652,-2.628,-2.6691,-2.6691,-2.6285,-2.5828,-2.5355,-2.4586,-2.4296,-2.4723,-2.4528,-2.4595,-2.5087,-2.4814,-2.4649,-2.4649,-2.4355,-2.441,-2.4804,-2.4942,-2.5103,-2.5303,-2.5303,-2.5303,0.0,-0.7101,-0.7008,-0.7217,-0.6758,-0.6302,-0.6446,-0.5943,0.0,-0.4499,-0.4145,-0.3836,-0.3427,-0.4175,-0.5039,-0.5559,0.0,0.0,0.0,0.0,0.0,0.0,0.0,0.0,0.0,0.0,0.0,0.0,0.0,0.0,0.0,-1.4866,-1.5142,-1.6035,-1.4292,-1.3317,-1.3286,-1.3265,-1.3265,-1.3279,-1.4834,-1.5626,-1.5756,-1.7265,0.0,0.0,0.0,0.0,0.0,-1.8008,-1.8008,-1.8008,-1.8008,-1.8529,-1.9299,-1.9365,-2.0462,-2.1877,-2.1939,-2.2445,-2.3078,-2.3078,-2.3078,-2.3078,-2.3078,-2.3264,-2.3218,-2.1868,-2.1729,-2.1625,-2.0207,-2.0396,-2.1077,-2.1663,-2.23,-2.292,-2.3465,-2.3595,-2.3595,-2.3595,-2.3595,-2.3595,-2.3595,-2.3595,-2.3595,-2.3638,-2.4552,-2.5221,-2.5259,-2.6087,-2.6691,-2.6691,-2.6691,-2.6691,-2.6691,-2.5389,-2.4871,-2.5544,-2.5517,-2.5821,-2.6573,-2.5839,-2.5474,-2.5495,-2.4724,-2.4539,-2.4974,-2.5195,-2.5322,-2.538,-2.5322,-2.5322,-0.4675,0.0,-0.5647,-0.5213,-0.5195,-0.527,0.0,-0.4974,-0.452,0.0,0.0,0.0,0.0,0.0,0.0,0.0,0.0,0.0,0.0,0.0,0.0,0.0,0.0,0.0,0.0,0.0,0.0,0.0,0.0,0.0,0.0,-1.5955,-1.5823,-1.687,-1.5495,-1.459,-1.4265,-1.411,-1.4033,-1.4265,-1.5202,-1.5993,-1.6657,-1.6827,0.0,0.0,0.0,0.0,-1.8008,-1.8008,-1.8008,-1.8008,-1.8008,-1.8529,-1.9365,-2.0074,-2.0974,-2.2002,-2.2628,-2.2944,-2.3078,-2.3078,-2.3078,-2.3078,-2.3078,-2.3559,-2.3756,-2.1982,-2.2284,-2.2763,-2.1009,-2.1403,-2.2267,-2.2452,-2.2965,-2.3421,-2.3551,-2.3595,-2.3595,-2.3595,-2.3595,-2.3595,-2.3595,-2.3595,-2.3767,-2.4158,-2.4792,-2.5335,-2.5762,-2.6315,-2.6691,-2.6691,-2.6691,-2.6691,-2.6691,-2.5862,-2.5647,-2.6382,-2.56,-2.5569,-2.6551,-2.6118,-2.5986,-2.6319,-2.5837,-2.5925,-2.6619,-2.5738,-2.563,-2.6274,-2.561,-2.5649,-0.338,-0.4043,-0.4638,-0.4299,-0.4211,-0.4253,-0.4445,0.0,0.0,0.0,0.0,0.0,0.0,0.0,0.0,0.0,0.0,0.0,0.0,0.0,0.0,0.0,0.0,0.0,0.0,0.0,0.0,0.0,0.0,0.0,0.0,-1.6523,-1.6537,-1.7563,-1.6052,-1.5065,-1.486,-1.4754,-1.4754,-1.486,-1.5688,-1.6314,-1.6821,-1.7102,-1.7501,0.0,0.0,0.0,-1.8008,-1.8008,-1.8008,-1.8008,-1.8008,-1.8787,-1.9944,-2.0398,-2.1416,-2.2506,-2.2944,-2.3078,-2.3078,-2.3078,-2.3078,-2.3078,-2.3078,-2.3872,-2.4426,-2.2441,-2.2989,-2.3602,-2.1399,-2.1752,-2.2603,-2.23,-2.295,-2.3595,-2.3595,-2.3595,-2.3595,-2.3595,-2.3595,-2.3595,-2.3595,-2.3595,-2.3794,-2.4307,-2.4871,-2.5373,-2.5924,-2.6401,-2.6691,-2.6691,-2.6691,-2.6691,-2.6691,-2.6336,-2.6436,-2.7194,-2.6504,-2.6568,-2.7669,-2.6957,-2.6571,-2.6591,-2.6488,-2.666,-2.7204,-2.6587,-2.6622,-2.7198,-2.6717,-2.6755,-0.2703,-0.3332,-0.3902,-0.385,-0.36,-0.3468,-0.38,0.0,0.0,0.0,0.0,0.0,0.0,0.0,0.0,0.0,0.0,0.0,0.0,0.0,0.0,0.0,0.0,0.0,0.0,0.0,0.0,0.0,0.0,0.0,0.0,-1.6827,-1.7207,-1.794,-1.6446,-1.5658,-1.5658,-1.5517,-1.5438,-1.5446,-1.621,-1.6706,-1.6853,-1.7501,-1.7862,0.0,0.0,0.0,-1.8008,-1.8008,-1.8008,-1.8008,-1.8008,-1.8977,-2.0398,-2.0526,-2.1604,-2.2944,-2.3078,-2.3078,-2.3078,-2.3078,-2.3078,-2.3138,-2.3258,-2.4266,-2.5039,-2.3219,-2.3752,-2.4244,-2.1716,-2.1988,-2.268,-2.2132,-2.2786,-2.3595,-2.3595,-2.3595,-2.3595,-2.3595,-2.3595,-2.3595,-2.3595,-2.3595,-2.3794,-2.4307,-2.4792,-2.5297,-2.5924,-2.6367,-2.6624,-2.6691,-2.6691,-2.6691,-2.6691,-2.6691,-2.7036,-2.7754,-2.7409,-2.7707,-2.8791,-2.7961,-2.7313,-2.6958,-2.7042,-2.725,-2.7582,-2.7519,-2.7708,-2.8082,-2.7948,-2.7967,-0.2844,-0.3322,-0.3368,-0.3114,-0.3203,-0.3314,-0.3263,0.0,0.0,0.0,0.0,0.0,0.0,0.0,0.0,0.0,0.0,0.0,0.0,0.0,0.0,0.0,0.0,0.0,0.0,0.0,0.0,0.0,0.0,0.0,0.0,-1.7392,-1.7862,-1.8008,-1.7725,-1.7579,-1.7579,-1.6784,-1.6358,-1.6358,-1.6558,-1.7001,-1.7794,-1.7139,-1.7285,-1.8008,0.0,-1.8008,-1.8008,-1.8008,-1.8008,-1.8008,-1.8008,-1.8586,-1.9562,-2.0333,-2.1227,-2.2199,-2.2884,-2.3078,-2.3078,-2.3078,-2.3078,-2.3245,-2.3884,-2.4724,-2.5245,-2.4422,-2.4791,-2.5006,-2.2933,-2.292,-2.3421,-2.3319,-2.345,-2.3595,-2.3595,-2.3595,-2.3595,-2.3595,-2.3595,-2.3595,-2.3595,-2.3595,-2.3794,-2.4307,-2.4471,-2.4855,-2.5888,-2.6068,-2.6262,-2.6657,-2.6691,-2.6691,-2.6691,-2.6691,-2.6906,-2.7348,-2.7019,-2.7178,-2.8037,-2.8499,-2.8691,-2.8627,-2.8151,-2.8372,-2.93,-2.8089,-2.7995,-2.889,-2.8217,-2.8255,-0.1985,-0.2811,-0.3428,-0.3203,-0.3432,-0.3781,-0.4106,0.0,0.0,0.0,0.0,0.0,0.0,0.0,0.0,0.0,0.0,0.0,0.0,0.0,0.0,0.0,0.0,0.0,0.0,0.0,0.0,0.0,0.0,0.0,0.0,0.0,-1.8008,-1.8008,-1.8008,-1.8008,-1.8008,-1.7569,-1.7364,-1.7364,-1.7364,-1.7579,-1.8008,-1.7569,-1.7569,-1.8008,0.0,-1.8008,-1.8008,-1.8008,-1.8269,-1.8721,-1.8721,-1.9497,-2.0782,-2.1667,-2.2187,-2.2628,-2.2944,-2.3078,-2.3078,-2.3078,-2.3365,-2.3826,-2.4176,-2.5063,-2.587,-2.5191,-2.5311,-2.5146,-2.3209,-2.3143,-2.3508,-2.3187,-2.3377,-2.3595,-2.3595,-2.3595,-2.3595,-2.3595,-2.3595,-2.3595,-2.3595,-2.3595,-2.3794,-2.4307,-2.4389,-2.4657,-2.5449,-2.5577,-2.5762,-2.6262,-2.6332,-2.6436,-2.6691,-2.6691,-2.6791,-2.6954,-2.7391,-2.7718,-2.7897,-2.8626,-2.8994,-2.8994,-2.8743,-2.8944,-2.9696,-2.9023,-2.9065,-2.9794,-2.9429,-2.9448,-0.1193,-0.2317,-0.341,-0.3513,0.0,-0.4129,-0.4745,0.0,0.0,0.0,0.0,0.0,0.0,0.0,0.0,0.0,0.0,0.0,0.0,0.0,0.0,0.0,0.0,0.0,0.0,0.0,0.0,0.0,0.0,0.0,0.0,0.0,-1.8008,-1.8008,-1.8008,-1.8008,-1.8008,-1.8008,-1.8008,-1.8008,-1.8008,-1.8008,-1.8008,-1.8008,-1.8008,-1.8008,-1.8008,-1.8008,-1.8008,-1.8202,-1.8721,-1.9299,-1.9497,-2.0526,-2.2013,-2.2823,-2.3078,-2.3078,-2.3078,-2.3078,-2.3138,-2.3305,-2.3826,-2.435,-2.4738,-2.5618,-2.6337,-2.5684,-2.5575,-2.5237,-2.3549,-2.3364,-2.3465,-2.3009,-2.3275,-2.3595,-2.3595,-2.3595,-2.3595,-2.3595,-2.3595,-2.3595,-2.3595,-2.3595,-2.3767,-2.4158,-2.4184,-2.4389,-2.4934,-2.5144,-2.5411,-2.5924,-2.6085,-2.6297,-2.6657,-2.6691,-2.6758,-2.6841,-2.7816,-2.829,-2.802,-2.8651,-2.8994,-2.8994,-2.8994,-2.9206,-2.9644,-2.9644,-2.9864,-3.0311,-3.0311,-3.0343,-0.1074,-0.2031,-0.2937,-0.3683,0.0,0.0,-0.4216,0.0,0.0,0.0,0.0,0.0,0.0,0.0,0.0,0.0,0.0,0.0,0.0,0.0,0.0,0.0,0.0,0.0,0.0,0.0,0.0,0.0,0.0,0.0,0.0,0.0,0.0,-1.8008,-1.8008,-1.8008,-1.8008,-1.8008,-1.8008,-1.8008,-1.8008,-1.8008,-1.8008,-1.8008,-1.8008,-1.8008,-1.8008,-1.8008,-1.8076,-1.8854,-1.9233,-1.9365,-2.0204,-2.1112,-2.2013,-2.2823,-2.3078,-2.3078,-2.3078,-2.3078,-2.3185,-2.3943,-2.4234,-2.4567,-2.596,-2.6404,-2.6356,-2.5779,-2.5597,-2.5403,-2.4641,-2.4029,-2.3595,-2.3551,-2.3551,-2.3595,-2.3595,-2.3595,-2.3595,-2.3595,-2.3595,-2.3595,-2.3595,-2.3595,-2.3595,-2.3638,-2.3681,-2.3837,-2.4389,-2.4894,-2.5411,-2.5924,-2.6401,-2.6657,-2.6691,-2.6691,-2.6873,-2.7224,-2.7974,-2.8394,-2.8368,-2.8773,-2.8994,-2.8994,-2.8994,-2.9156,-2.9414,-2.9414,-2.9644,-3.0028,-3.0028,-3.015,-0.0394,-0.143,-0.2555,-0.3334,0.0,0.0,0.0,0.0,0.0,0.0,0.0,0.0,0.0,0.0,0.0,0.0,0.0,0.0,0.0,0.0,0.0,0.0,0.0,0.0,0.0,0.0,0.0,0.0,0.0,0.0,0.0,0.0,0.0,-1.8008,-1.8008,-1.8008,-1.8008,-1.8008,-1.8008,-1.8008,-1.8008,-1.8008,-1.8008,-1.8008,-1.8269,-1.8787,-1.8269,-1.8586,-1.9628,-1.9365,-1.9944,-2.0974,-2.1803,-2.2372,-2.2689,-2.3005,-2.3078,-2.3185,-2.3649,-2.3826,-2.4002,-2.4738,-2.5287,-2.5713,-2.585,-2.6214,-2.6406,-2.5759,-2.5315,-2.4837,-2.4163,-2.3789,-2.3595,-2.3595,-2.3595,-2.3595,-2.3595,-2.3595,-2.3595,-2.3595,-2.3595,-2.3595,-2.3595,-2.3595,-2.3595,-2.3595,-2.3595,-2.3794,-2.4348,-2.4592,-2.5028,-2.5888,-2.6401,-2.6691,-2.6691,-2.6691,-2.7004,-2.7619,-2.7936,-2.8183,-2.8394,-2.8791,-2.8994,-2.8994,-2.8994,-2.9134,-2.9412,-2.9412,-2.9533,-2.9813,-2.9939,-3.0042,-0.0927,-0.1583,-0.2305,0.0,0.0,0.0,0.0,0.0,0.0,0.0,0.0,0.0,0.0,0.0,0.0,0.0,0.0,0.0,0.0,0.0,0.0,0.0,0.0,0.0,0.0,0.0,0.0,0.0,0.0,0.0,0.0,0.0,0.0,0.0,-1.8008,-1.8008,-1.8008,-1.8008,-1.8008,-1.8008,-1.8008,-1.8008,-1.8008,-1.8008,-1.8462,-1.9299,-1.8654,-1.9233,-2.059,-2.0268,-2.0974,-2.231,-2.2884,-2.3078,-2.3138,-2.3365,-2.3484,-2.3603,-2.4394,-2.4624,-2.4754,-2.5273,-2.5756,-2.613,-2.5683,-2.5855,-2.6138,-2.548,-2.4971,-2.4477,-2.3774,-2.3595,-2.3595,-2.3595,-2.3595,-2.3595,-2.3595,-2.3595,-2.3595,-2.3595,-2.3595,-2.3595,-2.3595,-2.3595,-2.3595,-2.3595,-2.3595,-2.3794,-2.4348,-2.4552,-2.5067,-2.6104,-2.6505,-2.6691,-2.6691,-2.6691,-2.7051,-2.784,-2.7783,-2.7964,-2.8565,-2.8863,-2.8994,-2.8994,-2.8994,-2.9089,-2.9267,-2.9267,-2.9415,-2.9713,-2.9845,-2.9984,-0.2961,-0.2719,0.0,0.0,0.0,0.0,0.0,0.0,0.0,0.0,0.0,0.0,0.0,0.0,0.0,0.0,0.0,0.0,0.0,0.0,0.0,0.0,0.0,0.0,0.0,0.0,0.0,0.0,0.0,0.0,0.0,0.0,0.0,0.0,-1.8008,-1.8008,-1.7998,-1.7998,-1.7998,-1.7998,-1.7998,-1.8008,-1.8008,-1.8008,-1.8462,-1.9299,-1.9299,-1.9814,-2.0643,-2.1553,-2.2372,-2.3078,-2.3078,-2.3078,-2.3198,-2.4002,-2.4292,-2.4408,-2.5119,-2.5384,-2.5397,-2.546,-2.5502,-2.5503,-2.5589,-2.56,-2.5465,-2.4761,-2.4567,-2.4462,-2.3774,-2.3595,-2.3595,-2.3595,-2.3595,-2.3595,-2.3595,-2.3595,-2.3595,-2.3595,-2.3595,-2.3595,-2.3595,-2.3595,-2.3595,-2.3595,-2.3595,-2.3794,-2.4348,-2.4855,-2.5598,-2.6573,-2.6691,-2.6691,-2.6691,-2.6691,-2.7019,-2.784,-2.753,-2.7823,-2.8952,-2.8994,-2.8994,-2.8994,-2.8994,-2.8994,-2.9017,-2.9017,-2.923,-2.9696,-2.9713,-2.9962,-0.3293,0.0,0.0,0.0,0.0,0.0,0.0,0.0,0.0,0.0,0.0,0.0,0.0,0.0,0.0,0.0,0.0,0.0,0.0,0.0,0.0,0.0,0.0,0.0,0.0,0.0,0.0,0.0,0.0,0.0,0.0,0.0,0.0,0.0,-1.7412,-1.7422,-1.7119,-1.7109,-1.7109,-1.7109,-1.7109,-1.7432,-1.8008,-1.8008,-1.8787,-2.0182,-1.9147,-1.9876,-2.1812,-2.2063,-2.2536,-2.3078,-2.3078,-2.3078,-2.3198,-2.4002,-2.4292,-2.4399,-2.521,-2.5479,-2.5483,-2.5531,-2.5583,-2.5464,-2.5014,-2.4881,-2.4777,-2.4103,-2.3909,-2.3864,-2.3655,-2.3595,-2.3595,-2.3595,-2.3595,-2.3595,-2.3595,-2.3595,-2.3595,-2.3595,-2.3595,-2.3595,-2.3595,-2.3595,-2.3709,-2.4116,-2.4158,-2.4511,-2.5411,-2.5944,-2.6385,-2.6657,-2.6691,-2.6691,-2.6691,-2.6691,-2.6939,-2.7457,-2.7619,-2.812,-2.8952,-2.8725,-2.8707,-2.8994,-2.8994,-2.9089,-2.9289,-2.9289,-2.9415,-2.9713,-2.9845,-3.0003,-0.3228,0.0,0.0,0.0,0.0,0.0,0.0,0.0,0.0,0.0,0.0,0.0,0.0,0.0,0.0,0.0,0.0,0.0,0.0,0.0,0.0,0.0,0.0,0.0,0.0,0.0,0.0,0.0,0.0,0.0,0.0,0.0,0.0,0.0,-1.6982,-1.7002,-1.6665,-1.6665,-1.6665,-1.6665,-1.6665,-1.7002,-1.75,-1.782,-1.8689,-1.9986,-1.9806,-2.0582,-2.1983,-2.1983,-2.2184,-2.2485,-2.2485,-2.2589,-2.2911,-2.3705,-2.419,-2.4503,-2.5286,-2.552,-2.5502,-2.528,-2.5211,-2.5091,-2.4418,-2.4223,-2.4133,-2.3714,-2.3595,-2.3595,-2.3595,-2.3595,-2.3595,-2.3595,-2.3595,-2.3595,-2.3595,-2.3595,-2.3595,-2.3595,-2.3595,-2.3595,-2.3595,-2.3595,-2.3724,-2.4032,-2.443,-2.4934,-2.5615,-2.628,-2.6691,-2.6691,-2.6691,-2.6691,-2.6691,-2.6691,-2.6939,-2.75,-2.7636,-2.8047,-2.8952,-2.8773,-2.8749,-2.8994,-2.8994,-2.9134,-2.9412,-2.9412,-2.9533,-2.9813,-2.9954,-3.0061,0.0,0.0,0.0,0.0,0.0,0.0,0.0,0.0,0.0,0.0,0.0,0.0,0.0,0.0,0.0,0.0,0.0,0.0,0.0,0.0,0.0,0.0,0.0,0.0,0.0,0.0,0.0,0.0,0.0,0.0,0.0,0.0,0.0,-1.6548,-1.6587,-1.6587,-1.6548,-1.6548,-1.6548,0.0,-1.6548,-1.6548,-1.6611,-1.74,-1.8309,-1.9222,-2.0763,-2.1418,-2.1418,-2.1418,-2.1443,-2.1493,-2.1493,-2.1856,-2.247,-2.3278,-2.3997,-2.463,-2.5275,-2.5525,-2.542,-2.4747,-2.4492,-2.4373,-2.3789,-2.3595,-2.3595,-2.3595,-2.3595,-2.3595,-2.3595,-2.3595,-2.3595,-2.3595,-2.3595,-2.3595,-2.3595,-2.3595,-2.3595,-2.3595,-2.3595,-2.3595,-2.3595,-2.3595,-2.3595,-2.3681,-2.4592,-2.5259,-2.5259,-2.6123,-2.6691,-2.6691,-2.6691,-2.6691,-2.6691,-2.6691,-2.7019,-2.7811,-2.7547,-2.7833,-2.8905,-2.8952,-2.8952,-2.8994,-2.8994,-2.9156,-2.9414,-2.9414,-2.9644,-3.0047,-3.0047,-3.0182,0.0,0.0,0.0,0.0,0.0,0.0,0.0,0.0,0.0,0.0,0.0,0.0,0.0,0.0,0.0,0.0,0.0,0.0,0.0,0.0,0.0,0.0,0.0,0.0,0.0,0.0,0.0,0.0,0.0,0.0,0.0,0.0,0.0,-1.5703,-1.6035,-1.6045,-1.5693,-1.5693,-1.5693,0.0,-1.5693,-1.5693,-1.5723,-1.7164,-1.8365,-1.9385,-2.0434,-2.084,-2.084,-2.084,-2.1104,-2.1493,-2.1493,-2.1856,-2.247,-2.3278,-2.3997,-2.4509,-2.4756,-2.4837,-2.4717,-2.4044,-2.3819,-2.3789,-2.364,-2.3595,-2.3595,-2.3595,-2.3595,-2.3595,-2.3595,-2.3595,-2.3595,-2.3595,-2.3595,-2.3595,-2.3595,-2.3595,-2.3595,-2.3595,-2.3595,-2.3595,-2.3595,-2.3595,-2.3752,-2.4142,-2.5144,-2.5815,-2.5815,-2.6332,-2.6691,-2.6691,-2.6691,-2.6691,-2.6691,-2.6691,-2.6906,-2.7378,-2.7648,-2.7992,-2.8515,-2.854,-2.8682,-2.8994,-2.8994,-2.9206,-2.9644,-2.9644,-2.9864,-3.0311,-3.0311,-3.0336,0.0,0.0,0.0,0.0,0.0,0.0,0.0,0.0,0.0,0.0,0.0,0.0,0.0,0.0,0.0,0.0,0.0,0.0,0.0,0.0,0.0,0.0,0.0,0.0,0.0,0.0,0.0,0.0,0.0,0.0,0.0,-1.5625,-1.5644,-1.542,-1.5635,-1.5644,-1.541,-1.541,-1.541,-1.541,-1.541,-1.5748,-1.6482,-1.7312,-1.8363,-1.9629,-2.0079,-2.025,-2.025,-2.025,-2.0426,-2.0731,-2.1038,-2.1537,-2.2177,-2.2902,-2.3531,-2.4051,-2.4104,-2.4133,-2.4073,-2.3714,-2.3595,-2.3595,-2.3595,-2.3595,-2.3595,-2.3595,-2.3595,-2.3595,-2.3595,-2.3595,-2.3595,-2.3595,-2.3595,-2.3595,-2.3595,-2.3595,-2.3595,-2.3595,-2.3595,-2.3595,-2.3595,-2.3595,-2.3794,-2.4307,-2.5105,-2.5689,-2.5977,-2.6401,-2.6691,-2.6691,-2.6691,-2.6691,-2.6691,-2.6873,-2.7147,-2.756,-2.7936,-2.829,-2.8658,-2.8682,-2.8791,-2.8994,-2.9134,-2.9355,-2.9696,-2.9796,-3.0037,-3.0398,-3.0398,-3.0398,0.0,0.0,0.0,0.0,0.0,0.0,0.0,0.0,0.0,0.0,0.0,0.0,0.0,0.0,0.0,0.0,0.0,0.0,0.0,0.0,0.0,0.0,0.0,0.0,0.0,0.0,0.0,0.0,0.0,0.0,-1.541,-1.541,-1.541,-1.541,-1.541,-1.541,-1.541,-1.541,-1.541,-1.541,-1.5526,-1.6301,-1.7578,-1.7731,-1.8555,-1.9798,-1.9798,-1.9798,-1.9798,-1.9798,-1.9798,-1.985,-2.056,-2.1161,-2.1805,-2.2452,-2.3054,-2.3595,-2.3595,-2.3595,-2.3595,-2.3595,-2.3595,-2.3595,-2.3595,-2.3595,-2.3595,-2.3595,-2.3595,-2.3595,-2.3595,-2.3595,-2.3595,-2.3595,-2.3595,-2.3595,-2.3595,-2.3595,-2.3595,-2.3595,-2.3595,-2.3595,-2.3595,-2.3681,-2.3879,-2.4348,-2.495,-2.5503,-2.5924,-2.6401,-2.6691,-2.6691,-2.6691,-2.6725,-2.6808,-2.7115,-2.75,-2.7964,-2.8264,-2.8565,-2.8975,-2.8994,-2.9017,-2.9067,-2.9289,-2.9494,-2.9696,-2.9908,-3.0136,-3.0398,-3.0398,-3.0398,0.0,0.0,0.0,0.0,0.0,0.0,0.0,0.0,0.0,0.0,0.0,0.0,0.0,0.0,0.0,0.0,0.0,0.0,0.0,0.0,0.0,0.0,0.0,0.0,0.0,0.0,0.0,0.0,0.0,0.0,-1.541,-1.541,-1.541,-1.541,-1.541,-1.541,-1.541,-1.541,-1.541,-1.541,-1.6036,-1.681,-1.7633,-1.8286,-1.8992,-1.9798,-1.9798,-1.9798,-1.9798,-1.9798,-1.9798,-1.985,-2.056,-2.1161,-2.1805,-2.2452,-2.3054,-2.3595,-2.3595,-2.3595,-2.3595,-2.3595,-2.3595,-2.3595,-2.3595,-2.3595,-2.3595,-2.3595,-2.3595,-2.3595,-2.3595,-2.3595,-2.3595,-2.3595,-2.3595,-2.3595,-2.3595,-2.3595,-2.3595,-2.3595,-2.3595,-2.3595,-2.3595,-2.3991,-2.4307,-2.4389,-2.5259,-2.5924,-2.5997,-2.6401,-2.6691,-2.6691,-2.6691,-2.6841,-2.7178,-2.7272,-2.7601,-2.829,-2.8394,-2.8565,-2.8975,-2.8994,-2.9112,-2.9351,-2.9392,-2.9494,-2.9696,-2.9908,-3.0136,-3.0398,-3.0398,-3.0398,0.0,0.0,0.0,0.0,0.0,0.0,0.0,0.0,0.0,0.0,0.0,0.0,0.0,0.0,0.0,0.0,0.0,0.0,0.0,0.0,0.0,0.0,0.0,0.0,0.0,0.0,0.0,0.0,0.0,-1.541,-1.541,-1.541,-1.541,-1.541,-1.541,-1.541,-1.541,-1.541,-1.541,-1.541,-1.6151,-1.6866,-1.7633,-1.8382,-1.9097,-1.9798,-1.9798,-1.9798,-1.9798,-1.9798,-1.9798,-1.9901,-2.0904,-2.1472,-2.1838,-2.2846,-2.3377,-2.3595,-2.3595,-2.3595,-2.3595,-2.3595,-2.3595,-2.3595,-2.3595,-2.3595,-2.3595,-2.3595,-2.3595,-2.3595,-2.3595,-2.3595,-2.3595,-2.3595,-2.3595,-2.3595,-2.3595,-2.3595,-2.3595,-2.3595,-2.3595,-2.3595,-2.3595,-2.3794,-2.4032,-2.4348,-2.5067,-2.5652,-2.5961,-2.6401,-2.6691,-2.6691,-2.6691,-2.6791,-2.6971,-2.7396,-2.7765,-2.8102,-2.8489,-2.8815,-2.8994,-2.9156,-2.9267,-2.9392,-2.9513,-2.9661,-2.9877,-3.0109,-3.0279,-3.0398,-3.0398,-3.0398,0.0,0.0,0.0,0.0,0.0,0.0,0.0,0.0,0.0,0.0,0.0,0.0,0.0,0.0,0.0,0.0,0.0,0.0,0.0,0.0,0.0,0.0,0.0,0.0,0.0,0.0,0.0,0.0,0.0,-1.541,-1.541,-1.541,-1.541,-1.541,-1.541,-1.541,-1.541,-1.541,-1.541,-1.541,-1.6312,-1.709,-1.7633,-1.8555,-1.9254,-1.9798,-1.9798,-1.9798,-1.9798,-1.9798,-1.9798,-1.9901,-2.1051,-2.1568,-2.1852,-2.295,-2.3465,-2.3595,-2.3595,-2.3595,-2.3638,-2.3752,-2.3794,-2.3794,-2.3794,-2.3794,-2.3752,-2.3638,-2.3595,-2.3595,-2.3595,-2.3595,-2.3595,-2.3595,-2.3595,-2.3595,-2.3595,-2.3595,-2.3595,-2.3595,-2.3595,-2.3595,-2.3595,-2.3709,-2.3948,-2.4348,-2.4973,-2.554,-2.5961,-2.6401,-2.6691,-2.6691,-2.6691,-2.6758,-2.6841,-2.7517,-2.7954,-2.802,-2.8651,-2.8994,-2.8994,-2.9246,-2.9414,-2.9493,-2.9678,-2.9845,-2.9999,-3.0267,-3.0398,-3.0398,-3.0398,-3.0398,0.0,0.0,0.0,0.0,0.0,0.0,0.0,0.0,0.0,0.0,0.0,0.0,0.0,0.0,0.0,0.0,0.0,0.0,0.0,0.0,0.0,0.0,0.0,0.0,0.0,0.0,0.0,0.0,0.0,-1.541,-1.541,-1.541,-1.541,-1.541,-1.541,-1.541,-1.541,-1.541,-1.541,-1.541,-1.6856,-1.7578,-1.7633,-1.9097,-1.9747,-1.9798,-1.9798,-1.9798,-1.9798,-1.9798,-1.9798,-1.985,-2.0547,-2.121,-2.1805,-2.2498,-2.3113,-2.3595,-2.3595,-2.3595,-2.3666,-2.4184,-2.4348,-2.4348,-2.4348,-2.4348,-2.4266,-2.3752,-2.3595,-2.3595,-2.3595,-2.3595,-2.3595,-2.3595,-2.3595,-2.3595,-2.3595,-2.3595,-2.3595,-2.3595,-2.3595,-2.3595,-2.3595,-2.4032,-2.4389,-2.4389,-2.5297,-2.5961,-2.6013,-2.6401,-2.6691,-2.6691,-2.6691,-2.6841,-2.7241,-2.7666,-2.802,-2.835,-2.8773,-2.8994,-2.8994,-2.9246,-2.9474,-2.9678,-2.9877,-2.9999,-2.9999,-3.0267,-3.0398,-3.0398,-3.0398,-3.0398,0.0,0.0,0.0,0.0,0.0,0.0,0.0,0.0,0.0,0.0,0.0,0.0,0.0,0.0,0.0,0.0,0.0,0.0,0.0,0.0,0.0,0.0,0.0,0.0,0.0,0.0,0.0,0.0,0.0,0.0,-1.459,-1.459,-1.4717,-1.5,-1.501,-1.5137,-1.541,-1.5864,-1.6093,-1.6151,-1.7622,-1.8286,-1.8328,-1.9359,-1.9798,-1.9798,-1.9798,-1.9798,-1.9798,-1.9798,-1.9798,-1.9901,-2.0953,-2.152,-2.1838,-2.2905,-2.3421,-2.3595,-2.3595,-2.3595,-2.3681,-2.4241,-2.4389,-2.4389,-2.4389,-2.4389,-2.4266,-2.3752,-2.3595,-2.3595,-2.3595,-2.3595,-2.3595,-2.3595,-2.3595,-2.3595,-2.3595,-2.3595,-2.3595,-2.3595,-2.3595,-2.3595,-2.3595,-2.3752,-2.3991,-2.4348,-2.5028,-2.5615,-2.5977,-2.6401,-2.6691,-2.6691,-2.6691,-2.6758,-2.6906,-2.75,-2.7954,-2.8075,-2.8832,-2.9246,-2.9246,-2.9588,-2.9813,-2.9893,-3.0122,-3.0254,-3.0254,-3.0355,-3.0398,-3.0398,-3.0398,-3.0398,0.0,0.0,0.0,0.0,0.0,0.0,0.0,0.0,0.0,0.0,0.0,0.0,0.0,0.0,0.0,0.0,0.0,0.0,0.0,0.0,0.0,0.0,0.0,0.0,0.0,0.0,0.0,0.0,0.0,0.0,-1.4077,-1.4077,-1.4268,-1.4561,-1.457,-1.4697,-1.498,-1.5628,-1.6038,-1.6308,-1.7445,-1.8232,-1.8715,-1.9202,-1.9579,-1.9798,-1.9798,-1.9798,-1.9798,-1.9798,-1.9798,-1.9901,-2.0953,-2.152,-2.1838,-2.2891,-2.3421,-2.3595,-2.3595,-2.3595,-2.3724,-2.443,-2.4672,-2.4672,-2.4672,-2.4672,-2.4511,-2.3794,-2.3595,-2.3595,-2.3595,-2.3709,-2.3879,-2.3879,-2.3879,-2.3837,-2.3638,-2.3595,-2.3595,-2.3595,-2.3595,-2.3595,-2.3595,-2.3752,-2.3991,-2.4348,-2.5012,-2.5615,-2.5961,-2.6401,-2.6691,-2.6691,-2.6808,-2.6906,-2.6906,-2.7601,-2.8075,-2.8075,-2.8906,-2.9412,-2.9412,-2.978,-2.9999,-2.9999,-3.0267,-3.0398,-3.0398,-3.0398,-3.0398,-3.041,-3.0417,-3.0451,0.0,0.0,0.0,0.0,0.0,0.0,0.0,0.0,0.0,0.0,0.0,0.0,0.0,0.0,0.0,0.0,0.0,0.0,0.0,0.0,0.0,0.0,0.0,0.0,0.0,0.0,0.0,0.0,0.0,-1.4048,-1.4048,-1.4058,-1.4058,-1.4058,-1.4077,-1.4077,-1.4077,-1.4551,-1.518,-1.5869,-1.6276,-1.7269,-1.8667,-1.8667,-1.9061,-1.9773,-1.9773,-1.9786,-1.9798,-1.9798,-1.9798,-1.985,-2.0547,-2.121,-2.1791,-2.2452,-2.3113,-2.3595,-2.3595,-2.3595,-2.3794,-2.4871,-2.5221,-2.5221,-2.5221,-2.5221,-2.4973,-2.3921,-2.3638,-2.3638,-2.3638,-2.4032,-2.443,-2.4389,-2.4389,-2.4266,-2.3724,-2.3595,-2.3638,-2.3595,-2.3595,-2.3638,-2.3638,-2.4074,-2.443,-2.443,-2.5335,-2.6013,-2.6013,-2.6401,-2.6691,-2.6691,-2.7051,-2.7303,-2.7303,-2.7974,-2.8402,-2.8402,-2.9038,-2.9412,-2.9433,-2.9796,-3.0013,-3.0013,-3.0267,-3.041,-3.039,-3.041,-3.041,-3.039,-3.0463,-3.0545,-0.1833,0.0,0.0,0.0,0.0,0.0,0.0,0.0,0.0,0.0,0.0,0.0,0.0,0.0,0.0,0.0,0.0,0.0,0.0,0.0,0.0,0.0,0.0,0.0,0.0,0.0,0.0,0.0,-1.3232,-1.3232,-1.3232,-1.3516,-1.3682,-1.3682,-1.3975,-1.4077,-1.4077,-1.4763,-1.5174,-1.5374,-1.611,-1.6849,-1.7709,-1.7709,-1.8238,-1.9246,-1.9246,-1.9459,-1.9798,-1.9798,-1.9798,-1.9901,-2.1002,-2.1568,-2.1838,-2.2935,-2.3465,-2.3595,-2.3595,-2.3837,-2.4266,-2.4989,-2.5449,-2.5762,-2.5762,-2.5503,-2.5067,-2.4389,-2.4184,-2.4266,-2.4672,-2.4871,-2.4855,-2.4511,-2.4389,-2.4266,-2.3724,-2.3906,-2.4074,-2.3681,-2.3921,-2.4184,-2.4184,-2.4617,-2.5105,-2.5503,-2.5815,-2.612,-2.647,-2.6624,-2.6691,-2.6691,-2.7051,-2.7303,-2.7303,-2.7974,-2.8485,-2.8693,-2.9262,-2.9678,-2.9829,-3.0142,-3.0299,-3.0299,-3.0367,-3.0417,-3.0463,-3.0417,-3.0428,-3.0472,-3.0545,-3.0617,0.0,0.0,0.0,0.0,0.0,0.0,0.0,0.0,0.0,0.0,0.0,0.0,0.0,0.0,0.0,0.0,0.0,0.0,0.0,0.0,0.0,0.0,0.0,0.0,0.0,0.0,0.0,-1.2881,-1.2881,-1.2881,-1.2881,-1.3115,-1.3242,-1.3242,-1.3486,-1.3613,-1.3613,-1.4174,-1.4656,-1.4951,-1.5265,-1.5974,-1.6936,-1.6886,-1.7347,-1.8326,-1.8772,-1.9196,-1.9497,-1.971,-1.9952,-2.0295,-2.1328,-2.1852,-2.2239,-2.3216,-2.3767,-2.3906,-2.3906,-2.4266,-2.4816,-2.5373,-2.5742,-2.5977,-2.5726,-2.5449,-2.5105,-2.4552,-2.4552,-2.4871,-2.5373,-2.5373,-2.5144,-2.4831,-2.4552,-2.4307,-2.3991,-2.4184,-2.4307,-2.3991,-2.4348,-2.4736,-2.4736,-2.5182,-2.5652,-2.5961,-2.6156,-2.6401,-2.6657,-2.6691,-2.6741,-2.6939,-2.7303,-2.7619,-2.7747,-2.841,-2.8888,-2.9049,-2.9532,-2.9877,-2.9999,-3.0254,-3.0398,-3.0398,-3.0398,-3.0419,-3.0498,-3.0462,-3.0481,-3.0587,-3.0614,-3.0671,0.0,0.0,0.0,0.0,0.0,0.0,0.0,-0.4132,0.0,0.0,0.0,0.0,0.0,0.0,0.0,0.0,0.0,0.0,0.0,0.0,0.0,0.0,0.0,0.0,0.0,-1.2881,-1.2881,-1.2881,-1.2881,-1.2881,-1.2881,-1.2881,-1.2881,-1.2881,-1.2881,-1.2881,-1.2881,-1.3252,-1.3771,-1.4387,-1.411,-1.4707,-1.6081,-1.597,-1.639,-1.7267,-1.8265,-1.8771,-1.897,-1.9434,-2.0092,-2.0845,-2.1472,-2.21,-2.2785,-2.3377,-2.3921,-2.4307,-2.4389,-2.4697,-2.5221,-2.5815,-2.6013,-2.5924,-2.5411,-2.5297,-2.5182,-2.4697,-2.4855,-2.5335,-2.5924,-2.5652,-2.5221,-2.5259,-2.4855,-2.4511,-2.4511,-2.4552,-2.4592,-2.4592,-2.495,-2.5297,-2.5297,-2.5726,-2.6085,-2.6085,-2.6436,-2.6691,-2.6691,-2.6758,-2.6906,-2.7272,-2.7678,-2.8102,-2.8428,-2.9038,-2.9414,-2.9474,-2.9796,-3.0013,-3.0028,-3.0267,-3.0398,-3.0398,-3.0317,-3.0307,-3.0377,-3.0482,-3.0574,-3.0682,-3.0704,-3.0703,-0.2666,-0.2768,-0.2876,0.0,0.0,0.0,0.0,-0.3141,0.0,0.0,0.0,0.0,0.0,0.0,0.0,0.0,0.0,0.0,0.0,0.0,0.0,0.0,0.0,0.0,0.0,-1.2881,-1.2881,-1.2881,-1.2881,-1.2881,-1.2881,-1.2881,-1.2881,-1.2881,-1.2881,-1.2881,-1.2881,-1.2959,-1.3096,-1.3233,-1.3185,-1.3549,-1.4328,-1.4281,-1.5096,-1.6574,-1.6822,-1.748,-1.8367,-1.848,-1.9413,-2.0845,-2.1472,-2.21,-2.2785,-2.3377,-2.3681,-2.3837,-2.4225,-2.4471,-2.4712,-2.5689,-2.6013,-2.5977,-2.5888,-2.5852,-2.5815,-2.5726,-2.5449,-2.5411,-2.6315,-2.5908,-2.5297,-2.5726,-2.5411,-2.5051,-2.5051,-2.5373,-2.5689,-2.5689,-2.5762,-2.5852,-2.5852,-2.6245,-2.6539,-2.6539,-2.6657,-2.6691,-2.6691,-2.6987,-2.7192,-2.7303,-2.789,-2.841,-2.8717,-2.9129,-2.9551,-2.9861,-2.9954,-3.0089,-3.0311,-3.0367,-3.0398,-3.0398,-2.9812,-2.9576,-2.971,-3.0353,-3.0657,-3.0624,-3.066,-3.0671,0.0,0.0,-0.3086,-0.2973,0.0,0.0,0.0,0.0,0.0,0.0,0.0,0.0,0.0,0.0,0.0,0.0,0.0,0.0,0.0,0.0,0.0,0.0,0.0,0.0,0.0,-1.2754,-1.2881,-1.2881,-1.2881,-1.2881,-1.2881,-1.2881,-1.2881,-1.2881,-1.2881,-1.2881,-1.2881,-1.2881,-1.2881,-1.2881,-1.2881,-1.3065,-1.3372,-1.3637,-1.4449,-1.558,-1.6161,-1.6912,-1.7815,-1.8091,-1.8874,-2.0006,-2.0584,-2.1231,-2.1888,-2.2842,-2.3284,-2.359,-2.4199,-2.4592,-2.491,-2.5411,-2.5615,-2.5615,-2.5615,-2.5779,-2.6013,-2.6013,-2.5815,-2.5726,-2.621,-2.5799,-2.5259,-2.554,-2.5411,-2.5259,-2.554,-2.5815,-2.6085,-2.6297,-2.6367,-2.6367,-2.6367,-2.6539,-2.6691,-2.6691,-2.6691,-2.6791,-2.6954,-2.7178,-2.7439,-2.7805,-2.8192,-2.8547,-2.886,-2.9297,-2.9644,-2.9845,-2.966,-2.9615,-2.9756,-2.9371,-2.9173,-2.9206,-2.8916,-2.8774,-2.8856,-2.9253,-2.9433,-2.9408,-2.9403,-2.9581,0.0,0.0,0.0,0.0,0.0,-0.3057,0.0,0.0,0.0,-0.4893,0.0,0.0,0.0,0.0,0.0,0.0,0.0,0.0,0.0,0.0,0.0,0.0,0.0,0.0,0.0,-1.2227,-1.252,-1.2852,-1.2646,-1.2617,-1.2871,-1.2881,-1.2881,-1.2881,-1.2881,-1.2881,-1.2881,-1.2881,-1.2881,-1.2881,-1.2881,-1.2881,-1.2929,-1.3505,-1.4143,-1.4766,-1.581,-1.6608,-1.725,-1.7689,-1.8162,-1.8679,-1.9469,-2.0231,-2.1019,-2.1975,-2.2647,-2.3156,-2.3816,-2.4241,-2.4585,-2.4888,-2.5109,-2.5259,-2.5449,-2.5652,-2.5888,-2.5961,-2.5924,-2.5888,-2.5961,-2.5615,-2.5259,-2.5433,-2.5411,-2.5503,-2.6033,-2.612,-2.6262,-2.6624,-2.6691,-2.6691,-2.6691,-2.6691,-2.6725,-2.6808,-2.6825,-2.6971,-2.7348,-2.747,-2.7747,-2.8342,-2.8471,-2.8688,-2.9097,-2.9326,-2.9485,-2.9585,-2.913,-2.8871,-2.8871,-2.8268,-2.7961,-2.8046,-2.7967,-2.7932,-2.7956,-2.7764,-2.7833,-2.8187,-2.8101,-2.8392,0.0,0.0,0.0,0.0,-0.3567,0.0,0.0,0.0,-0.3411,-0.3894,0.0,0.0,0.0,0.0,0.0,0.0,0.0,0.0,0.0,0.0,0.0,0.0,0.0,0.0,0.0,0.0,-1.1221,-1.2764,-1.1797,-1.165,-1.2822,-1.2881,-1.2881,-1.2881,-1.2881,-1.2881,-1.2881,-1.2881,-1.2881,-1.2881,-1.2881,-1.2881,-1.2929,-1.3505,-1.4143,-1.4755,-1.5379,-1.6049,-1.6622,-1.6685,-1.6741,-1.6959,-1.8543,-1.9871,-2.092,-2.1034,-2.1447,-2.1943,-2.2463,-2.2394,-2.2337,-2.384,-2.4708,-2.5373,-2.628,-2.5928,-2.5373,-2.5888,-2.5652,-2.5411,-2.5888,-2.5615,-2.5395,-2.6315,-2.621,-2.6033,-2.6505,-2.6624,-2.6624,-2.6691,-2.6691,-2.6691,-2.6691,-2.6691,-2.6808,-2.7178,-2.7241,-2.7396,-2.7783,-2.8084,-2.8298,-2.8394,-2.8725,-2.9119,-2.9588,-2.8964,-2.8726,-2.9147,-2.8456,-2.8044,-2.8044,-2.801,-2.8041,-2.8177,-2.7372,-2.6992,-2.7058,-2.6145,-2.6533,-2.8106,-2.8035,-2.8025,0.0,0.0,0.0,0.0,0.0,0.0,0.0,0.0,-0.3535,0.0,0.0,0.0,0.0,0.0,0.0,0.0,0.0,0.0,0.0,0.0,0.0,0.0,0.0,0.0,0.0,0.0,0.0,0.0,0.0,-1.1006,-1.2106,-1.2363,-1.2617,-1.2871,-1.2881,-1.2881,-1.2881,-1.2881,-1.2881,-1.2881,-1.2881,-1.2881,-1.2929,-1.3152,-1.3789,-1.4698,-1.4971,-1.5599,-1.6522,-1.6522,-1.6522,-1.6559,-1.7319,-1.8294,-1.9369,-2.005,-2.0665,-2.121,-2.1803,-2.1862,-2.1843,-2.2792,-2.3962,-2.5053,-2.5458,-2.5826,-2.6123,-2.6332,-2.6068,-2.5726,-2.5924,-2.5852,-2.5762,-2.6175,-2.6367,-2.647,-2.6657,-2.6691,-2.6791,-2.6987,-2.7051,-2.7115,-2.7365,-2.721,-2.7178,-2.7589,-2.7648,-2.7794,-2.8156,-2.8316,-2.8471,-2.8707,-2.8466,-2.8418,-2.8746,-2.812,-2.7839,-2.816,-2.7565,-2.6977,-2.6474,-2.6547,-2.6626,-2.6634,-2.6288,-2.6095,-2.6092,-2.5609,-2.5783,-2.6534,-2.645,-2.6699,-0.4172,0.0,0.0,0.0,0.0,0.0,0.0,0.0,0.0,0.0,0.0,0.0,0.0,0.0,0.0,0.0,0.0,0.0,0.0,0.0,0.0,0.0,0.0,0.0,0.0,0.0,0.0,0.0,0.0,0.0,-1.1538,-1.1865,-1.2305,-1.2861,-1.2881,-1.2881,-1.2881,-1.2881,-1.2881,-1.2881,-1.2881,-1.2881,-1.2929,-1.3065,-1.3695,-1.4698,-1.4698,-1.5389,-1.6479,-1.6337,-1.6337,-1.6522,-1.6522,-1.7146,-1.8201,-1.9058,-1.973,-2.0294,-2.0938,-2.1261,-2.1527,-2.2075,-2.3211,-2.4473,-2.4736,-2.5386,-2.6106,-2.6245,-2.6052,-2.5799,-2.5961,-2.6085,-2.6191,-2.6191,-2.6436,-2.6691,-2.6691,-2.6691,-2.6808,-2.721,-2.7303,-2.747,-2.7936,-2.7707,-2.7589,-2.7964,-2.802,-2.8156,-2.8515,-2.8565,-2.8682,-2.8952,-2.8484,-2.8117,-2.8107,-2.7544,-2.7108,-2.6906,-2.6545,-2.6072,-2.546,-2.5543,-2.5595,-2.5566,-2.5568,-2.5551,-2.5493,-2.5408,-2.5368,-2.5368,-2.5312,-2.563,0.0,0.0,0.0,-0.3731,0.0,0.0,0.0,0.0,-0.4427,0.0,0.0,0.0,0.0,0.0,0.0,0.0,0.0,0.0,0.0,0.0,0.0,0.0,0.0,0.0,0.0,0.0,0.0,0.0,0.0,0.0,-1.1469,-1.1616,-1.2028,-1.2852,-1.2881,-1.2881,-1.2881,-1.2881,-1.2881,-1.2881,-1.2881,-1.2881,-1.2929,-1.3505,-1.4097,-1.4698,-1.4698,-1.5389,-1.6466,-1.5864,-1.5952,-1.6522,-1.6522,-1.7146,-1.8106,-1.8159,-1.8486,-1.9049,-1.9589,-2.0183,-2.0873,-2.179,-2.2706,-2.3622,-2.4509,-2.4644,-2.4592,-2.5089,-2.5259,-2.5335,-2.5852,-2.6332,-2.6691,-2.6691,-2.6691,-2.6691,-2.6691,-2.6691,-2.6808,-2.721,-2.7303,-2.7512,-2.8246,-2.8102,-2.801,-2.8324,-2.8376,-2.854,-2.8929,-2.8994,-2.8994,-2.8994,-2.8975,-2.8725,-2.8164,-2.7545,-2.6683,-2.5456,-2.5421,-2.5447,-2.5503,-2.5561,-2.5634,-2.5684,-2.5564,-2.5493,-2.5489,-2.5371,-2.5293,-2.5293,-2.5313,-2.5303,0.0,0.0,-0.4422,-0.3968,0.0,0.0,0.0,0.0,0.0,0.0,0.0,0.0,0.0,0.0,0.0,-0.5631,0.0,0.0,0.0,0.0,0.0,0.0,0.0,0.0,0.0,0.0,0.0,0.0,0.0,0.0,0.0,-1.0441,-1.1322,-1.1874,-1.257,-1.2881,-1.2881,-1.2881,-1.2881,-1.2881,-1.2881,-1.2881,-1.2929,-1.3104,-1.3515,-1.4143,-1.4525,-1.5152,-1.5908,-1.6107,-1.6337,-1.6522,-1.6522,-1.671,-1.7105,-1.7827,-1.865,-1.9442,-1.9639,-2.0025,-2.0553,-2.1323,-2.2319,-2.3353,-2.4108,-2.4623,-2.5028,-2.5577,-2.5726,-2.5835,-2.6332,-2.659,-2.6691,-2.6691,-2.6691,-2.6691,-2.6691,-2.6906,-2.721,-2.7619,-2.788,-2.8192,-2.8725,-2.87,-2.8676,-2.8773,-2.8815,-2.8839,-2.8994,-2.8994,-2.8994,-2.8994,-2.8062,-2.7442,-2.749,-2.6536,-2.5761,-2.5341,-2.5394,-2.5488,-2.5489,-2.556,-2.5595,-2.5564,-2.5473,-2.5408,-2.5371,-2.5312,-2.5303,-2.5303,-2.5303,-2.5303,-0.4519,-0.4519,0.0,-0.4394,-0.4252,0.0,-0.412,0.0,0.0,0.0,0.0,0.0,0.0,0.0,0.0,-0.5778,-0.5186,0.0,0.0,0.0,0.0,0.0,0.0,0.0,0.0,0.0,-0.6124,-0.7023,0.0,0.0,0.0,0.0,-1.0948,-1.1659,-1.2493,-1.2881,-1.2881,-1.2881,-1.2881,-1.2881,-1.2881,-1.2881,-1.2881,-1.2881,-1.3238,-1.3815,-1.3967,-1.4652,-1.5632,-1.5788,-1.6107,-1.6522,-1.6522,-1.6637,-1.6879,-1.7787,-1.8779,-1.969,-1.969,-1.9874,-2.02,-2.0756,-2.1688,-2.2707,-2.328,-2.4013,-2.4736,-2.5297,-2.5577,-2.5799,-2.6087,-2.6419,-2.6657,-2.647,-2.659,-2.6758,-2.6873,-2.7115,-2.7439,-2.7992,-2.8264,-2.854,-2.8929,-2.8994,-2.8994,-2.8994,-2.8994,-2.8994,-2.8994,-2.8737,-2.8576,-2.8576,-2.7708,-2.7176,-2.7293,-2.6003,-2.5225,-2.533,-2.5441,-2.5503,-2.552,-2.5605,-2.5603,-2.5543,-2.5463,-2.5394,-2.5339,-2.5313,-2.5303,-2.5303,-2.5303,-2.5303]},{"header":{"parameterUnit":"m.s-1","parameterCategory":1,"la1":30.6,"la2":29.2853,"lo1":-89.7004,"lo2":-87.6739,"dy":0.0162,"dx":0.0183,"nx":112,"ny":82,"refTime":"2024-08-02T06:00:00:Z","depth":0,"parameterNumber":3,"parameterNumberName":"V-component_of_WINDS"},"data":[0.0,0.0,0.0,0.0,0.0,0.0,0.0,0.0,0.0,0.0,0.0,0.0,0.0,0.0,0.0,0.0,0.0,0.0,0.0,0.0,0.0,0.0,0.0,0.0,0.0,0.0,0.0,0.0,0.0,0.0,0.0,0.0,0.0,0.0,0.0,0.0,0.0,0.0,0.0,0.0,0.0,0.0,0.0,0.0,0.0,0.0,0.0,0.0,0.0,0.0,0.0,0.0,0.0,0.0,0.0,0.0,0.0,0.0,0.0,0.0,0.0,0.0,0.0,0.0,0.0,0.0,0.0,0.0,0.0,0.0,0.0,0.0,0.0,0.0,0.0,0.0,0.0,0.0,0.0,0.0,0.0,0.0,0.0,0.0,0.0,0.0,0.0,0.0,0.0,0.0,0.0,-0.1753,0.2019,0.5247,0.7436,0.963,1.0065,0.8131,0.0,0.0,0.0,0.0,0.0,0.0,0.0,0.0,0.0,0.0,0.0,0.0,0.0,0.0,0.0,0.0,0.0,0.0,0.0,0.0,0.0,0.0,0.0,0.0,0.0,0.0,0.0,0.0,0.0,0.0,0.0,0.0,0.0,0.0,0.0,0.0,0.0,0.0,0.0,0.0,0.0,0.0,0.0,0.0,0.0,0.0,0.0,0.0,0.0,0.0,0.0,0.0,0.0,0.0,0.0,0.0,0.0,0.0,0.0,0.0,0.0,0.0,0.0,0.0,0.0,0.0,0.0,0.0,0.0,0.0,0.0,0.0,0.0,0.0,0.0,0.0,0.0,0.0,0.0,0.0,0.0,0.0,0.0,0.0,0.0,0.0,0.0,0.0,0.0,0.0,0.0,0.0,0.0,0.0,0.0,0.0,0.0,0.0,0.0,0.0,0.0,0.0,0.0,0.0,-0.2982,0.1079,0.3237,0.5247,0.7436,0.9676,1.0132,0.8122,0.0,0.0,0.0,0.0,0.0,0.0,0.0,0.0,0.0,0.0,0.0,0.0,0.0,0.0,0.0,0.0,0.0,0.0,0.0,0.0,0.0,0.0,0.0,0.0,0.0,0.0,0.0,0.0,0.0,0.0,0.0,0.0,0.0,0.0,0.0,0.0,0.0,0.0,0.0,0.0,0.0,0.0,0.0,0.0,0.0,0.0,0.0,0.0,0.0,0.0,0.0,0.0,0.0,0.0,0.0,0.0,0.0,0.0,0.0,0.0,0.0,0.0,0.0,0.0,0.0,0.0,0.0,0.0,0.0,0.0,0.0,0.0,0.0,0.0,0.0,0.0,0.0,0.0,0.0,0.0,0.0,0.0,0.0,0.0,0.0,0.0,0.0,0.0,0.0,0.0,0.0,0.0,0.0,0.0,0.0,0.0,0.0,0.0,0.0,0.0,0.0,0.0,0.0,-0.3475,-0.0284,0.3044,0.4731,0.6299,0.8094,0.9951,0.9976,0.7596,0.8539,0.0,0.0,0.0,0.0,0.0,0.0,0.0,0.0,0.0,0.0,0.0,0.0,0.0,0.0,0.0,0.0,0.0,0.0,0.0,0.0,0.0,0.0,0.0,0.0,0.0,0.0,0.0,0.0,0.0,0.0,0.0,0.0,0.0,0.0,0.0,0.0,0.0,0.0,0.0,0.0,0.0,0.0,0.0,0.0,0.0,0.0,0.0,0.0,0.0,0.0,0.0,0.0,0.0,0.0,0.0,0.0,0.0,0.0,0.0,0.0,0.0,0.0,0.0,0.0,0.0,0.0,0.0,0.0,0.0,0.0,0.0,0.0,0.0,0.0,0.0,0.0,0.0,0.0,0.0,0.0,0.0,0.0,0.0,0.0,0.0,0.0,0.0,0.0,0.0,0.0,0.0,0.0,0.0,0.0,0.0,0.0,0.0,0.0,0.0,0.0,0.0,0.0,-0.1237,0.2018,0.4157,0.5707,0.7197,0.8692,0.9853,0.9532,0.7147,0.8099,0.0,0.0,0.0,0.0,0.0,0.0,0.0,0.0,0.0,0.0,0.0,0.0,0.0,0.0,0.0,0.0,0.0,0.0,0.0,0.0,0.0,0.0,0.0,0.0,0.0,0.0,0.0,0.0,0.0,0.0,0.0,0.0,0.0,0.0,0.0,0.0,0.0,0.0,0.0,0.0,0.0,0.0,0.0,0.0,0.0,0.0,0.0,0.0,0.0,0.0,0.0,0.0,0.0,0.0,0.0,0.0,0.0,0.0,0.0,0.0,0.0,0.0,0.0,0.0,0.0,0.0,0.0,0.0,0.0,0.0,0.0,0.0,0.0,0.0,0.0,0.0,0.0,0.0,0.0,0.0,0.0,0.0,0.0,0.0,0.0,0.0,0.0,0.0,0.0,0.0,0.0,0.0,0.0,0.0,0.0,0.0,0.0,0.0,0.0,0.0,0.0,0.0,-0.0644,0.2686,0.425,0.5707,0.7197,0.8692,0.9032,0.8526,0.708,0.7205,0.0,0.0,0.0,0.0,0.0,0.0,0.0,0.0,0.0,0.0,0.0,0.0,0.0,0.0,0.0,0.0,0.0,0.0,0.0,0.0,0.0,0.0,0.0,0.0,0.0,0.0,0.0,0.0,0.0,0.0,0.0,0.0,0.0,0.0,0.0,0.0,0.0,0.0,0.0,0.0,0.0,0.0,0.0,0.0,0.0,0.0,0.0,0.0,0.0,0.0,0.0,0.0,0.0,0.0,0.0,0.0,0.0,0.0,0.0,0.0,0.0,0.0,0.0,0.0,0.0,0.0,0.0,0.0,0.0,0.0,0.0,0.0,0.0,0.0,0.0,0.0,0.0,0.0,0.0,0.0,0.0,0.0,0.0,0.0,0.0,0.0,0.0,0.0,0.0,0.0,0.0,0.0,0.0,0.0,0.0,0.0,0.0,0.0,0.0,0.0,0.0,0.0,-0.0163,0.3161,0.0,0.6528,0.8196,0.8752,0.9424,0.8996,0.7103,0.0,0.0,0.0,0.0,0.0,0.0,0.0,0.0,0.0,0.0,0.0,0.0,0.0,0.0,0.0,0.0,0.0,0.0,0.0,0.0,0.0,0.0,0.0,0.0,0.0,0.0,0.0,0.0,0.0,0.0,0.0,0.0,0.0,0.0,0.0,0.0,0.0,0.0,0.0,0.0,0.0,0.0,0.0,0.0,0.0,0.0,0.0,0.0,0.0,0.0,0.0,0.0,0.0,0.0,0.0,0.0,0.0,0.0,0.0,0.0,0.0,0.0,0.0,0.0,0.0,0.0,0.0,0.0,0.0,0.0,0.0,0.0,0.0,0.0,0.0,0.0,0.0,0.0,0.0,0.0,0.0,0.0,0.0,0.0,0.0,0.0,0.0,0.0,0.0,0.0,0.0,0.0,0.0,0.0,0.0,0.0,0.0,0.0,0.0,0.0,0.0,0.0,-0.4298,0.0323,0.3755,0.0,0.702,0.8771,0.8677,0.9275,0.8807,0.6851,0.0,0.0,0.0,0.0,0.0,0.0,0.0,0.0,0.0,0.0,0.0,0.0,0.0,0.0,0.0,0.0,0.0,0.0,0.0,0.0,0.0,0.0,0.0,0.0,0.0,0.0,0.0,0.0,0.0,0.0,0.0,0.0,0.0,0.0,0.0,0.0,0.0,0.0,0.0,0.0,0.0,0.0,0.0,0.0,0.0,0.0,0.0,0.0,0.0,0.0,0.0,0.0,0.0,0.0,0.0,0.0,0.0,0.0,0.0,0.0,0.0,0.0,0.0,0.0,0.0,0.0,0.0,0.0,0.0,0.0,0.0,0.0,0.0,0.0,0.0,0.0,0.0,0.0,0.0,0.0,0.0,0.0,0.0,0.0,0.0,0.0,0.0,0.0,0.0,0.0,0.0,0.0,0.0,0.0,0.0,0.0,0.0,0.0,0.0,0.0,0.0,0.0,-0.4209,0.0815,0.4375,0.4415,0.702,0.8691,0.8447,0.8357,0.7679,0.0,0.0,0.0,0.0,0.0,0.0,0.0,0.0,0.0,0.0,0.0,0.0,0.0,0.0,0.0,0.0,0.0,0.0,0.0,0.0,0.0,0.0,0.0,0.0,0.0,0.0,0.0,0.0,0.0,0.0,0.0,0.0,0.0,0.0,0.0,0.0,0.0,0.0,0.0,0.0,0.0,0.0,0.0,0.0,0.0,0.0,0.0,0.0,0.0,0.0,0.0,0.0,0.0,0.0,0.0,0.0,0.0,0.0,0.0,0.0,0.0,0.0,0.0,0.0,0.0,0.0,0.0,0.0,0.0,0.0,0.0,0.0,0.0,0.0,0.0,0.0,0.0,0.0,0.0,0.0,0.0,0.0,0.0,0.0,0.0,0.0,0.0,0.0,0.0,0.0,0.0,0.0,0.0,0.0,0.0,0.0,0.0,0.0,0.0,0.0,0.0,0.0,0.0,-0.4019,0.0907,0.4375,0.4415,0.6592,0.83,0.8927,0.8641,0.7934,0.6755,0.0,0.0,0.0,0.0,0.0,0.0,0.0,0.0,0.0,0.0,0.0,0.0,0.0,0.0,0.0,0.0,0.0,0.0,0.0,0.0,0.0,0.0,0.0,0.0,0.0,0.0,0.0,0.0,0.0,0.0,0.0,0.0,0.0,0.0,0.0,0.0,0.0,0.0,0.0,0.0,0.0,0.0,0.0,0.0,0.0,0.0,0.0,0.0,0.0,0.0,0.0,0.0,0.0,0.0,0.0,0.0,0.0,0.0,0.0,0.0,0.0,0.0,0.0,0.0,0.0,0.0,0.0,0.0,0.0,0.0,0.0,0.0,0.0,0.0,0.0,0.0,0.0,0.0,0.0,0.0,0.0,0.0,0.0,0.0,0.0,0.0,0.0,0.0,0.0,0.0,0.0,0.0,0.0,0.0,0.0,0.0,0.0,0.0,0.0,0.0,0.0,0.0,-0.3904,0.0435,0.3622,0.3935,0.5666,0.7123,0.7839,0.8296,0.7866,0.6416,0.0,0.0,0.0,0.0,0.0,0.0,0.0,0.0,0.0,0.0,0.0,0.0,0.0,0.0,0.0,0.0,0.0,0.0,0.0,0.0,0.0,0.0,0.0,0.0,0.0,0.0,0.0,0.0,0.0,0.0,0.0,0.0,0.0,0.0,0.0,0.0,0.0,0.0,0.0,0.0,0.0,0.0,0.0,0.0,0.0,0.0,0.0,0.0,0.0,0.0,0.0,0.0,0.0,0.0,0.0,0.0,0.0,0.0,0.0,0.0,0.0,0.0,0.0,0.0,0.0,0.0,0.0,0.0,0.0,0.0,0.0,0.0,0.0,0.0,0.0,0.0,0.0,0.0,0.0,0.0,0.0,0.0,0.0,0.0,0.0,0.0,0.0,0.0,0.0,0.0,0.0,0.0,0.0,0.0,0.0,0.0,0.0,0.0,0.0,0.0,0.0,0.0,-0.3909,-0.035,0.2462,0.313,0.4518,0.5571,0.5951,0.7377,0.7494,0.5742,0.0,0.0,0.0,0.0,0.0,0.0,0.0,0.0,0.0,0.0,0.0,0.0,0.0,0.0,0.0,0.0,0.0,0.0,0.0,0.0,0.0,0.0,0.0,0.0,0.0,0.0,0.0,0.0,0.0,0.0,0.0,0.0,0.0,0.0,0.0,0.0,0.0,0.0,0.0,0.0,0.0,0.0,0.0,0.0,0.0,0.0,0.0,0.0,0.0,0.0,0.0,0.0,0.0,0.0,0.0,0.0,0.0,0.0,0.0,0.0,-1.1832,0.0,0.0,0.0,0.0,0.0,0.0,0.0,0.0,0.0,0.0,0.0,0.0,0.0,0.0,0.0,0.0,0.0,0.0,0.0,0.0,0.0,0.0,0.0,0.0,0.0,0.0,0.0,0.0,0.0,0.0,0.0,0.0,0.0,0.0,0.0,0.0,0.0,0.0,0.0,0.0,0.0,-0.3909,-0.035,0.2258,0.2417,0.3756,0.493,0.5698,0.6107,0.6369,0.6579,0.0,0.0,0.0,0.0,0.0,0.0,0.0,0.0,0.0,0.0,0.0,0.0,0.0,0.0,0.0,0.0,0.0,0.0,0.0,0.0,0.0,0.0,0.0,0.0,0.0,0.0,0.0,0.0,0.0,0.0,0.0,0.0,0.0,0.0,0.0,0.0,0.0,0.0,0.0,0.0,0.0,0.0,0.0,0.0,0.0,0.0,0.0,0.0,0.0,0.0,0.0,0.0,0.0,0.0,0.0,0.0,0.0,0.0,0.0,0.0,0.0,-1.322,0.0,0.0,0.0,0.0,0.0,0.0,0.0,0.0,0.0,0.0,0.0,0.0,0.0,0.0,0.0,0.0,0.0,0.0,0.0,0.0,0.0,0.0,0.0,0.0,0.0,0.0,0.0,0.0,0.0,0.0,0.0,0.0,0.0,0.0,0.0,0.0,0.0,0.0,0.0,0.0,-0.3898,-0.094,0.1289,0.1657,0.2332,0.3233,0.4291,0.4849,0.5348,0.5766,0.5795,0.0,0.0,0.0,0.0,0.0,0.0,0.0,0.0,0.0,0.0,0.0,0.0,0.0,0.0,0.0,0.0,0.0,0.0,0.0,0.0,0.0,0.0,0.0,0.0,0.0,0.0,0.0,0.0,0.0,0.0,0.0,0.0,0.0,0.0,0.0,0.0,0.0,0.0,0.0,0.0,0.0,0.0,0.0,0.0,0.0,0.0,0.0,0.0,0.0,0.0,0.0,0.0,0.0,-1.8825,-1.9285,-1.9731,-1.9783,-1.9587,-1.9101,-1.638,-1.4795,-1.4232,0.0,0.0,0.0,0.0,0.0,0.0,0.0,0.0,0.0,0.0,0.0,0.0,0.0,0.0,0.0,0.0,0.0,0.0,0.0,0.0,0.0,0.0,0.0,0.0,0.0,-1.9953,-1.9629,0.0,0.0,0.0,0.0,0.0,0.0,0.0,0.0,0.0,0.0,0.0,0.0,-0.375,-0.1672,0.0105,0.0833,0.1006,0.1471,0.245,0.3547,0.426,0.4536,0.4792,0.512,0.0,0.0,0.0,0.0,0.0,0.0,0.0,0.0,0.0,0.0,0.0,0.0,0.0,0.0,0.0,0.0,0.0,0.0,0.0,0.0,0.0,0.0,0.0,0.0,0.0,0.0,0.0,0.0,0.0,0.0,0.0,0.0,-1.3013,-1.3971,0.0,0.0,0.0,0.0,0.0,0.0,0.0,0.0,0.0,0.0,0.0,0.0,0.0,-2.0117,-2.0805,-2.23,-2.3063,-2.3117,-2.311,-2.2916,-2.2511,-2.116,-2.0295,-1.9851,-1.9443,0.0,-1.8256,-1.6352,0.0,0.0,0.0,0.0,0.0,0.0,0.0,0.0,0.0,0.0,0.0,0.0,0.0,0.0,0.0,0.0,0.0,0.0,0.0,0.0,0.0,0.0,-2.3637,-2.2555,-2.2356,-2.2039,0.0,-1.8266,-1.5722,-1.3231,-1.2393,0.0,0.0,0.0,0.0,0.0,0.0,0.0,-0.3195,-0.1794,-0.0696,0.0056,0.0727,0.1102,0.1167,0.1893,0.2932,0.4319,0.4089,0.429,0.522,0.4658,0.0,0.0,0.0,0.0,0.0,0.0,0.0,0.0,0.0,0.0,0.0,0.0,0.0,0.0,0.0,0.0,0.0,0.0,0.0,0.0,0.0,0.0,0.0,0.0,0.0,0.0,0.0,0.0,0.0,-1.2724,-1.4494,-1.5432,-1.6105,-1.6042,0.0,0.0,0.0,0.0,0.0,0.0,0.0,0.0,0.0,-2.1283,-2.225,-2.2799,-2.2903,-2.3602,-2.3992,-2.4111,-2.377,-2.3703,-2.3817,-2.2798,-2.2369,-2.2438,-2.2081,-2.1786,-2.1404,-1.9531,-1.8842,-1.8959,0.0,0.0,0.0,0.0,-1.9486,-1.9771,-2.1176,-2.1492,0.0,-2.0526,0.0,0.0,0.0,0.0,0.0,0.0,0.0,0.0,0.0,0.0,-2.4017,-2.3584,-2.3224,-2.2763,-2.1867,-2.0331,-1.8313,0.0,-1.4617,-1.3601,-1.1595,0.0,0.0,0.0,0.0,0.0,-0.4879,-0.3003,-0.1612,-0.128,-0.0559,0.0,0.0266,0.0977,0.1827,0.2874,0.2758,0.2983,0.3825,0.3598,0.3131,0.0,0.0,0.0,0.0,0.0,0.0,0.0,0.0,0.0,0.0,0.0,0.0,0.0,0.0,0.0,0.0,0.0,0.0,0.0,0.0,0.0,0.0,0.0,0.0,0.0,0.0,0.0,0.0,-1.4732,-1.6353,-1.7466,-1.8506,-1.8609,0.0,0.0,0.0,0.0,0.0,0.0,-2.1515,-2.2079,-2.2941,-2.4251,-2.492,-2.5102,-2.4771,-2.5084,-2.5146,-2.4982,-2.4786,-2.4722,-2.4792,-2.4389,-2.4348,-2.4561,-2.4085,-2.3865,-2.3717,-2.2174,-2.1264,-2.0923,-2.0826,-2.061,-2.0564,-2.185,-2.2353,-2.266,-2.4771,-2.5179,-2.4622,-2.3945,0.0,-2.2059,-2.0543,0.0,0.0,0.0,0.0,-2.1836,-2.2893,-2.3535,-2.3931,-2.3989,-2.3629,-2.3064,-2.2272,-2.1592,-2.0334,0.0,-1.6515,-1.5406,-1.3257,0.0,0.0,0.0,0.0,-0.6662,-0.6134,-0.4144,-0.2705,-0.2496,-0.1839,-0.1215,-0.0753,-0.0155,0.0397,0.1011,0.1238,0.1619,0.2266,0.2387,0.2344,0.2161,0.0,0.0,0.0,0.0,0.0,0.0,0.0,0.0,0.0,0.0,0.0,0.0,0.0,0.0,0.0,0.0,0.0,0.0,0.0,0.0,0.0,0.0,0.0,0.0,0.0,0.0,0.0,0.0,0.0,-2.0959,-2.2087,0.0,0.0,0.0,0.0,-2.1297,-2.1976,-2.3431,-2.5844,-2.5653,-2.5876,-2.6691,-2.6945,-2.7054,-2.704,-2.8233,-2.8263,-2.7141,-2.7898,-2.742,-2.5924,-2.5888,-2.5615,-2.5182,-2.5134,-2.5134,-2.4984,-2.3099,-2.2598,-2.3015,-2.3484,-2.4213,-2.4978,-2.5067,-2.5262,-2.5494,-2.5476,-2.5787,-2.6284,-2.6795,-2.616,-2.5318,-2.6041,-2.5137,0.0,0.0,-2.4834,-2.4845,-2.4724,-2.4714,-2.461,-2.4118,-2.3737,-2.3236,-2.2293,-2.1816,-2.0858,0.0,-1.7174,-1.611,-1.4724,0.0,-1.1383,-1.035,-0.9175,-0.7646,-0.5594,-0.4744,-0.4033,-0.3317,-0.2613,-0.2119,-0.2114,-0.1937,-0.1605,-0.0998,-0.0279,0.0355,0.0971,0.1408,0.144,0.1012,0.0843,0.0,0.0,0.0,0.0,0.0,0.0,0.0,0.0,0.0,0.0,0.0,0.0,0.0,0.0,0.0,0.0,0.0,0.0,0.0,0.0,0.0,0.0,0.0,0.0,0.0,0.0,0.0,0.0,-2.3003,-2.4028,0.0,0.0,-2.3901,-2.4458,-2.4618,-2.5494,-2.6488,-2.7598,-2.7528,-2.7883,-2.8857,-2.8791,-2.8748,-2.8745,-2.9183,-2.9214,-2.8791,-2.875,-2.844,-2.7832,-2.7507,-2.7262,-2.7136,-2.7136,-2.7136,-2.7065,-2.6428,-2.5366,-2.4221,-2.4397,-2.4757,-2.5187,-2.5187,-2.572,-2.6461,-2.6819,-2.6986,-2.7114,-2.732,-2.7094,-2.6803,-2.7122,-2.6803,-2.6339,-2.6431,-2.6446,-2.6415,-2.6199,-2.6146,-2.5819,-2.4552,-2.4157,-2.3598,-2.1777,-2.129,-2.0783,-1.9376,-1.8152,-1.6954,-1.573,-1.4168,-1.2792,-1.1881,-1.0346,-0.9019,-0.8248,-0.6754,-0.5697,-0.5471,-0.4751,-0.4142,-0.3657,-0.3074,-0.2401,-0.1707,-0.1277,-0.0943,-0.0727,-0.0041,0.031,0.0326,0.0574,0.0516,0.0,0.0,0.0,0.0,0.0,0.0,0.0,0.0,0.0,0.0,0.0,0.0,0.0,0.0,0.0,0.0,0.0,0.0,0.0,0.0,0.0,0.0,0.0,0.0,0.0,0.0,-2.3163,-2.4801,-2.5823,-2.6223,-2.5837,-2.6578,-2.7113,-2.7235,-2.8019,-2.8713,-2.9206,-2.9364,-2.9741,-3.0454,-3.0305,-3.0215,-3.0194,-3.0353,-3.029,-3.0043,-2.9831,-2.9627,-2.9351,-2.8989,-2.8881,-2.8895,-2.873,-2.8673,-2.8673,-2.8519,-2.7594,-2.6158,-2.5733,-2.5732,-2.5979,-2.5721,-2.6196,-2.7063,-2.7719,-2.8022,-2.8125,-2.8139,-2.8199,-2.824,-2.824,-2.824,-2.8139,-2.7631,-2.7416,-2.7252,-2.6896,-2.6606,-2.6188,-2.5183,-2.4569,-2.3736,-2.1915,-2.1279,-2.0731,-1.9889,-1.874,-1.7625,-1.6858,-1.5284,-1.3917,-1.3368,-1.1619,-1.0402,-1.0386,-0.8554,-0.7326,-0.7326,-0.6445,-0.5679,-0.5198,-0.4463,-0.3788,-0.3105,-0.2547,-0.2124,-0.1931,-0.1178,-0.0697,-0.0435,-0.0135,-0.0155,-0.0474,0.0,0.0,0.0,0.0,0.0,0.0,0.0,0.0,0.0,0.0,0.0,0.0,0.0,0.0,0.0,0.0,0.0,0.0,0.0,0.0,0.0,0.0,0.0,-2.2848,-2.3708,-2.4903,-2.649,-2.7544,-2.7776,-2.6851,-2.7576,-2.8426,-2.9148,-2.9494,-3.0056,-3.0884,-3.1236,-3.1427,-3.1446,-3.1446,-3.1439,-3.1458,-3.1837,-3.1686,-3.0974,-3.1296,-3.1058,-3.0379,-3.0379,-3.0348,-3.0318,-2.9889,-2.9692,-2.9658,-2.9261,-2.9115,-2.8958,-2.7674,-2.7431,-2.7774,-2.7063,-2.704,-2.7509,-2.821,-2.8868,-2.9429,-2.9429,-2.9551,-2.9696,-2.9696,-2.9696,-2.9473,-2.8428,-2.7892,-2.7475,-2.6851,-2.6141,-2.5683,-2.5949,-2.4986,-2.3749,-2.2834,-2.1777,-2.0763,-1.9919,-1.8855,-1.8092,-1.8066,-1.6194,-1.4675,-1.4597,-1.2964,0.0,-1.1661,-0.9944,-0.8731,-0.8731,-0.7481,-0.6642,-0.6642,-0.6284,-0.5731,-0.514,-0.4077,-0.3218,-0.256,-0.1969,-0.1565,-0.1345,-0.134,-0.1495,-0.1797,0.0,0.0,0.0,0.0,0.0,0.0,0.0,0.0,0.0,0.0,0.0,0.0,0.0,0.0,0.0,0.0,0.0,0.0,0.0,0.0,0.0,0.0,-2.3622,-2.379,-2.5665,-2.7382,-2.8375,-2.873,-2.9283,-3.0207,-3.0529,-3.0874,-3.1317,-3.1564,-3.1654,-3.1549,-3.1641,-3.1978,-3.2548,-3.2366,-3.2409,-3.2708,-3.281,-3.278,-3.2582,-3.2335,-3.2092,-3.188,-3.188,-3.1716,-3.1394,-3.1616,-3.1716,-3.1683,-3.1582,-3.1359,-3.0846,-2.9163,-2.8727,-2.9008,-2.8784,-2.919,-2.9833,-2.968,-2.9782,-2.9959,-2.9826,-2.9638,-2.9474,-2.9474,-2.9474,-2.9378,-2.8886,-2.8699,-2.8576,-2.8388,-2.8182,-2.7804,-2.6816,-2.6295,-2.5551,-2.3911,-2.2606,-2.1643,-2.1104,-1.9738,-1.8405,-1.7599,-1.6243,-1.4993,-1.4147,-1.2773,0.0,-1.1099,-1.0143,-0.9488,-0.9488,-0.8725,-0.8196,-0.8106,-0.6923,-0.5824,-0.514,-0.3984,-0.3259,-0.3102,-0.2837,-0.2474,-0.1958,-0.1936,-0.196,0.0,0.0,0.0,0.0,0.0,0.0,0.0,0.0,0.0,0.0,0.0,0.0,0.0,0.0,0.0,0.0,0.0,0.0,0.0,0.0,0.0,0.0,-2.4752,-2.6211,-2.6707,-2.7796,-2.8952,-3.0117,-3.0158,-3.0598,-3.1908,-3.1919,-3.1936,-3.2128,-3.2487,-3.2577,-3.2315,-3.2535,-3.2871,-3.3327,-3.3169,-3.3204,-3.3447,-3.3273,-3.3273,-3.3465,-3.2996,-3.2872,-3.3027,-3.3027,-3.2885,0.0,-3.2745,-3.2777,-3.2777,-3.2583,-3.235,0.0,0.0,0.0,0.0,0.0,-3.0247,-3.081,-3.0689,-3.0676,-3.0687,-3.0571,-3.0176,-2.9743,-2.9743,-2.9502,-2.9181,-2.9044,-2.8863,-2.8749,-2.8749,-2.8515,-2.8076,-2.7219,-2.6638,-2.5889,-2.4364,-2.3025,-2.1929,-2.1291,-2.0109,0.0,-1.7773,-1.6638,-1.5572,-1.4675,-1.3453,-1.2492,-1.2092,-1.1208,-1.0669,-1.0669,-0.9762,-0.9197,-0.9169,-0.7885,0.0,0.0,0.0,-0.3987,-0.3313,-0.3162,0.0,0.0,0.0,0.0,0.0,0.0,0.0,0.0,-0.2508,-0.2857,0.0,0.0,0.0,0.0,0.0,0.0,0.0,0.0,0.0,0.0,0.0,0.0,0.0,0.0,0.0,0.0,-2.7601,-2.9493,-3.0452,-2.9927,-3.0016,-3.1604,-3.1541,-3.1724,-3.2523,-3.2391,-3.2278,-3.2315,-3.2817,-3.3125,-3.3101,0.0,0.0,0.0,0.0,-3.3807,-3.3807,-3.3465,-3.3465,-3.3807,-3.339,-3.339,-3.3734,-3.3734,-3.3707,-3.3634,-3.3361,-3.3243,-3.3184,-3.2809,-3.2583,-3.238,-3.1306,-3.066,-3.037,-3.0442,-3.0773,-3.121,-3.1435,0.0,0.0,-3.1462,-3.0956,-3.032,-3.0228,-2.9714,-2.9104,-2.8989,-2.8682,-2.8394,-2.835,-2.7862,-2.7348,-2.7238,-2.6441,-2.5464,-2.4511,-2.3234,-2.1963,-2.1076,-2.0295,-1.9457,-1.8316,-1.7218,-1.6293,-1.5664,-1.463,-1.3862,-1.3721,-1.2648,-1.1864,-1.1814,0.0,0.0,-0.9917,-0.8924,-0.8056,-0.7532,-0.6384,-0.5136,-0.3687,-0.3412,-0.3331,-0.3313,-0.3252,-0.3239,-0.3356,-0.3554,-0.3629,-0.3619,-0.3219,-0.3777,0.0,0.0,0.0,0.0,0.0,0.0,0.0,0.0,0.0,0.0,0.0,0.0,0.0,0.0,0.0,-2.7425,-2.8683,-2.9907,-3.154,-3.1634,-3.1722,-3.2279,-3.2119,-3.2279,-3.3148,-3.3185,-3.3329,-3.3769,-3.3906,-3.3876,-3.3655,-3.3742,0.0,-3.3807,-3.3807,-3.3807,-3.3807,-3.3734,-3.3734,-3.3807,0.0,0.0,-3.3302,-3.3302,-3.3105,-3.2777,-3.3419,-3.3494,-3.3214,-3.3447,-3.3118,-3.2466,-3.2241,-3.2087,-3.2053,-3.2062,-3.2362,-3.2703,-3.2393,-3.2311,-3.2305,-3.1992,-3.1555,-3.1035,-3.0393,-3.0099,0.0,-2.8771,-2.8446,-2.8342,-2.8075,-2.788,-2.7601,-2.6835,-2.6487,-2.6084,-2.5185,-2.4018,-2.2923,-2.2207,-2.122,-2.0003,-1.8386,-1.7491,-1.6735,-1.5752,-1.5005,-1.4133,-1.312,-1.2773,-1.2385,-1.1864,-1.0618,-1.0012,-1.0568,-0.8795,-0.7639,-0.7482,-0.664,-0.5959,-0.5637,-0.5034,-0.4659,-0.4553,-0.4058,-0.3799,-0.3707,-0.386,-0.3934,-0.3931,-0.3846,-0.3908,0.0,0.0,0.0,0.0,0.0,0.0,0.0,0.0,0.0,0.0,0.0,-2.3531,0.0,0.0,-2.8344,-2.9982,-3.0527,-3.1221,-3.2561,-3.2649,-3.2649,-3.2938,-3.2711,-3.2884,-3.373,-3.3691,-3.3714,-3.3975,-3.4012,-3.3935,-3.3807,-3.3807,-3.3807,-3.3807,-3.3807,-3.3807,-3.3807,-3.3807,-3.3807,-3.3807,-3.3597,-3.3494,-3.3494,-3.3494,-3.339,-3.3148,-3.339,-3.3408,-3.3214,-3.3166,-3.2903,-3.2484,-3.2484,-3.235,-3.2196,-3.2681,-3.284,-3.284,-3.284,-3.2883,-3.2837,-3.2391,-3.2133,-3.1792,-3.0568,-3.0043,-2.9675,-2.8479,-2.8156,-2.8075,-2.7707,-2.7589,-2.7422,-2.6756,-2.6421,-2.6057,-2.5357,-2.4241,-2.3235,-2.2668,-2.156,-2.036,-1.9205,-1.8245,-1.7205,-1.5796,-1.5107,-1.4365,-1.3416,-1.3054,-1.2735,-1.2393,-1.1124,-1.0415,-1.0762,-0.9146,-0.7941,-0.7544,-0.7107,-0.6679,-0.6213,-0.5868,-0.5431,-0.4996,-0.4706,-0.4322,-0.3907,-0.406,-0.4083,-0.4083,-0.4206,-0.4364,0.0,0.0,0.0,0.0,0.0,0.0,0.0,0.0,-2.1915,-2.496,-2.6214,-2.7394,-2.9401,-3.049,-3.1335,-3.2064,-3.2195,-3.2495,-3.3358,-3.3291,-3.3241,-3.3449,-3.3291,-3.3412,-3.4067,-3.3928,-3.3807,-3.3807,-3.3807,-3.3862,-3.4027,-3.4027,-3.4119,-3.4284,-3.4284,-3.4284,-3.4284,-3.4119,-3.4027,-3.4027,-3.3862,-3.3807,-3.3807,-3.3807,-3.3762,-3.3652,-3.3225,-3.3075,-3.3014,-3.255,-3.2366,-3.2366,-3.2366,-3.2074,-3.1806,-3.2713,-3.2809,-3.255,-3.2952,-3.3075,-3.3014,-3.2616,-3.2552,-3.231,-3.0843,-3.0089,-2.9484,-2.8322,-2.7888,-2.7678,-2.7303,-2.7178,-2.7051,-2.6522,-2.6139,-2.5689,-2.5028,-2.4115,-2.3274,-2.2806,-2.1734,-2.0641,-1.9875,-1.8819,-1.7624,-1.6157,-1.532,-1.4652,-1.405,-1.3467,-1.3017,-1.2929,-1.1742,-1.0864,-1.0618,-0.9614,-0.8639,-0.7782,-0.777,-0.7413,-0.675,-0.6542,-0.6196,-0.5603,-0.5299,-0.4901,-0.4303,-0.4282,-0.4237,-0.4241,-0.4409,-0.4721,-1.8498,-1.8237,0.0,-2.1929,-2.2248,-2.2947,0.0,0.0,-2.6791,-2.8668,-2.9738,-3.034,-3.0381,-3.1126,-3.1879,-3.2447,-3.2551,-3.2827,-3.3637,-3.3739,-3.3713,-3.3747,-3.3739,-3.375,-3.3842,-3.3815,-3.3807,-3.3807,-3.3807,-3.4119,-3.4825,-3.4862,-3.5238,-3.5991,-3.6009,-3.6009,-3.6009,-3.5257,-3.4862,-3.4844,-3.4137,-3.3807,-3.3807,-3.3807,-3.3606,-3.3243,-3.2777,-3.2583,-3.255,-3.2057,-3.1897,-3.1897,-3.1897,-3.164,-3.1351,-3.2248,-3.255,-3.2517,-3.255,-3.2583,-3.2583,-3.2517,-3.253,-3.2332,-3.1455,-3.0676,-2.9867,-2.8676,-2.7886,-2.7255,-2.6873,-2.6758,-2.6522,-2.5598,-2.5335,-2.5012,-2.3991,-2.3649,-2.3411,-2.2828,-2.21,-2.1097,-1.9488,-1.8642,-1.7932,-1.7212,-1.6188,-1.5276,-1.4698,-1.405,-1.3505,-1.2978,-1.2187,-1.1216,-1.0012,-0.9762,-0.9392,-0.8698,-0.8652,-0.8633,-0.8495,-0.7905,-0.7476,-0.7423,-0.6124,-0.5425,-0.5317,-0.4751,-0.444,-0.4494,-0.4512,-0.4508,-2.1859,0.0,0.0,0.0,-2.5708,-2.6819,-2.9363,-2.9418,-2.9379,-3.101,-3.164,-3.1987,-3.2348,-3.2718,-3.3043,0.0,-3.3311,-3.3421,-3.3752,-3.3807,-3.3623,-3.3164,-3.3513,-3.3807,-3.3807,-3.3807,-3.3807,-3.3807,-3.4229,-3.4669,-3.4972,-3.5495,-3.5917,-3.6285,-3.6303,-3.6303,-3.6303,-3.5936,-3.5771,-3.5752,-3.4908,-3.4504,-3.4486,-3.4009,-3.3578,-3.3184,-3.2983,-3.2616,-3.2074,-3.1897,-3.166,-3.1449,-3.1449,-3.1351,-3.1291,-3.2196,-3.2196,-3.1787,-3.2004,-3.2092,-3.2057,-3.1823,-3.2092,-3.2276,-3.0994,-3.0247,-2.9597,-2.8407,-2.752,-2.6906,-2.6758,-2.6691,-2.6573,-2.6158,-2.5635,-2.5067,-2.4632,-2.4032,-2.352,-2.3266,-2.2409,-2.1456,-2.0741,-1.9244,-1.813,-1.7879,-1.6529,-1.5365,-1.4789,-1.419,-1.3389,-1.2384,-1.1625,-1.0813,-0.9865,-0.9465,-0.9113,-0.8804,-0.8804,-0.8804,-0.8804,-0.848,-0.8156,-0.7723,-0.7069,-0.6357,-0.5487,-0.5218,-0.4897,-0.4519,-0.4519,-0.4519,-2.4391,0.0,0.0,-2.7255,-2.8375,-2.9466,-3.0607,-3.087,-3.1256,-3.2651,-3.2944,-3.3054,-3.3403,-3.3642,0.0,-3.3513,-3.366,-3.3807,-3.3807,-3.3605,-3.3348,-3.2981,-3.3256,-3.3568,-3.377,-3.3807,-3.3807,-3.3807,-3.4559,-3.5082,-3.5367,-3.6174,-3.6725,-3.6945,-3.6964,-3.6964,-3.6964,-3.6743,-3.6615,-3.6615,-3.5771,-3.5367,-3.5349,-3.4523,-3.3907,-3.3539,-3.3304,-3.2745,-3.1986,-3.1986,-3.1806,-3.1562,-3.1428,-3.1389,-3.1411,-3.195,-3.175,-3.1252,-3.1528,-3.1623,-3.1603,-3.1291,-3.162,-3.1882,-3.052,-2.979,-2.9197,-2.8133,-2.7283,-2.6691,-2.6691,-2.6624,-2.647,-2.6315,-2.5635,-2.495,-2.4776,-2.4158,-2.3595,-2.3595,-2.2732,-2.1872,-2.1524,-1.9809,-1.835,-1.803,-1.6748,-1.5555,-1.4789,-1.4014,-1.316,-1.2227,-1.1683,-1.1032,-1.0167,-0.9614,-0.9211,-0.8804,-0.8804,-0.8804,-0.8804,-0.8586,-0.8262,-0.7723,-0.7503,-0.6853,-0.5814,-0.5597,-0.5269,-0.4787,-0.457,-0.4519,0.0,0.0,-2.658,-2.9381,-2.9828,-3.0107,-3.2096,-3.254,-3.2761,-3.3587,-3.3752,-3.3532,-3.2797,-3.3275,-3.3532,-3.2761,-3.3293,-3.3807,-3.3807,-3.3128,-3.2926,-3.3678,-3.3109,-3.2944,0.0,-3.3807,-3.3807,-3.3807,-3.4559,-3.5385,-3.6211,-3.7019,-3.7808,-3.8597,-3.8634,-3.8634,-3.8634,-3.7845,-3.7441,-3.747,-3.6652,-3.6266,-3.6229,-3.5367,-3.4736,-3.4333,-3.3557,-3.2921,-3.2484,-3.2484,-3.2484,-3.2417,-3.1968,-3.1789,-3.1716,-3.1389,-3.123,-3.119,-3.123,-3.123,-3.123,-3.119,-3.123,-3.1094,-3.0328,-2.9583,-2.8859,-2.8044,-2.7283,-2.6691,-2.6691,-2.6367,-2.5888,-2.5373,-2.4816,-2.4266,-2.3752,-2.3638,-2.3595,-2.3595,-2.3098,-2.2298,-2.1133,-1.9913,-1.8708,-1.7586,-1.6886,-1.6064,-1.4835,-1.3658,-1.2929,-1.2881,-1.2832,-1.2264,-1.0864,-1.0762,-1.0167,-0.8857,-0.8804,-0.8804,-0.8804,-0.8103,-0.7723,-0.7723,-0.702,-0.6588,-0.6588,-0.5873,-0.5487,-0.5433,-0.4787,-0.4519,0.0,0.0,-2.9107,-3.0626,-3.1283,-3.1908,-3.312,-3.3403,-3.333,-3.3073,-3.2577,-3.1953,-3.1164,-3.1237,-3.1494,-3.1751,-3.2485,-3.3201,-3.3715,-3.4045,-3.3917,-3.3109,-3.3715,0.0,0.0,0.0,0.0,-3.3807,-3.5092,-3.5991,-3.6285,-3.7569,-3.8414,-3.8689,-3.8707,-3.8707,-3.8707,-3.8432,-3.8303,-3.8285,-3.7477,-3.6817,-3.6266,-3.5404,-3.5227,-3.5597,-3.4209,-3.3669,-3.3737,-3.3167,-3.2777,-3.2451,-3.1986,-3.1789,-3.1752,-3.1351,-3.119,-3.119,-3.119,-3.1372,-3.1565,-3.1291,-3.1389,-3.1493,-3.1002,-2.9956,-2.8924,-2.867,-2.7672,-2.6691,-2.6691,-2.6367,-2.5961,-2.5762,-2.5067,-2.4348,-2.4158,-2.3837,-2.3595,-2.3595,-2.2741,-2.189,-2.1495,-2.0099,-1.8488,-1.6993,-1.626,-1.5599,-1.4789,-1.4014,-1.3324,-1.2929,-1.2452,-1.1981,-1.1516,-1.0669,-0.9969,-0.951,-0.9061,-0.8804,-0.8804,-0.8586,-0.8209,-0.7723,-0.7456,-0.6853,-0.5869,-0.5597,-0.5273,-0.4842,-0.4625,-0.4519,0.0,-2.9948,-3.1086,-3.2019,-3.2747,-3.3351,-3.3707,-3.3587,-3.3146,-3.2339,-3.1531,-3.0632,-2.9531,-2.9586,-3.0026,-3.0834,-3.1898,-3.2999,-3.4082,-3.4688,-3.4715,-3.4009,-3.4578,0.0,0.0,0.0,0.0,-3.3844,-3.5624,-3.6597,-3.6321,-3.7826,-3.8707,-3.8707,-3.8707,-3.8707,-3.8707,-3.8707,-3.8707,-3.8689,-3.8175,-3.7661,-3.7129,-3.6285,-3.6046,-3.6211,-3.4835,-3.4219,-3.4134,-3.3608,-3.3225,-3.2934,-3.2466,-3.2196,-3.2004,-3.1565,-3.1312,-3.119,-3.119,-3.1389,-3.1528,-3.1291,-3.1372,-3.1439,-3.0701,-2.9955,-2.9225,-2.8468,-2.77,-2.6995,-2.6554,-2.6068,-2.5652,-2.5486,-2.4752,-2.4116,-2.4116,-2.3837,-2.3551,-2.3334,-2.262,-2.1899,-2.1486,-2.0077,-1.8436,-1.6667,-1.6121,-1.5519,-1.449,-1.405,-1.3552,-1.2968,-1.2501,-1.208,-1.1814,-1.1015,-1.0312,-0.9814,-0.9413,-0.9061,-0.8811,-0.8533,-0.8049,-0.7343,-0.7289,-0.6686,-0.5487,-0.5487,-0.5273,-0.4838,-0.4625,-0.4519,-3.0809,-3.1774,-3.2459,-3.3552,-3.4102,-3.428,-3.3835,-3.3128,-3.2302,-3.1439,-3.0577,-2.9475,0.0,0.0,-2.9108,-2.9953,-3.1458,-3.3128,-3.4752,-3.5027,-3.5385,0.0,0.0,0.0,0.0,0.0,0.0,-3.4045,0.0,-3.7165,-3.6395,-3.7845,-3.8707,-3.8707,-3.8707,-3.8707,-3.8707,-3.8707,-3.8707,-3.8707,-3.8707,-3.8707,-3.867,-3.7863,-3.7092,-3.6376,-3.5422,-3.4596,-3.3917,-3.3844,-3.3807,-3.3762,-3.3332,-3.2872,-3.2451,-3.1968,-3.1545,-3.119,-3.119,-3.123,-3.123,-3.119,-3.123,-3.0999,-2.9672,-2.9655,-2.9623,-2.7569,-2.7344,-2.7448,-2.6303,-2.5577,-2.5012,-2.4511,-2.3991,-2.3595,-2.3595,-2.3551,-2.3377,-2.2785,-2.2649,-2.2221,-2.0944,-1.9759,-1.8412,-1.6739,-1.6443,-1.5753,-1.401,-1.3815,-1.3552,-1.2968,-1.2881,-1.2608,-1.1864,-1.1765,-1.1216,-0.9865,-0.9762,-0.9465,-0.8804,-0.8156,-0.7396,-0.6696,-0.6642,-0.6258,-0.5487,-0.5487,-0.5433,-0.5433,-0.4787,-0.4519,-3.1682,-3.3178,-3.4555,-3.4268,-3.4261,-3.4075,-3.3113,-3.2284,-3.1311,-2.9898,-2.8026,-2.6319,-2.5291,0.0,0.0,-2.8172,-3.0265,0.0,-3.4679,-3.5569,0.0,0.0,0.0,-3.6707,-3.634,-3.6835,0.0,0.0,-3.678,-3.7404,-3.7184,-3.8157,-3.8707,-3.8707,-3.8707,-3.8707,-3.8707,-3.8707,-3.8707,-3.8707,-3.8707,-3.8707,-3.867,-3.7863,-3.7716,-3.7973,-3.5917,-3.5257,-3.5569,-3.4302,-3.3807,-3.3734,-3.2965,-3.2616,-3.2417,-3.1657,-3.1291,-3.119,-3.119,-3.1389,-3.1603,-3.1291,-3.1411,-3.1531,-3.0881,-3.001,-2.9194,-2.8626,-2.7484,-2.6388,-2.6099,-2.5297,-2.4592,-2.443,-2.3991,-2.3595,-2.3595,-2.3246,-2.2875,-2.274,-2.1941,-2.1028,-2.0207,-1.9472,-1.866,-1.7685,-1.6872,-1.5753,-1.401,-1.3815,-1.3552,-1.2968,-1.2881,-1.2608,-1.1864,-1.1366,-1.0712,-0.9865,-0.9309,-0.8956,-0.8811,-0.8646,-0.8156,-0.745,-0.6858,-0.6258,-0.5487,-0.5003,-0.4732,-0.4732,-0.457,-0.4519,-3.3621,-3.4901,-3.58,-3.4848,-3.4467,-3.39,-3.2399,-3.0889,-2.9347,-2.775,-2.5786,0.0,0.0,0.0,0.0,0.0,0.0,0.0,-3.4605,-3.6046,-3.6945,0.0,-3.7753,0.0,-3.7404,-3.7753,-3.7845,0.0,-3.7771,-3.7863,-3.7514,-3.8267,-3.8707,-3.8707,-3.8707,-3.8707,-3.8707,-3.8707,-3.8707,-3.8707,-3.8707,-3.8707,-3.8689,-3.823,-3.8065,-3.8083,0.0,-3.5743,-3.5632,-3.4491,-3.3832,-3.3494,-3.3014,-3.255,-3.2127,-3.164,-3.1351,-3.119,-3.119,-3.1351,-3.1507,-3.1252,-3.1162,-3.1111,-3.0885,-3.0212,-2.9388,-2.8489,-2.7618,-2.673,-2.5573,-2.4855,-2.4348,-2.4116,-2.3837,-2.3595,-2.3595,-2.3334,-2.292,-2.2346,-2.1245,-2.0245,-1.985,-1.956,-1.9019,-1.8142,-1.7105,-1.5861,-1.4377,-1.3942,-1.3552,-1.2968,-1.2881,-1.2715,-1.2344,-1.1625,-1.0965,-1.0261,-0.9614,-0.9113,-0.8804,-0.8804,-0.848,-0.7723,-0.6966,-0.6258,-0.5487,-0.4842,-0.4519,-0.4519,-0.4519,-0.4519,-3.564,-3.6508,-3.657,-3.5349,-3.4679,-3.3756,-3.1712,-2.9292,-2.7016,-2.5421,0.0,0.0,-2.0594,0.0,-2.3529,-2.5146,0.0,-3.1164,-3.4385,-3.6174,-3.7496,-3.8432,-3.8634,-3.8707,-3.8707,-3.8707,-3.8707,-3.8707,-3.8707,-3.8395,-3.7679,-3.8322,-3.8707,-3.8707,-3.8707,-3.8707,-3.8707,-3.8707,-3.8707,-3.8707,-3.8707,-3.8707,-3.8707,-3.8707,-3.8273,-3.7516,0.0,0.0,-3.4929,-3.4315,-3.3674,-3.3105,-3.3045,-3.2533,-3.1789,-3.1752,-3.1507,-3.119,-3.119,-3.119,-3.119,-3.119,-3.0797,-3.0293,-3.0393,-3.0227,-2.9655,-2.7913,-2.7599,-2.729,-2.5001,-2.4348,-2.4199,-2.3724,-2.3595,-2.3595,-2.3595,-2.345,-2.298,-2.1805,-2.062,-1.9798,-1.9798,-1.9798,-1.943,-1.8338,-1.7159,-1.5981,-1.4846,-1.4094,-1.3457,-1.2978,-1.2881,-1.2871,-1.2774,-1.2089,-1.1366,-1.072,-1.0064,-0.9413,-0.8804,-0.8804,-0.848,-0.783,-0.702,-0.6312,-0.5651,-0.4897,-0.4519,-0.4519,-0.4519,-0.4519,-3.5647,-3.6627,-3.7316,-3.5792,-3.4844,-3.3611,-3.0991,-2.8026,0.0,0.0,0.0,-1.984,-1.9565,-2.1418,0.0,-2.5146,0.0,0.0,0.0,0.0,-3.6009,0.0,0.0,0.0,0.0,0.0,0.0,0.0,0.0,-3.8634,-3.8505,-3.8615,-3.8707,-3.8707,-3.8707,-3.8707,-3.8707,-3.8707,-3.8707,-3.8707,-3.8707,-3.8707,-3.8707,-3.8707,-3.8392,-3.7742,-3.6389,0.0,-3.4741,-3.3377,-3.274,-3.2583,-3.2196,-3.1951,-3.1752,-3.1411,-3.1252,-3.119,-3.119,-3.119,-3.119,-3.119,-3.0797,-3.0393,-3.0878,-2.9922,-2.8565,-2.815,-2.7001,-2.5681,-2.4647,-2.4074,-2.3724,-2.3638,-2.3595,-2.3595,-2.3595,-2.2786,-2.1805,-2.1126,-2.0346,-1.9798,-1.9798,-1.9798,-1.9554,-1.8701,-1.7329,-1.6104,-1.5233,-1.392,-1.3017,-1.2929,-1.2881,-1.2666,-1.203,-1.1366,-1.0669,-1.0012,-0.9361,-0.891,-0.8811,-0.8804,-0.8752,-0.8593,-0.7289,-0.6534,-0.6421,-0.5117,-0.4519,-0.4519,-0.4519,-0.4519,-3.6249,-3.6902,-3.7061,-3.6126,-3.448,-3.2329,-2.9582,0.0,0.0,0.0,0.0,-1.806,-1.806,0.0,0.0,0.0,0.0,0.0,0.0,0.0,0.0,0.0,0.0,0.0,0.0,0.0,0.0,0.0,0.0,-3.8707,-3.8707,-3.8707,-3.8707,-3.8707,-3.8707,-3.8707,-3.8707,-3.8707,-3.8707,-3.8707,-3.8707,-3.8707,-3.8707,-3.8707,-3.8308,-3.7626,-3.6368,0.0,-3.4521,-3.3266,-3.2512,-3.2092,-3.188,-3.166,-3.147,-3.1252,-3.119,-3.119,-3.119,-3.119,-3.119,-3.119,-3.0576,-2.9935,-3.0559,-2.9648,-2.8241,-2.7498,-2.6677,-2.5679,-2.4349,-2.3794,-2.3595,-2.3595,-2.3595,-2.3508,-2.3201,-2.2377,-2.152,-2.0944,-2.0258,-1.9798,-1.9798,-1.9798,-1.9527,-1.8821,-1.7554,-1.6365,-1.5319,-1.4023,-1.3125,-1.29,-1.2881,-1.2774,-1.2393,-1.1425,-1.0661,-1.0364,-0.9361,-0.8804,-0.8804,-0.8804,-0.8804,-0.8804,-0.7723,-0.6966,-0.6588,-0.555,-0.4842,-0.4519,-0.4519,-0.4519,-3.6174,-3.665,-3.6517,-3.6124,-3.3887,-3.1075,-2.8416,-2.4538,0.0,0.0,0.0,-1.6707,-1.6872,0.0,0.0,0.0,0.0,0.0,0.0,0.0,0.0,0.0,0.0,0.0,0.0,0.0,0.0,0.0,0.0,0.0,-3.8707,-3.8707,-3.8707,-3.8707,-3.8707,-3.8707,-3.8707,-3.8707,-3.8627,-3.8546,-3.8546,-3.8546,-3.8528,-3.8363,-3.7942,-3.7272,-3.6039,0.0,0.0,-3.3033,-3.2228,-3.166,-3.166,-3.147,-3.119,-3.119,-3.119,-3.119,-3.119,-3.119,-3.119,-3.119,-3.0393,-2.9496,-3.0123,-2.9361,-2.8027,-2.6822,-2.639,-2.5876,-2.407,-2.3595,-2.3551,-2.3421,-2.3421,-2.3231,-2.2634,-2.196,-2.139,-2.0894,-2.0258,-1.9798,-1.9798,-1.9798,-1.9527,-1.8821,-1.7751,-1.6613,-1.5478,-1.4346,-1.3477,-1.3057,-1.293,-1.2881,-1.2881,-1.1584,-1.0813,-1.0813,-0.9562,-0.8804,-0.8804,-0.8804,-0.8804,-0.8804,-0.8103,-0.7343,-0.6588,-0.5869,-0.5164,-0.4519,-0.4519,-0.4519,-3.4082,-3.521,-3.6135,-3.532,-3.3285,-3.0803,-2.8356,0.0,0.0,0.0,-1.6922,-1.6022,-1.6762,-1.8225,0.0,0.0,0.0,0.0,0.0,0.0,0.0,0.0,0.0,0.0,0.0,0.0,0.0,0.0,0.0,0.0,-3.8707,-3.8707,-3.8707,-3.8707,-3.8707,-3.8707,-3.8707,-3.8707,-3.8465,-3.798,-3.798,-3.798,-3.7962,-3.7205,-3.6844,-3.6666,-3.4741,0.0,0.0,-3.1842,-3.132,-3.1269,-3.1269,-3.123,-3.119,-3.119,-3.119,-3.119,-3.119,-3.119,-3.119,-3.119,-3.0393,-2.9496,-3.0123,-2.9073,-2.7523,-2.6747,-2.6107,-2.5332,-2.3954,-2.3595,-2.3465,-2.292,-2.2785,-2.2589,-2.1946,-2.1293,-2.0845,-2.0795,-2.0258,-1.9798,-1.9798,-1.9798,-1.9527,-1.8821,-1.7751,-1.6735,-1.5934,-1.48,-1.3863,-1.3496,-1.3105,-1.2881,-1.2881,-1.1584,-1.0813,-1.0813,-0.9562,-0.8804,-0.8804,-0.8804,-0.8804,-0.8804,-0.8103,-0.7343,-0.6588,-0.5869,-0.5164,-0.4519,-0.4519,-0.4519,-3.3403,-3.4651,-3.533,-3.4504,-3.2467,-2.9916,-2.7016,0.0,0.0,-1.7697,-1.6114,-1.538,-1.667,-1.7032,-1.8096,0.0,-2.1363,-2.2391,0.0,0.0,0.0,0.0,0.0,0.0,0.0,0.0,0.0,0.0,0.0,0.0,-3.8707,-3.8707,-3.8707,-3.8707,-3.8707,-3.8707,-3.8707,-3.8707,-3.8433,-3.7893,-3.7458,-3.7088,-3.6738,-3.597,-3.5345,-3.4847,-3.3812,0.0,0.0,-3.1509,-3.119,-3.119,-3.119,-3.119,-3.119,-3.119,-3.119,-3.119,-3.119,-3.0958,-3.0658,-3.0658,-2.9848,-2.8966,-2.9585,-2.8764,-2.739,-2.6273,-2.5771,-2.53,-2.3954,-2.3595,-2.3551,-2.329,-2.2965,-2.2512,-2.1852,-2.121,-2.0696,-2.0308,-2.0003,-1.9798,-1.9798,-1.9798,-1.9423,-1.8232,-1.7628,-1.6863,-1.5395,-1.484,-1.4365,-1.3926,-1.3506,-1.3154,-1.29,-1.1584,-1.0813,-1.0813,-0.9562,-0.8804,-0.8804,-0.8804,-0.8804,-0.8804,-0.8533,-0.7777,-0.6588,-0.6312,-0.5605,-0.4519,-0.4519,-0.4519,-3.1788,-3.2981,-3.3513,-3.3164,-3.1274,-2.876,0.0,0.0,-1.8845,-1.7288,-1.568,-1.498,-1.6349,-1.6343,-1.6993,-1.9711,-1.9877,-2.0721,-2.3768,0.0,0.0,0.0,0.0,0.0,0.0,0.0,0.0,0.0,0.0,0.0,0.0,-3.8707,-3.8707,-3.8707,-3.8707,-3.8707,-3.8707,-3.8707,-3.8433,-3.7893,-3.6998,-3.6362,-3.597,-3.4853,-3.4094,-3.3684,0.0,0.0,0.0,-3.1389,-3.119,-3.119,-3.119,-3.119,-3.119,-3.119,-3.1095,-3.0918,-3.0918,-3.0518,-3.0021,-3.0021,-2.9316,-2.8559,-2.8996,-2.8415,-2.7305,-2.5974,-2.5315,-2.4792,-2.3849,-2.3595,-2.3508,-2.3128,-2.2711,-2.2161,-2.1328,-2.0818,-2.0346,-1.9901,-1.9798,-1.9798,-1.9798,-1.9798,-1.9371,-1.8124,-1.7743,-1.7015,-1.5497,-1.514,-1.4805,-1.4375,-1.4062,-1.3662,-1.3115,-1.1855,-1.1015,-1.0813,-0.9718,-0.9008,-0.8811,-0.8804,-0.8804,-0.8804,-0.8804,-0.8049,-0.6588,-0.6588,-0.5878,-0.4519,-0.4519,-0.4519,-2.859,-2.9641,-3.0448,-3.1219,-2.9604,-2.7402,0.0,-2.2243,-1.8875,-1.7411,-1.5822,-1.4958,-1.5755,-1.6544,-1.7572,-1.9062,-1.9968,-2.1363,-2.3841,0.0,0.0,0.0,0.0,0.0,0.0,0.0,0.0,0.0,0.0,0.0,0.0,-3.8707,-3.8707,-3.8707,-3.8707,-3.8707,-3.8707,-3.8707,-3.8433,-3.7893,-3.6595,-3.6006,-3.5916,-3.3942,-3.328,0.0,0.0,0.0,0.0,-3.1389,-3.119,-3.119,-3.119,-3.119,-3.119,-3.119,-3.0838,-3.0293,-3.0293,-2.9892,-2.9406,-2.9406,-2.9012,-2.8511,-2.8511,-2.8091,-2.7305,-2.5974,-2.4642,-2.361,-2.3595,-2.3595,-2.326,-2.2025,-2.1697,-2.1363,-2.0093,-1.9798,-1.9798,-1.9798,-1.9798,-1.9798,-1.9798,-1.9798,-1.9527,-1.8821,-1.807,-1.7357,-1.6595,-1.5864,-1.5244,-1.4824,-1.4775,-1.4424,-1.3574,-1.2469,-1.1516,-1.0864,-1.0167,-0.951,-0.8804,-0.8804,-0.8804,-0.8804,-0.8804,-0.8049,-0.6588,-0.6588,-0.5878,-0.4519,-0.4519,-0.4519,-2.5585,-2.7108,-2.8209,-2.6833,-2.5897,-2.4905,-2.3309,-2.0629,-1.8213,-1.73,-1.5822,-1.4939,-1.5755,-1.5655,-1.6471,-1.9599,-1.9877,0.0,0.0,0.0,0.0,0.0,0.0,0.0,0.0,0.0,0.0,0.0,0.0,0.0,0.0,-3.7966,-3.812,-3.8689,-3.8175,-3.8138,-3.8689,-3.8138,-3.7885,-3.7875,-3.6096,-3.5082,-3.4693,-3.2685,0.0,0.0,0.0,0.0,0.0,-3.1252,-3.119,-3.119,-3.119,-3.0958,-3.0559,-3.0559,-3.0208,-2.9673,-2.9673,-2.9271,-2.8779,-2.8779,-2.8367,-2.7894,-2.7894,-2.776,-2.7305,-2.5974,-2.4971,-2.4193,-2.3729,-2.3275,-2.2875,-2.2498,-2.1738,-2.0966,-2.0547,-2.0105,-1.9798,-1.9798,-1.9798,-1.9798,-1.9798,-1.9798,-1.9527,-1.8821,-1.807,-1.7357,-1.6595,-1.5864,-1.5361,-1.5225,-1.4951,-1.4561,-1.3984,-1.2898,-1.1981,-1.1341,-1.0343,-0.951,-0.8804,-0.8804,-0.8804,-0.8804,-0.8804,-0.8049,-0.6588,-0.6588,-0.5878,-0.4519,-0.4519,-0.4519,0.0,-2.4192,-2.5317,-2.4118,-2.3637,-2.3098,-2.1736,-1.9505,-1.752,-1.6862,-1.5673,-1.4935,-1.5451,-1.5628,-1.6459,-1.8822,-1.9522,0.0,0.0,0.0,0.0,0.0,0.0,0.0,0.0,0.0,0.0,0.0,0.0,0.0,0.0,-3.7048,-3.6929,-3.7275,-3.7107,-3.7276,-3.779,-3.7294,-3.7138,-3.7275,-3.5377,-3.427,-3.3945,-3.2051,0.0,0.0,0.0,0.0,0.0,-3.119,-3.119,-3.119,-3.119,-3.0838,-3.0293,-3.0293,-2.9761,-2.9042,-2.9042,-2.8685,-2.814,-2.814,-2.791,-2.7625,-2.7625,-2.7229,-2.6648,-2.5804,-2.4936,-2.4071,-2.3687,-2.3143,-2.2649,-2.2392,-2.1547,-2.0746,-2.0497,-2.0093,-1.9798,-1.9798,-1.9798,-1.9798,-1.9798,-1.9798,-1.9631,-1.9202,-1.8232,-1.7413,-1.6978,-1.6026,-1.541,-1.541,-1.5176,-1.4912,-1.4639,-1.3698,-1.2715,-1.1726,-1.0985,-1.0187,-0.9193,-0.9031,-0.8971,-0.8971,-0.8864,-0.8049,-0.6588,-0.6046,-0.5336,-0.4519,-0.4519,-0.4519,0.0,-2.0917,-2.1894,-2.2545,-2.2279,-2.162,-2.076,-1.8707,0.0,-1.6224,-1.547,-1.4965,-1.5144,-1.629,-1.7288,-1.7498,0.0,0.0,0.0,0.0,0.0,0.0,0.0,0.0,0.0,0.0,0.0,0.0,0.0,0.0,0.0,-3.589,-3.5244,-3.4783,-3.5597,-3.6098,-3.6256,-3.6201,-3.6201,-3.6237,-3.4526,-3.3702,-3.3598,-3.1963,0.0,0.0,0.0,0.0,0.0,-3.119,-3.119,-3.119,-3.119,-3.0838,-3.0293,-3.0251,-2.9496,-2.8511,-2.8463,-2.8091,-2.7625,-2.7625,-2.7625,-2.7625,-2.7625,-2.6644,-2.5561,-2.5604,-2.456,-2.3497,-2.3555,-2.3054,-2.2406,-2.1758,-2.1161,-2.0547,-1.9952,-1.9798,-1.9798,-1.9798,-1.9798,-1.9798,-1.9798,-1.9798,-1.9798,-1.9747,-1.8501,-1.7578,-1.7523,-1.6301,-1.541,-1.541,-1.541,-1.541,-1.541,-1.4658,-1.3504,-1.2047,-1.1967,-1.1295,-0.9737,-0.9469,-0.9272,-0.9216,-0.8877,-0.8032,-0.6633,-0.5183,-0.4522,-0.4532,-0.4522,-0.4522,-1.5909,0.0,-1.9064,-1.8031,-1.8117,-1.838,0.0,-1.7205,-1.6299,0.0,0.0,0.0,0.0,0.0,0.0,0.0,0.0,0.0,0.0,0.0,0.0,0.0,0.0,0.0,0.0,0.0,0.0,0.0,0.0,0.0,0.0,-3.4411,-3.3933,-3.3469,-3.3419,-3.4163,-3.5755,-3.5144,-3.5175,-3.5755,-3.4345,-3.353,-3.3227,-3.2152,0.0,0.0,0.0,0.0,-3.119,-3.119,-3.119,-3.119,-3.119,-3.0838,-3.0251,-2.9761,-2.9134,-2.8415,-2.7944,-2.771,-2.7625,-2.7625,-2.7625,-2.7625,-2.7625,-2.6983,-2.6153,-2.5738,-2.4641,-2.3469,-2.3028,-2.2067,-2.1224,-2.1028,-2.0497,-2.0003,-1.985,-1.9798,-1.9798,-1.9798,-1.9798,-1.9798,-1.9798,-1.9798,-1.9592,-1.9044,-1.8178,-1.7413,-1.681,-1.5968,-1.541,-1.541,-1.541,-1.541,-1.541,-1.4932,-1.3998,-1.2513,-1.2694,-1.1855,-0.9795,-1.0222,-1.0236,-0.9579,-0.8208,-0.7373,-0.7133,-0.5354,-0.4577,-0.4633,-0.4573,-0.458,-1.4354,-1.6524,-1.8429,-1.7568,-1.7709,-1.8061,-1.7994,0.0,0.0,0.0,0.0,0.0,0.0,0.0,0.0,0.0,0.0,0.0,0.0,0.0,0.0,0.0,0.0,0.0,0.0,0.0,0.0,0.0,0.0,0.0,0.0,-3.314,-3.2631,-3.2179,-3.2372,-3.3057,-3.4175,-3.3731,-3.3731,-3.4175,-3.3263,-3.2721,-3.2485,-3.1829,-3.1411,0.0,0.0,0.0,-3.119,-3.119,-3.119,-3.119,-3.119,-3.0658,-2.9848,-2.954,-2.881,-2.8042,-2.771,-2.7625,-2.7625,-2.7625,-2.7625,-2.7625,-2.7625,-2.6864,-2.5852,-2.5365,-2.412,-2.2992,-2.2747,-2.1752,-2.0894,-2.1161,-2.0484,-1.9798,-1.9798,-1.9798,-1.9798,-1.9798,-1.9798,-1.9798,-1.9798,-1.9798,-1.9527,-1.8821,-1.807,-1.7357,-1.6595,-1.5864,-1.541,-1.541,-1.541,-1.541,-1.541,-1.5205,-1.4428,-1.2898,-1.3287,-1.253,-1.0208,-1.0755,-1.0668,-0.9744,-0.8415,-0.7645,-0.7289,-0.5955,-0.5115,-0.4796,-0.4711,-0.4718,-1.4238,-1.6563,-1.8759,-1.851,-1.8739,-1.8943,-1.868,0.0,0.0,0.0,0.0,0.0,0.0,0.0,0.0,0.0,0.0,0.0,0.0,0.0,0.0,0.0,0.0,0.0,0.0,0.0,0.0,0.0,0.0,0.0,0.0,-3.2152,-3.1528,-3.123,-3.1932,-3.2282,-3.2282,-3.235,-3.2366,-3.2384,-3.1986,-3.1752,-3.1696,-3.1411,-3.1252,0.0,0.0,0.0,-3.119,-3.119,-3.119,-3.119,-3.119,-3.0518,-2.954,-2.9451,-2.867,-2.771,-2.7625,-2.7625,-2.7625,-2.7625,-2.7625,-2.7575,-2.7473,-2.6481,-2.5259,-2.4575,-2.3341,-2.2313,-2.239,-2.1513,-2.0782,-2.128,-2.0607,-1.9798,-1.9798,-1.9798,-1.9798,-1.9798,-1.9798,-1.9798,-1.9798,-1.9798,-1.9527,-1.8821,-1.8178,-1.7468,-1.6595,-1.5921,-1.5526,-1.541,-1.541,-1.541,-1.541,-1.541,-1.4756,-1.3312,-1.3965,-1.3364,-1.1052,-1.1085,-1.0759,-0.9879,-0.9048,-0.8266,-0.739,-0.6607,-0.5763,-0.4952,-0.4928,-0.4931,-1.5344,-1.75,-1.8624,-1.7221,-1.7939,-1.8792,-1.8047,0.0,0.0,0.0,0.0,0.0,0.0,0.0,0.0,0.0,0.0,0.0,0.0,0.0,0.0,0.0,0.0,0.0,0.0,0.0,0.0,0.0,0.0,0.0,0.0,-3.1538,-3.1252,-3.119,-3.1329,-3.1389,-3.1389,-3.1733,-3.1933,-3.1933,-3.1808,-3.164,-3.1291,-3.1565,-3.1507,-3.119,0.0,-3.119,-3.119,-3.119,-3.119,-3.119,-3.119,-3.0781,-3.0123,-2.9585,-2.895,-2.8286,-2.776,-2.7625,-2.7625,-2.7625,-2.7625,-2.7458,-2.6878,-2.6054,-2.5025,-2.3379,-2.2322,-2.1546,-2.1199,-2.0547,-2.0003,-2.0093,-1.994,-1.9798,-1.9798,-1.9798,-1.9798,-1.9798,-1.9798,-1.9798,-1.9798,-1.9798,-1.9527,-1.8821,-1.8608,-1.8058,-1.6652,-1.6368,-1.6093,-1.5468,-1.541,-1.541,-1.541,-1.541,-1.4991,-1.4085,-1.4746,-1.4451,-1.2704,-1.137,-1.0656,-1.049,-0.9488,-0.8606,-0.7919,-0.6743,-0.5823,-0.5094,-0.4975,-0.4982,-1.3902,-1.6362,-1.8275,-1.7939,-1.9465,-2.0911,-2.0411,0.0,0.0,0.0,0.0,0.0,0.0,0.0,0.0,0.0,0.0,0.0,0.0,0.0,0.0,0.0,0.0,0.0,0.0,0.0,0.0,0.0,0.0,0.0,0.0,0.0,-3.119,-3.119,-3.119,-3.119,-3.119,-3.1372,-3.1487,-3.1487,-3.1487,-3.1389,-3.119,-3.1372,-3.1372,-3.119,0.0,-3.119,-3.119,-3.119,-3.1015,-3.0699,-3.0699,-3.0166,-2.9271,-2.8622,-2.8271,-2.7944,-2.771,-2.7625,-2.7625,-2.7625,-2.7357,-2.693,-2.6616,-2.5728,-2.4549,-2.3389,-2.2295,-2.1382,-2.0897,-2.0295,-1.9901,-2.0245,-2.0055,-1.9798,-1.9798,-1.9798,-1.9798,-1.9798,-1.9798,-1.9798,-1.9798,-1.9798,-1.9527,-1.8821,-1.8715,-1.8328,-1.7246,-1.709,-1.681,-1.6093,-1.5979,-1.5806,-1.541,-1.541,-1.5235,-1.4864,-1.3957,-1.3295,-1.3009,-1.1421,-1.0624,-1.0624,-1.0108,-0.9265,-0.8027,-0.7438,-0.651,-0.5254,-0.5189,-0.5192,-1.2678,-1.5057,-1.7543,-1.8954,0.0,-2.2555,-2.2812,0.0,0.0,0.0,0.0,0.0,0.0,0.0,0.0,0.0,0.0,0.0,0.0,0.0,0.0,0.0,0.0,0.0,0.0,0.0,0.0,0.0,0.0,0.0,0.0,0.0,-3.119,-3.119,-3.119,-3.119,-3.119,-3.119,-3.119,-3.119,-3.119,-3.119,-3.119,-3.119,-3.119,-3.119,-3.119,-3.119,-3.119,-3.1055,-3.0699,-3.0293,-3.0166,-2.9451,-2.8431,-2.781,-2.7625,-2.7625,-2.7625,-2.7625,-2.7575,-2.7408,-2.693,-2.6457,-2.6068,-2.5175,-2.4134,-2.3227,-2.2232,-2.1365,-2.0926,-2.031,-1.9952,-2.0446,-2.0144,-1.9798,-1.9798,-1.9798,-1.9798,-1.9798,-1.9798,-1.9798,-1.9798,-1.9798,-1.9592,-1.9044,-1.898,-1.8715,-1.795,-1.7688,-1.7302,-1.6595,-1.6379,-1.6036,-1.5468,-1.541,-1.5294,-1.5108,-1.3045,-1.2081,-1.2696,-1.1358,-1.0624,-1.0624,-1.0624,-0.9843,-0.8291,-0.8291,-0.7377,-0.5686,-0.5686,-0.5624,-1.3277,-1.4684,-1.624,-1.94,0.0,0.0,-2.3611,0.0,0.0,0.0,0.0,0.0,0.0,0.0,0.0,0.0,0.0,0.0,0.0,0.0,0.0,0.0,0.0,0.0,0.0,0.0,0.0,0.0,0.0,0.0,0.0,0.0,0.0,-3.119,-3.119,-3.119,-3.119,-3.119,-3.119,-3.119,-3.119,-3.119,-3.119,-3.119,-3.119,-3.119,-3.119,-3.119,-3.1151,-3.0617,-3.0335,-3.0251,-2.9673,-2.9058,-2.8431,-2.781,-2.7625,-2.7625,-2.7625,-2.7625,-2.7509,-2.6826,-2.6563,-2.6229,-2.4851,-2.4408,-2.394,-2.2115,-2.1574,-2.1411,-2.086,-2.0253,-1.9798,-1.985,-1.985,-1.9798,-1.9798,-1.9798,-1.9798,-1.9798,-1.9798,-1.9798,-1.9798,-1.9798,-1.9798,-1.9747,-1.9695,-1.9475,-1.8715,-1.8004,-1.7302,-1.6595,-1.5864,-1.5468,-1.541,-1.541,-1.505,-1.4323,-1.2749,-1.1834,-1.1896,-1.1045,-1.0624,-1.0624,-1.0624,-1.011,-0.9204,-0.9204,-0.8291,-0.6588,-0.6588,-0.6203,-1.2044,-1.4205,-1.6601,-1.8907,0.0,0.0,0.0,0.0,0.0,0.0,0.0,0.0,0.0,0.0,0.0,0.0,0.0,0.0,0.0,0.0,0.0,0.0,0.0,0.0,0.0,0.0,0.0,0.0,0.0,0.0,0.0,0.0,0.0,-3.119,-3.119,-3.119,-3.119,-3.119,-3.119,-3.119,-3.119,-3.119,-3.119,-3.119,-3.1015,-3.0658,-3.1015,-3.0781,-3.0081,-3.0251,-2.9848,-2.9134,-2.8543,-2.8125,-2.7894,-2.766,-2.7625,-2.7509,-2.7086,-2.693,-2.6774,-2.6068,-2.5508,-2.4939,-2.4,-2.3397,-2.2853,-2.1807,-2.1242,-2.084,-2.0275,-1.9962,-1.9798,-1.9798,-1.9798,-1.9798,-1.9798,-1.9798,-1.9798,-1.9798,-1.9798,-1.9798,-1.9798,-1.9798,-1.9798,-1.9798,-1.9798,-1.9527,-1.8768,-1.8447,-1.7852,-1.6652,-1.5864,-1.541,-1.541,-1.541,-1.4815,-1.3545,-1.2879,-1.2328,-1.1834,-1.1052,-1.0624,-1.0624,-1.0624,-1.0174,-0.9274,-0.9274,-0.8678,-0.7502,-0.6981,-0.6523,-1.178,-1.417,-1.6934,0.0,0.0,0.0,0.0,0.0,0.0,0.0,0.0,0.0,0.0,0.0,0.0,0.0,0.0,0.0,0.0,0.0,0.0,0.0,0.0,0.0,0.0,0.0,0.0,0.0,0.0,0.0,0.0,0.0,0.0,0.0,-3.119,-3.119,-3.119,-3.119,-3.119,-3.119,-3.119,-3.119,-3.119,-3.119,-3.0878,-3.0293,-3.074,-3.0335,-2.9406,-2.9629,-2.9134,-2.8174,-2.776,-2.7625,-2.7575,-2.7357,-2.7255,-2.7152,-2.639,-2.6176,-2.5972,-2.5053,-2.4442,-2.3839,-2.3024,-2.2475,-2.1933,-2.138,-2.0953,-2.0539,-1.9949,-1.9798,-1.9798,-1.9798,-1.9798,-1.9798,-1.9798,-1.9798,-1.9798,-1.9798,-1.9798,-1.9798,-1.9798,-1.9798,-1.9798,-1.9798,-1.9798,-1.9527,-1.8768,-1.8501,-1.7797,-1.6312,-1.569,-1.541,-1.541,-1.541,-1.4688,-1.313,-1.3252,-1.2818,-1.1469,-1.0863,-1.0624,-1.0624,-1.0624,-1.0301,-0.9722,-0.9722,-0.9134,-0.7962,-0.7372,-0.6785,-1.2827,-1.4672,0.0,0.0,0.0,0.0,0.0,0.0,0.0,0.0,0.0,0.0,0.0,0.0,0.0,0.0,0.0,0.0,0.0,0.0,0.0,0.0,0.0,0.0,0.0,0.0,0.0,0.0,0.0,0.0,0.0,0.0,0.0,0.0,-3.119,-3.119,-3.1173,-3.1173,-3.1173,-3.1173,-3.1173,-3.119,-3.119,-3.119,-3.0878,-3.0293,-3.0293,-2.9935,-2.9345,-2.8732,-2.8125,-2.7625,-2.7625,-2.7625,-2.7524,-2.6774,-2.651,-2.6404,-2.5673,-2.5384,-2.5177,-2.3846,-2.3369,-2.3165,-2.1855,-2.1481,-2.1368,-2.0869,-2.0706,-2.0526,-1.9949,-1.9798,-1.9798,-1.9798,-1.9798,-1.9798,-1.9798,-1.9798,-1.9798,-1.9798,-1.9798,-1.9798,-1.9798,-1.9798,-1.9798,-1.9798,-1.9798,-1.9527,-1.8768,-1.8058,-1.7024,-1.5575,-1.541,-1.541,-1.541,-1.541,-1.4746,-1.313,-1.3726,-1.3122,-1.0681,-1.0624,-1.0624,-1.0624,-1.0624,-1.0624,-1.0561,-1.0561,-0.9709,-0.8027,-0.7962,-0.7055,-1.2967,0.0,0.0,0.0,0.0,0.0,0.0,0.0,0.0,0.0,0.0,0.0,0.0,0.0,0.0,0.0,0.0,0.0,0.0,0.0,0.0,0.0,0.0,0.0,0.0,0.0,0.0,0.0,0.0,0.0,0.0,0.0,0.0,0.0,-3.0159,-3.0176,-2.9651,-2.9634,-2.9634,-2.9634,-2.9634,-3.0192,-3.119,-3.119,-3.0658,-2.9641,-2.9625,-2.8785,-2.7422,-2.7246,-2.7338,-2.7625,-2.7625,-2.7625,-2.7524,-2.6774,-2.651,-2.6279,-2.4559,-2.3968,-2.3763,-2.2489,-2.2043,-2.1941,-2.1176,-2.097,-2.079,-2.0225,-2.0062,-2.0024,-1.9849,-1.9798,-1.9798,-1.9798,-1.9798,-1.9798,-1.9798,-1.9798,-1.9798,-1.9798,-1.9798,-1.9798,-1.9798,-1.9798,-1.9631,-1.9097,-1.9044,-1.8555,-1.7302,-1.6528,-1.5853,-1.5468,-1.541,-1.541,-1.541,-1.541,-1.4932,-1.3914,-1.3545,-1.252,-1.0681,-1.117,-1.1163,-1.0624,-1.0624,-1.0301,-0.9658,-0.9658,-0.9134,-0.7962,-0.7372,-0.6789,-1.5188,0.0,0.0,0.0,0.0,0.0,0.0,0.0,0.0,0.0,0.0,0.0,0.0,0.0,0.0,0.0,0.0,0.0,0.0,0.0,0.0,0.0,0.0,0.0,0.0,0.0,0.0,0.0,0.0,0.0,0.0,0.0,0.0,0.0,-2.9414,-2.9448,-2.9011,-2.9011,-2.9011,-2.9011,-2.9011,-2.9448,-3.0311,-3.0101,-2.9477,-2.8542,-2.8024,-2.719,-2.6198,-2.6198,-2.6437,-2.6797,-2.6797,-2.6683,-2.6356,-2.5644,-2.5159,-2.4718,-2.3171,-2.2678,-2.2463,-2.1496,-2.1154,-2.1054,-2.0489,-2.0326,-2.025,-1.9899,-1.9798,-1.9798,-1.9798,-1.9798,-1.9798,-1.9798,-1.9798,-1.9798,-1.9798,-1.9798,-1.9798,-1.9798,-1.9798,-1.9798,-1.9798,-1.9798,-1.9643,-1.9202,-1.8661,-1.795,-1.7034,-1.6026,-1.541,-1.541,-1.541,-1.541,-1.541,-1.541,-1.4932,-1.3786,-1.3554,-1.2634,-1.0681,-1.1045,-1.1108,-1.0624,-1.0624,-1.0174,-0.9274,-0.9274,-0.8678,-0.7502,-0.6915,-0.6527,0.0,0.0,0.0,0.0,0.0,0.0,0.0,0.0,0.0,0.0,0.0,0.0,0.0,0.0,0.0,0.0,0.0,0.0,0.0,0.0,0.0,0.0,0.0,0.0,0.0,0.0,0.0,0.0,0.0,0.0,0.0,0.0,0.0,-2.8808,-2.8876,-2.8876,-2.8808,-2.8808,-2.8808,0.0,-2.8808,-2.8808,-2.8772,-2.8394,-2.7793,-2.7073,-2.5986,-2.5525,-2.5525,-2.5525,-2.5555,-2.5615,-2.5615,-2.5254,-2.463,-2.3895,-2.3173,-2.247,-2.1682,-2.1418,-2.133,-2.0765,-2.0643,-2.0542,-1.9962,-1.9798,-1.9798,-1.9798,-1.9798,-1.9798,-1.9798,-1.9798,-1.9798,-1.9798,-1.9798,-1.9798,-1.9798,-1.9798,-1.9798,-1.9798,-1.9798,-1.9798,-1.9798,-1.9798,-1.9798,-1.9695,-1.8447,-1.7523,-1.7523,-1.6244,-1.541,-1.541,-1.541,-1.541,-1.541,-1.541,-1.4746,-1.3191,-1.3734,-1.3053,-1.0807,-1.0681,-1.0681,-1.0624,-1.0624,-1.011,-0.9204,-0.9204,-0.8291,-0.6593,-0.6593,-0.6141,0.0,0.0,0.0,0.0,0.0,0.0,0.0,0.0,0.0,0.0,0.0,0.0,0.0,0.0,0.0,0.0,0.0,0.0,0.0,0.0,0.0,0.0,0.0,0.0,0.0,0.0,0.0,0.0,0.0,0.0,0.0,0.0,0.0,-2.7199,-2.7774,-2.7791,-2.7182,-2.7182,-2.7182,0.0,-2.7182,-2.7182,-2.7232,-2.7873,-2.7356,-2.5842,-2.5122,-2.4837,-2.4837,-2.4837,-2.5151,-2.5615,-2.5615,-2.5254,-2.463,-2.3895,-2.3173,-2.2458,-2.1237,-2.084,-2.074,-2.0175,-1.9987,-1.9962,-1.9836,-1.9798,-1.9798,-1.9798,-1.9798,-1.9798,-1.9798,-1.9798,-1.9798,-1.9798,-1.9798,-1.9798,-1.9798,-1.9798,-1.9798,-1.9798,-1.9798,-1.9798,-1.9798,-1.9798,-1.9579,-1.9032,-1.7688,-1.6765,-1.6765,-1.5979,-1.541,-1.541,-1.541,-1.541,-1.541,-1.541,-1.4991,-1.4025,-1.3485,-1.2757,-1.1593,-1.1531,-1.1226,-1.0624,-1.0624,-0.9843,-0.8291,-0.8291,-0.7377,-0.5686,-0.5686,-0.5554,0.0,0.0,0.0,0.0,0.0,0.0,0.0,0.0,0.0,0.0,0.0,0.0,0.0,0.0,0.0,0.0,0.0,0.0,0.0,0.0,0.0,0.0,0.0,0.0,0.0,0.0,0.0,0.0,0.0,0.0,0.0,-2.7063,-2.7097,-2.6708,-2.708,-2.7097,-2.6691,-2.6691,-2.6691,-2.6691,-2.6691,-2.647,-2.5997,-2.6531,-2.5983,-2.4567,-2.425,-2.4133,-2.4133,-2.4133,-2.4343,-2.4597,-2.4309,-2.3815,-2.3166,-2.2506,-2.1847,-2.1185,-2.0496,-2.025,-2.02,-1.9899,-1.9798,-1.9798,-1.9798,-1.9798,-1.9798,-1.9798,-1.9798,-1.9798,-1.9798,-1.9798,-1.9798,-1.9798,-1.9798,-1.9798,-1.9798,-1.9798,-1.9798,-1.9798,-1.9798,-1.9798,-1.9798,-1.9798,-1.9527,-1.8821,-1.7743,-1.6922,-1.6549,-1.5864,-1.541,-1.541,-1.541,-1.541,-1.541,-1.505,-1.451,-1.3666,-1.2879,-1.2081,-1.1288,-1.1226,-1.1052,-1.0624,-1.0174,-0.9326,-0.8027,-0.7567,-0.6728,-0.5428,-0.5428,-0.5428,0.0,0.0,0.0,0.0,0.0,0.0,0.0,0.0,0.0,0.0,0.0,0.0,0.0,0.0,0.0,0.0,0.0,0.0,0.0,0.0,0.0,0.0,0.0,0.0,0.0,0.0,0.0,0.0,0.0,0.0,-2.6691,-2.6691,-2.6691,-2.6691,-2.6691,-2.6691,-2.6691,-2.6691,-2.6691,-2.6691,-2.6624,-2.6087,-2.5221,-2.5089,-2.4511,-2.3595,-2.3595,-2.3595,-2.3595,-2.3595,-2.3595,-2.3551,-2.2934,-2.23,-2.1615,-2.1028,-2.0396,-1.9798,-1.9798,-1.9798,-1.9798,-1.9798,-1.9798,-1.9798,-1.9798,-1.9798,-1.9798,-1.9798,-1.9798,-1.9798,-1.9798,-1.9798,-1.9798,-1.9798,-1.9798,-1.9798,-1.9798,-1.9798,-1.9798,-1.9798,-1.9798,-1.9798,-1.9798,-1.9695,-1.9423,-1.8768,-1.7961,-1.7202,-1.6595,-1.5864,-1.541,-1.541,-1.541,-1.5352,-1.5167,-1.4569,-1.3786,-1.2818,-1.2143,-1.1469,-1.0618,-1.0624,-1.0561,-1.0364,-0.9658,-0.8877,-0.8027,-0.7111,-0.6268,-0.5428,-0.5428,-0.5428,0.0,0.0,0.0,0.0,0.0,0.0,0.0,0.0,0.0,0.0,0.0,0.0,0.0,0.0,0.0,0.0,0.0,0.0,0.0,0.0,0.0,0.0,0.0,0.0,0.0,0.0,0.0,0.0,0.0,0.0,-2.6691,-2.6691,-2.6691,-2.6691,-2.6691,-2.6691,-2.6691,-2.6691,-2.6691,-2.6691,-2.6297,-2.5762,-2.5182,-2.4712,-2.4199,-2.3595,-2.3595,-2.3595,-2.3595,-2.3595,-2.3595,-2.3551,-2.2934,-2.23,-2.1615,-2.1028,-2.0396,-1.9798,-1.9798,-1.9798,-1.9798,-1.9798,-1.9798,-1.9798,-1.9798,-1.9798,-1.9798,-1.9798,-1.9798,-1.9798,-1.9798,-1.9798,-1.9798,-1.9798,-1.9798,-1.9798,-1.9798,-1.9798,-1.9798,-1.9798,-1.9798,-1.9798,-1.9798,-1.9254,-1.8821,-1.8715,-1.7523,-1.6595,-1.6482,-1.5864,-1.541,-1.541,-1.541,-1.5108,-1.4451,-1.4273,-1.3537,-1.2081,-1.1834,-1.1469,-1.0618,-1.0624,-1.0238,-0.9466,-0.9338,-0.8877,-0.8027,-0.7111,-0.6268,-0.5428,-0.5428,-0.5428,0.0,0.0,0.0,0.0,0.0,0.0,0.0,0.0,0.0,0.0,0.0,0.0,0.0,0.0,0.0,0.0,0.0,0.0,0.0,0.0,0.0,0.0,0.0,0.0,0.0,0.0,0.0,0.0,0.0,-2.6691,-2.6691,-2.6691,-2.6691,-2.6691,-2.6691,-2.6691,-2.6691,-2.6691,-2.6691,-2.6691,-2.6227,-2.5726,-2.5182,-2.4617,-2.4116,-2.3595,-2.3595,-2.3595,-2.3595,-2.3595,-2.3595,-2.3508,-2.2515,-2.1946,-2.1554,-2.057,-2.0055,-1.9798,-1.9798,-1.9798,-1.9798,-1.9798,-1.9798,-1.9798,-1.9798,-1.9798,-1.9798,-1.9798,-1.9798,-1.9798,-1.9798,-1.9798,-1.9798,-1.9798,-1.9798,-1.9798,-1.9798,-1.9798,-1.9798,-1.9798,-1.9798,-1.9798,-1.9798,-1.9527,-1.9202,-1.8768,-1.7797,-1.6978,-1.6539,-1.5864,-1.541,-1.541,-1.541,-1.5235,-1.4874,-1.4034,-1.3243,-1.2512,-1.1655,-1.0989,-1.0624,-1.011,-0.9722,-0.9338,-0.8812,-0.8156,-0.7242,-0.64,-0.5749,-0.5428,-0.5428,-0.5428,0.0,0.0,0.0,0.0,0.0,0.0,0.0,0.0,0.0,0.0,0.0,0.0,0.0,0.0,0.0,0.0,0.0,0.0,0.0,0.0,0.0,0.0,0.0,0.0,0.0,0.0,0.0,0.0,0.0,-2.6691,-2.6691,-2.6691,-2.6691,-2.6691,-2.6691,-2.6691,-2.6691,-2.6691,-2.6691,-2.6691,-2.6104,-2.5577,-2.5182,-2.4511,-2.3991,-2.3595,-2.3595,-2.3595,-2.3595,-2.3595,-2.3595,-2.3508,-2.2377,-2.1852,-2.1568,-2.0484,-1.9952,-1.9798,-1.9798,-1.9798,-1.9747,-1.9579,-1.9527,-1.9527,-1.9527,-1.9527,-1.9579,-1.9747,-1.9798,-1.9798,-1.9798,-1.9798,-1.9798,-1.9798,-1.9798,-1.9798,-1.9798,-1.9798,-1.9798,-1.9798,-1.9798,-1.9798,-1.9798,-1.9631,-1.9307,-1.8768,-1.7895,-1.7146,-1.6539,-1.5864,-1.541,-1.541,-1.541,-1.5294,-1.5108,-1.3795,-1.2887,-1.2696,-1.1358,-1.0624,-1.0624,-0.9786,-0.9204,-0.8947,-0.8091,-0.7372,-0.6719,-0.5815,-0.5428,-0.5428,-0.5428,-0.5428,0.0,0.0,0.0,0.0,0.0,0.0,0.0,0.0,0.0,0.0,0.0,0.0,0.0,0.0,0.0,0.0,0.0,0.0,0.0,0.0,0.0,0.0,0.0,0.0,0.0,0.0,0.0,0.0,0.0,-2.6691,-2.6691,-2.6691,-2.6691,-2.6691,-2.6691,-2.6691,-2.6691,-2.6691,-2.6691,-2.6691,-2.5709,-2.5221,-2.5182,-2.4116,-2.3638,-2.3595,-2.3595,-2.3595,-2.3595,-2.3595,-2.3595,-2.3551,-2.292,-2.2253,-2.1615,-2.0979,-2.0359,-1.9798,-1.9798,-1.9798,-1.9683,-1.898,-1.8768,-1.8768,-1.8768,-1.8768,-1.8874,-1.9579,-1.9798,-1.9798,-1.9798,-1.9798,-1.9798,-1.9798,-1.9798,-1.9798,-1.9798,-1.9798,-1.9798,-1.9798,-1.9798,-1.9798,-1.9798,-1.9202,-1.8715,-1.8715,-1.7468,-1.6539,-1.6492,-1.5864,-1.541,-1.541,-1.541,-1.5108,-1.4332,-1.3494,-1.2696,-1.1888,-1.1045,-1.0624,-1.0624,-0.9786,-0.8941,-0.8091,-0.7242,-0.6719,-0.6719,-0.5815,-0.5428,-0.5428,-0.5428,-0.5428,0.0,0.0,0.0,0.0,0.0,0.0,0.0,0.0,0.0,0.0,0.0,0.0,0.0,0.0,0.0,0.0,0.0,0.0,0.0,0.0,0.0,0.0,0.0,0.0,0.0,0.0,0.0,0.0,0.0,0.0,-2.527,-2.527,-2.549,-2.5981,-2.5998,-2.6218,-2.6691,-2.6401,-2.6262,-2.6227,-2.5166,-2.4712,-2.4657,-2.3906,-2.3595,-2.3595,-2.3595,-2.3595,-2.3595,-2.3595,-2.3595,-2.3508,-2.2469,-2.1899,-2.1554,-2.0534,-2.0003,-1.9798,-1.9798,-1.9798,-1.9695,-1.8939,-1.8715,-1.8715,-1.8715,-1.8715,-1.8874,-1.9579,-1.9798,-1.9798,-1.9798,-1.9798,-1.9798,-1.9798,-1.9798,-1.9798,-1.9798,-1.9798,-1.9798,-1.9798,-1.9798,-1.9798,-1.9798,-1.9579,-1.9254,-1.8768,-1.7852,-1.7034,-1.6549,-1.5864,-1.541,-1.541,-1.541,-1.5294,-1.4991,-1.3786,-1.2887,-1.2573,-1.078,-0.9786,-0.9786,-0.8415,-0.7502,-0.7177,-0.6334,-0.5881,-0.5881,-0.5557,-0.5428,-0.5428,-0.5428,-0.5428,0.0,0.0,0.0,0.0,0.0,0.0,0.0,0.0,0.0,0.0,0.0,0.0,0.0,0.0,0.0,0.0,0.0,0.0,0.0,0.0,0.0,0.0,0.0,0.0,0.0,0.0,0.0,0.0,0.0,0.0,-2.4506,-2.4506,-2.4712,-2.522,-2.5236,-2.5456,-2.5947,-2.5882,-2.5791,-2.5598,-2.5147,-2.4752,-2.4389,-2.4032,-2.3752,-2.3595,-2.3595,-2.3595,-2.3595,-2.3595,-2.3595,-2.3508,-2.2469,-2.1899,-2.1554,-2.0521,-2.0003,-1.9798,-1.9798,-1.9798,-1.9643,-1.8661,-1.834,-1.834,-1.834,-1.834,-1.8555,-1.9527,-1.9798,-1.9798,-1.9798,-1.9631,-1.9423,-1.9423,-1.9423,-1.9475,-1.9747,-1.9798,-1.9798,-1.9798,-1.9798,-1.9798,-1.9798,-1.9579,-1.9254,-1.8768,-1.7841,-1.7034,-1.6539,-1.5864,-1.541,-1.541,-1.5167,-1.4991,-1.4991,-1.3537,-1.2573,-1.2573,-1.0521,-0.9274,-0.9274,-0.7632,-0.6719,-0.6719,-0.5815,-0.5428,-0.5428,-0.5428,-0.5428,-0.5362,-0.509,-0.4755,0.0,0.0,0.0,0.0,0.0,0.0,0.0,0.0,0.0,0.0,0.0,0.0,0.0,0.0,0.0,0.0,0.0,0.0,0.0,0.0,0.0,0.0,0.0,0.0,0.0,0.0,0.0,0.0,0.0,-2.4455,-2.4455,-2.4472,-2.4472,-2.4472,-2.4506,-2.4506,-2.4506,-2.5203,-2.5263,-2.4789,-2.5549,-2.5363,-2.4327,-2.4327,-2.407,-2.3565,-2.3565,-2.358,-2.3595,-2.3595,-2.3595,-2.3551,-2.292,-2.2253,-2.1602,-2.1028,-2.0359,-1.9798,-1.9798,-1.9798,-1.9527,-1.807,-1.7578,-1.7578,-1.7578,-1.7578,-1.7895,-1.9371,-1.9747,-1.9747,-1.9747,-1.9202,-1.8661,-1.8715,-1.8715,-1.8874,-1.9643,-1.9798,-1.9747,-1.9798,-1.9798,-1.9747,-1.9747,-1.915,-1.8661,-1.8661,-1.7413,-1.6492,-1.6492,-1.5864,-1.541,-1.541,-1.4688,-1.4213,-1.4213,-1.2749,-1.1764,-1.1764,-1.0212,-0.9274,-0.921,-0.7567,-0.6654,-0.6654,-0.5815,-0.5362,-0.5359,-0.5362,-0.5362,-0.5359,-0.4417,-0.348,-1.0267,0.0,0.0,0.0,0.0,0.0,0.0,0.0,0.0,0.0,0.0,0.0,0.0,0.0,0.0,0.0,0.0,0.0,0.0,0.0,0.0,0.0,0.0,0.0,0.0,0.0,0.0,0.0,-2.2919,-2.2919,-2.2919,-2.341,-2.3697,-2.3697,-2.4205,-2.4506,-2.4506,-2.4328,-2.4166,-2.4016,-2.3883,-2.3512,-2.2871,-2.2871,-2.2928,-2.2936,-2.2936,-2.3191,-2.3595,-2.3595,-2.3595,-2.3508,-2.2423,-2.1852,-2.1554,-2.0471,-1.9952,-1.9798,-1.9798,-1.9475,-1.8874,-1.7907,-1.7246,-1.681,-1.681,-1.7202,-1.7797,-1.8715,-1.898,-1.8874,-1.834,-1.807,-1.8058,-1.8555,-1.8715,-1.8874,-1.9643,-1.9359,-1.915,-1.9695,-1.9371,-1.898,-1.898,-1.8382,-1.7743,-1.7202,-1.6765,-1.6322,-1.5748,-1.5526,-1.541,-1.541,-1.4688,-1.4213,-1.4213,-1.2749,-1.1509,-1.0871,-0.9296,-0.8091,-0.7437,-0.6338,-0.5752,-0.5752,-0.5491,-0.509,-0.4417,-0.509,-0.5024,-0.435,-0.348,-0.2544,0.0,0.0,0.0,0.0,0.0,0.0,0.0,0.0,0.0,0.0,0.0,0.0,0.0,0.0,0.0,0.0,0.0,0.0,0.0,0.0,0.0,0.0,0.0,0.0,0.0,0.0,0.0,-2.231,-2.231,-2.231,-2.231,-2.2716,-2.2936,-2.2936,-2.3359,-2.3579,-2.3579,-2.3589,-2.3454,-2.3244,-2.3506,-2.3243,-2.2577,-2.2613,-2.2607,-2.2531,-2.2671,-2.2877,-2.3236,-2.349,-2.3465,-2.3143,-2.2086,-2.1568,-2.1197,-2.0181,-1.9592,-1.9359,-1.9359,-1.8874,-1.8112,-1.7357,-1.6877,-1.6549,-1.6866,-1.7246,-1.7743,-1.8501,-1.8501,-1.807,-1.7357,-1.7357,-1.7688,-1.8124,-1.8501,-1.8821,-1.9254,-1.898,-1.8821,-1.9254,-1.8768,-1.8221,-1.8221,-1.7633,-1.6978,-1.6539,-1.6265,-1.5864,-1.5468,-1.541,-1.5284,-1.4932,-1.4213,-1.3545,-1.3235,-1.1695,-1.0514,-1.0002,-0.8398,-0.7242,-0.6719,-0.5881,-0.5428,-0.5428,-0.5428,-0.4954,-0.4015,-0.4553,-0.4148,-0.2878,-0.2342,-0.1406,0.0,0.0,0.0,0.0,0.0,0.0,0.0,-1.5028,0.0,0.0,0.0,0.0,0.0,0.0,0.0,0.0,0.0,0.0,0.0,0.0,0.0,0.0,0.0,0.0,0.0,-2.231,-2.231,-2.231,-2.231,-2.231,-2.231,-2.231,-2.231,-2.231,-2.231,-2.231,-2.231,-2.2953,-2.3033,-2.2584,-2.3718,-2.3767,-2.286,-2.2914,-2.2663,-2.22,-2.2455,-2.257,-2.2607,-2.3161,-2.3113,-2.2649,-2.1946,-2.1342,-2.0696,-2.0055,-1.9371,-1.8821,-1.8715,-1.8274,-1.7578,-1.6765,-1.6492,-1.6595,-1.7302,-1.7468,-1.7633,-1.8274,-1.8058,-1.7413,-1.6595,-1.6978,-1.7578,-1.7523,-1.8058,-1.8555,-1.8555,-1.8501,-1.8447,-1.8447,-1.7961,-1.7468,-1.7468,-1.6866,-1.6379,-1.6379,-1.5806,-1.541,-1.541,-1.5294,-1.4991,-1.4273,-1.3425,-1.2512,-1.1703,-1.0212,-0.9204,-0.9011,-0.7567,-0.6654,-0.6588,-0.5815,-0.5428,-0.5428,-0.5209,-0.4665,-0.373,-0.3675,-0.2809,-0.1138,-0.1072,-0.0134,-1.5118,-1.5695,-1.6311,0.0,0.0,0.0,0.0,-1.3085,0.0,0.0,0.0,0.0,0.0,0.0,0.0,0.0,0.0,0.0,0.0,0.0,0.0,0.0,0.0,0.0,0.0,-2.231,-2.231,-2.231,-2.231,-2.231,-2.231,-2.231,-2.231,-2.231,-2.231,-2.231,-2.231,-2.2446,-2.2456,-2.2353,-2.2608,-2.2438,-2.1854,-2.1886,-2.1761,-2.1502,-2.1532,-2.1683,-2.1889,-2.2024,-2.2332,-2.2649,-2.1946,-2.1342,-2.0696,-2.0055,-1.9695,-1.9475,-1.8927,-1.8608,-1.8286,-1.6922,-1.6492,-1.6549,-1.6652,-1.6708,-1.6765,-1.6866,-1.7246,-1.7302,-1.5968,-1.6585,-1.7468,-1.6866,-1.7302,-1.7786,-1.7786,-1.7357,-1.6922,-1.6922,-1.681,-1.6708,-1.6708,-1.6083,-1.5633,-1.5633,-1.5468,-1.541,-1.541,-1.4805,-1.4382,-1.4213,-1.2931,-1.1695,-1.0808,-0.9888,-0.8683,-0.7307,-0.6915,-0.6396,-0.5686,-0.5491,-0.5428,-0.5428,-0.3991,-0.2783,-0.1817,-0.1856,-0.1272,-0.0267,0.0468,0.1406,0.0,0.0,-1.7503,-1.6651,0.0,0.0,0.0,0.0,0.0,0.0,0.0,0.0,0.0,0.0,0.0,0.0,0.0,0.0,0.0,0.0,0.0,0.0,0.0,0.0,0.0,-2.209,-2.231,-2.231,-2.231,-2.231,-2.231,-2.231,-2.231,-2.231,-2.231,-2.231,-2.231,-2.231,-2.231,-2.231,-2.231,-2.218,-2.1928,-2.1718,-2.1422,-2.1151,-2.1253,-2.1262,-2.1231,-2.156,-2.1713,-2.1642,-2.1038,-2.0414,-1.9882,-1.9509,-1.9194,-1.8848,-1.8737,-1.8447,-1.8015,-1.7302,-1.7034,-1.7034,-1.7034,-1.6821,-1.6492,-1.6492,-1.6765,-1.6866,-1.614,-1.6754,-1.7523,-1.7146,-1.7302,-1.7523,-1.7146,-1.6765,-1.6379,-1.6036,-1.5921,-1.5921,-1.5921,-1.5633,-1.541,-1.541,-1.541,-1.5235,-1.4864,-1.4451,-1.3906,-1.3114,-1.2258,-1.1461,-1.0647,-0.9378,-0.8291,-0.7372,-0.644,-0.5689,-0.5247,-0.5179,-0.4947,-0.4626,-0.2912,-0.176,-0.1323,-0.0511,0.0128,0.0578,0.1348,0.2263,0.0,0.0,0.0,0.0,0.0,-1.6695,0.0,0.0,0.0,-1.613,0.0,0.0,0.0,0.0,0.0,0.0,0.0,0.0,0.0,0.0,0.0,0.0,0.0,0.0,0.0,-2.1177,-2.1684,-2.226,-2.1904,-2.1854,-2.2293,-2.231,-2.231,-2.231,-2.231,-2.231,-2.231,-2.231,-2.231,-2.231,-2.231,-2.231,-2.2282,-2.1823,-2.1368,-2.0991,-2.1077,-2.088,-2.0557,-2.1081,-2.0986,-2.0474,-2.0161,-1.9622,-1.9009,-1.9019,-1.8586,-1.801,-1.8275,-1.8102,-1.7699,-1.7508,-1.75,-1.7523,-1.7246,-1.6978,-1.6652,-1.6539,-1.6595,-1.6652,-1.6539,-1.7034,-1.7523,-1.7235,-1.7302,-1.7202,-1.6425,-1.6322,-1.6093,-1.5526,-1.541,-1.541,-1.541,-1.541,-1.5352,-1.5167,-1.5177,-1.4874,-1.4085,-1.3846,-1.3235,-1.1958,-1.1648,-1.1156,-1.0161,-0.8756,-0.7832,-0.7445,-0.5927,-0.5091,-0.5091,-0.4794,-0.4241,-0.332,-0.1833,-0.0975,-0.0854,0.0727,0.1459,0.1416,0.215,0.3047,0.0,0.0,0.0,0.0,-2.0493,0.0,0.0,0.0,-1.5708,-1.4283,0.0,0.0,0.0,0.0,0.0,0.0,0.0,0.0,0.0,0.0,0.0,0.0,0.0,0.0,0.0,0.0,-1.9435,-2.2107,-2.0433,-2.0179,-2.2209,-2.231,-2.231,-2.231,-2.231,-2.231,-2.231,-2.231,-2.231,-2.231,-2.231,-2.231,-2.2282,-2.1823,-2.1368,-2.0975,-2.0595,-2.0177,-1.9809,-1.9884,-1.9863,-1.9857,-2.0414,-1.9958,-1.9002,-1.9022,-1.8644,-1.8088,-1.7471,-1.7654,-1.8007,-1.7162,-1.7221,-1.7357,-1.6026,-1.6518,-1.7357,-1.6652,-1.6978,-1.7302,-1.6652,-1.7034,-1.7291,-1.5968,-1.614,-1.6425,-1.569,-1.5526,-1.5526,-1.541,-1.541,-1.541,-1.541,-1.541,-1.5167,-1.4451,-1.4332,-1.4034,-1.3252,-1.2504,-1.2012,-1.1834,-1.117,-1.0098,-0.8415,-0.7964,-0.7096,-0.5534,-0.5082,-0.4945,-0.4945,-0.4311,-0.3195,-0.16,-0.0777,0.0059,0.0827,0.2345,0.2789,0.2335,0.307,0.3939,0.0,0.0,0.0,0.0,0.0,0.0,0.0,0.0,-1.5621,0.0,0.0,0.0,0.0,0.0,0.0,0.0,0.0,0.0,0.0,0.0,0.0,0.0,0.0,0.0,0.0,0.0,0.0,0.0,0.0,-1.9063,-2.0863,-2.1414,-2.1854,-2.2293,-2.231,-2.231,-2.231,-2.231,-2.231,-2.231,-2.231,-2.231,-2.2282,-2.2106,-2.1645,-2.0991,-2.0797,-2.033,-1.969,-1.969,-1.969,-1.9735,-2.0011,-1.9447,-1.8461,-1.8534,-1.8203,-1.7718,-1.7735,-1.7941,-1.8086,-1.7331,-1.6856,-1.6503,-1.5908,-1.5982,-1.6244,-1.5979,-1.6368,-1.6866,-1.6595,-1.6708,-1.681,-1.6197,-1.5921,-1.5748,-1.5468,-1.541,-1.5235,-1.4805,-1.4688,-1.4569,-1.4094,-1.4392,-1.4451,-1.3606,-1.3485,-1.3183,-1.2389,-1.202,-1.1648,-1.1163,-1.0643,-0.9854,-0.8651,-0.7865,-0.6941,-0.5793,-0.4736,-0.4092,-0.4016,-0.2849,-0.1687,-0.0581,0.0172,0.0968,0.1767,0.2805,0.3166,0.2965,0.3776,0.4348,-2.3658,0.0,0.0,0.0,0.0,0.0,0.0,0.0,0.0,0.0,0.0,0.0,0.0,0.0,0.0,0.0,0.0,0.0,0.0,0.0,0.0,0.0,0.0,0.0,0.0,0.0,0.0,0.0,0.0,0.0,-1.9883,-2.0551,-2.1312,-2.2276,-2.231,-2.231,-2.231,-2.231,-2.231,-2.231,-2.231,-2.231,-2.2282,-2.218,-2.1705,-2.0991,-2.0991,-2.0514,-1.9726,-1.9818,-1.9818,-1.969,-1.969,-1.9043,-1.8121,-1.8165,-1.7843,-1.7409,-1.7647,-1.784,-1.7825,-1.7015,-1.6632,-1.6352,-1.5987,-1.6095,-1.6234,-1.6083,-1.6358,-1.6754,-1.6539,-1.6379,-1.6208,-1.6208,-1.5806,-1.541,-1.541,-1.541,-1.5167,-1.4392,-1.4213,-1.3846,-1.2879,-1.3364,-1.3606,-1.2818,-1.2696,-1.2389,-1.1593,-1.1469,-1.1226,-1.0681,-1.0367,-0.9888,-0.8997,-0.7963,-0.6885,-0.578,-0.4323,-0.3375,-0.307,-0.1786,-0.0726,0.0,0.0949,0.1675,0.2174,0.3176,0.3622,0.3622,0.4236,0.4577,0.0,0.0,0.0,-2.1158,0.0,0.0,0.0,0.0,-1.7274,0.0,0.0,0.0,0.0,0.0,0.0,0.0,0.0,0.0,0.0,0.0,0.0,0.0,0.0,0.0,0.0,0.0,0.0,0.0,0.0,0.0,-1.9765,-2.0018,-2.0728,-2.226,-2.231,-2.231,-2.231,-2.231,-2.231,-2.231,-2.231,-2.231,-2.2282,-2.1823,-2.1399,-2.0991,-2.0991,-2.0514,-1.9711,-2.0124,-2.0054,-1.969,-1.969,-1.9043,-1.8106,-1.808,-1.7774,-1.7227,-1.6731,-1.6936,-1.7206,-1.5831,-1.6497,-1.7559,-1.6299,-1.7176,-1.8447,-1.7731,-1.7523,-1.7413,-1.6708,-1.5979,-1.541,-1.541,-1.541,-1.541,-1.541,-1.541,-1.5167,-1.4392,-1.4213,-1.3717,-1.2135,-1.2512,-1.2765,-1.195,-1.1826,-1.1531,-1.0744,-1.0624,-1.0624,-1.0624,-1.0618,-1.0101,-0.888,-0.8029,-0.6653,-0.4661,-0.3799,-0.3012,-0.2287,-0.1507,-0.0727,0.0,0.1452,0.2174,0.223,0.3735,0.446,0.446,0.4463,0.4519,0.0,0.0,-2.4764,-2.2504,0.0,0.0,0.0,0.0,0.0,0.0,0.0,0.0,0.0,0.0,0.0,-1.5472,0.0,0.0,0.0,0.0,0.0,0.0,0.0,0.0,0.0,0.0,0.0,0.0,0.0,0.0,0.0,-1.9533,-2.0744,-2.1756,-2.2105,-2.231,-2.231,-2.231,-2.231,-2.231,-2.231,-2.231,-2.2282,-2.2135,-2.184,-2.1368,-2.1134,-2.0665,-2.0089,-1.998,-1.9818,-1.969,-1.969,-1.9479,-1.908,-1.838,-1.7544,-1.6752,-1.6552,-1.6361,-1.6203,-1.6068,-1.6365,-1.6735,-1.6647,-1.7241,-1.7852,-1.709,-1.6866,-1.6698,-1.5979,-1.5584,-1.541,-1.541,-1.541,-1.541,-1.541,-1.4991,-1.4392,-1.3545,-1.3,-1.2258,-1.117,-1.1233,-1.1296,-1.1045,-1.0989,-1.0926,-1.0624,-1.0624,-1.0624,-1.0624,-1.0214,-0.9449,-0.8078,-0.6432,-0.5241,-0.4525,-0.3287,-0.2454,-0.223,-0.0558,0.0726,0.1452,0.2397,0.3176,0.3735,0.4236,0.4519,0.4519,0.4519,0.4519,-2.5303,-2.5303,0.0,-2.3141,-2.1876,0.0,-1.8392,0.0,0.0,0.0,0.0,0.0,0.0,0.0,0.0,-1.5876,-1.4345,0.0,0.0,0.0,0.0,0.0,0.0,0.0,0.0,0.0,-1.2984,-1.3563,0.0,0.0,0.0,0.0,-2.0058,-2.1361,-2.197,-2.231,-2.231,-2.231,-2.231,-2.231,-2.231,-2.231,-2.231,-2.231,-2.2032,-2.1582,-2.1507,-2.1023,-2.028,-2.0208,-1.998,-1.969,-1.969,-1.9566,-1.9332,-1.8419,-1.7435,-1.6522,-1.6522,-1.6238,-1.5925,-1.6071,-1.6492,-1.6956,-1.7069,-1.7688,-1.8221,-1.7468,-1.709,-1.6754,-1.6301,-1.5796,-1.5468,-1.5748,-1.5584,-1.5294,-1.505,-1.4569,-1.3906,-1.2757,-1.2143,-1.1531,-1.0744,-1.0624,-1.0624,-1.0624,-1.0624,-1.0624,-1.0624,-1.053,-1.0401,-1.0401,-0.9812,-0.8765,-0.7186,-0.5705,-0.4618,-0.4125,-0.2899,-0.2063,-0.184,-0.0168,0.1062,0.1786,0.2508,0.3287,0.407,0.4349,0.4519,0.4519,0.4519,0.4519]}]]